<?xml version='1.0' encoding='UTF-8'?>
<gpx version="1.1" creator="https://www.komoot.de" xmlns="http://www.topografix.com/GPX/1/1" xmlns:xsi="http://www.w3.org/2001/XMLSchema-instance" xsi:schemaLocation="http://www.topografix.com/GPX/1/1 http://www.topografix.com/GPX/1/1/gpx.xsd">
  <metadata>
    <name>69_1000GuennebRuehrbChrisch</name>
    <author>
      <link href="https://www.komoot.de">
        <text>komoot</text>
        <type>text/html</type>
      </link>
    </author>
  </metadata>
  <trk>
    <name>69_1000GuennebRuehrbChrisch</name>
    <trkseg>
      <trkpt lat="47.541796" lon="7.871042">
        <ele>342.434816</ele>
        <time>2021-11-20T07:08:09.845Z</time>
      </trkpt>
      <trkpt lat="47.541796" lon="7.871042">
        <ele>342.434816</ele>
        <time>2021-11-20T07:08:09.847Z</time>
      </trkpt>
      <trkpt lat="47.541953" lon="7.871286">
        <ele>342.434816</ele>
        <time>2021-11-20T07:08:14.910Z</time>
      </trkpt>
      <trkpt lat="47.542039" lon="7.871556">
        <ele>342.434816</ele>
        <time>2021-11-20T07:08:19.483Z</time>
      </trkpt>
      <trkpt lat="47.542067" lon="7.871664">
        <ele>342.434816</ele>
        <time>2021-11-20T07:08:21.226Z</time>
      </trkpt>
      <trkpt lat="47.542091" lon="7.871721">
        <ele>342.434816</ele>
        <time>2021-11-20T07:08:21.868Z</time>
      </trkpt>
      <trkpt lat="47.542218" lon="7.871866">
        <ele>342.434816</ele>
        <time>2021-11-20T07:08:27.279Z</time>
      </trkpt>
      <trkpt lat="47.542394" lon="7.872341">
        <ele>343.307313</ele>
        <time>2021-11-20T07:08:37.734Z</time>
      </trkpt>
      <trkpt lat="47.542436" lon="7.872494">
        <ele>343.849785</ele>
        <time>2021-11-20T07:08:41.095Z</time>
      </trkpt>
      <trkpt lat="47.542537" lon="7.872430">
        <ele>344.384263</ele>
        <time>2021-11-20T07:08:43.283Z</time>
      </trkpt>
      <trkpt lat="47.542714" lon="7.872334">
        <ele>345.301350</ele>
        <time>2021-11-20T07:08:50.213Z</time>
      </trkpt>
      <trkpt lat="47.542814" lon="7.872280">
        <ele>345.819210</ele>
        <time>2021-11-20T07:08:53.229Z</time>
      </trkpt>
      <trkpt lat="47.542919" lon="7.872226">
        <ele>346.359991</ele>
        <time>2021-11-20T07:08:57.077Z</time>
      </trkpt>
      <trkpt lat="47.543013" lon="7.872182">
        <ele>346.839630</ele>
        <time>2021-11-20T07:09:00.583Z</time>
      </trkpt>
      <trkpt lat="47.543079" lon="7.872152">
        <ele>347.175525</ele>
        <time>2021-11-20T07:09:03.133Z</time>
      </trkpt>
      <trkpt lat="47.543233" lon="7.872082">
        <ele>347.959280</ele>
        <time>2021-11-20T07:09:07.822Z</time>
      </trkpt>
      <trkpt lat="47.543251" lon="7.872152">
        <ele>348.205299</ele>
        <time>2021-11-20T07:09:11.196Z</time>
      </trkpt>
      <trkpt lat="47.543332" lon="7.872237">
        <ele>348.688258</ele>
        <time>2021-11-20T07:09:14.495Z</time>
      </trkpt>
      <trkpt lat="47.544390" lon="7.872423">
        <ele>354.935502</ele>
        <time>2021-11-20T07:09:56.219Z</time>
      </trkpt>
      <trkpt lat="47.544883" lon="7.872555">
        <ele>358.338130</ele>
        <time>2021-11-20T07:10:18.628Z</time>
      </trkpt>
      <trkpt lat="47.545131" lon="7.872664">
        <ele>360.095072</ele>
        <time>2021-11-20T07:10:29.633Z</time>
      </trkpt>
      <trkpt lat="47.545375" lon="7.872836">
        <ele>361.930323</ele>
        <time>2021-11-20T07:10:40.574Z</time>
      </trkpt>
      <trkpt lat="47.545478" lon="7.872968">
        <ele>362.855310</ele>
        <time>2021-11-20T07:10:47.382Z</time>
      </trkpt>
      <trkpt lat="47.545515" lon="7.873015">
        <ele>363.186338</ele>
        <time>2021-11-20T07:10:49.338Z</time>
      </trkpt>
      <trkpt lat="47.545746" lon="7.873302">
        <ele>365.005323</ele>
        <time>2021-11-20T07:11:02.538Z</time>
      </trkpt>
      <trkpt lat="47.545934" lon="7.873549">
        <ele>366.498972</ele>
        <time>2021-11-20T07:11:12.638Z</time>
      </trkpt>
      <trkpt lat="47.546077" lon="7.873763">
        <ele>367.707187</ele>
        <time>2021-11-20T07:11:21.834Z</time>
      </trkpt>
      <trkpt lat="47.546135" lon="7.873859">
        <ele>368.224126</ele>
        <time>2021-11-20T07:11:25.073Z</time>
      </trkpt>
      <trkpt lat="47.546309" lon="7.874154">
        <ele>369.795979</ele>
        <time>2021-11-20T07:11:36.188Z</time>
      </trkpt>
      <trkpt lat="47.547126" lon="7.875801">
        <ele>375.732329</ele>
        <time>2021-11-20T07:12:21.949Z</time>
      </trkpt>
      <trkpt lat="47.547574" lon="7.876801">
        <ele>377.754141</ele>
        <time>2021-11-20T07:12:40.945Z</time>
      </trkpt>
      <trkpt lat="47.547992" lon="7.877974">
        <ele>377.301206</ele>
        <time>2021-11-20T07:12:53.745Z</time>
      </trkpt>
      <trkpt lat="47.548234" lon="7.878638">
        <ele>376.143012</ele>
        <time>2021-11-20T07:12:59.058Z</time>
      </trkpt>
      <trkpt lat="47.548422" lon="7.878959">
        <ele>375.490725</ele>
        <time>2021-11-20T07:13:01.900Z</time>
      </trkpt>
      <trkpt lat="47.548718" lon="7.879258">
        <ele>374.676094</ele>
        <time>2021-11-20T07:13:05.439Z</time>
      </trkpt>
      <trkpt lat="47.549140" lon="7.879391">
        <ele>373.006449</ele>
        <time>2021-11-20T07:13:09.626Z</time>
      </trkpt>
      <trkpt lat="47.549318" lon="7.879398">
        <ele>372.251920</ele>
        <time>2021-11-20T07:13:11.253Z</time>
      </trkpt>
      <trkpt lat="47.549327" lon="7.879547">
        <ele>371.824065</ele>
        <time>2021-11-20T07:13:12.239Z</time>
      </trkpt>
      <trkpt lat="47.549726" lon="7.880786">
        <ele>367.897761</ele>
        <time>2021-11-20T07:13:21.173Z</time>
      </trkpt>
      <trkpt lat="47.549927" lon="7.881490">
        <ele>365.910800</ele>
        <time>2021-11-20T07:13:26.205Z</time>
      </trkpt>
      <trkpt lat="47.550234" lon="7.883221">
        <ele>361.671794</ele>
        <time>2021-11-20T07:13:38.606Z</time>
      </trkpt>
      <trkpt lat="47.550332" lon="7.884727">
        <ele>357.185413</ele>
        <time>2021-11-20T07:13:48.450Z</time>
      </trkpt>
      <trkpt lat="47.550391" lon="7.885109">
        <ele>355.918094</ele>
        <time>2021-11-20T07:13:50.983Z</time>
      </trkpt>
      <trkpt lat="47.550548" lon="7.885799">
        <ele>353.563253</ele>
        <time>2021-11-20T07:13:55.587Z</time>
      </trkpt>
      <trkpt lat="47.550677" lon="7.886476">
        <ele>351.130552</ele>
        <time>2021-11-20T07:14:00.018Z</time>
      </trkpt>
      <trkpt lat="47.550758" lon="7.887295">
        <ele>347.806753</ele>
        <time>2021-11-20T07:14:05.160Z</time>
      </trkpt>
      <trkpt lat="47.550789" lon="7.887816">
        <ele>345.706576</ele>
        <time>2021-11-20T07:14:08.391Z</time>
      </trkpt>
      <trkpt lat="47.550831" lon="7.888611">
        <ele>342.504509</ele>
        <time>2021-11-20T07:14:13.348Z</time>
      </trkpt>
      <trkpt lat="47.550833" lon="7.889069">
        <ele>340.657961</ele>
        <time>2021-11-20T07:14:16.157Z</time>
      </trkpt>
      <trkpt lat="47.550915" lon="7.890600">
        <ele>334.411285</ele>
        <time>2021-11-20T07:14:25.550Z</time>
      </trkpt>
      <trkpt lat="47.550904" lon="7.891725">
        <ele>330.119058</ele>
        <time>2021-11-20T07:14:32.554Z</time>
      </trkpt>
      <trkpt lat="47.550892" lon="7.893176">
        <ele>327.179010</ele>
        <time>2021-11-20T07:14:42.166Z</time>
      </trkpt>
      <trkpt lat="47.550908" lon="7.894308">
        <ele>324.951833</ele>
        <time>2021-11-20T07:14:51.372Z</time>
      </trkpt>
      <trkpt lat="47.550878" lon="7.895158">
        <ele>324.215368</ele>
        <time>2021-11-20T07:14:58.557Z</time>
      </trkpt>
      <trkpt lat="47.550838" lon="7.895509">
        <ele>323.907367</ele>
        <time>2021-11-20T07:15:01.720Z</time>
      </trkpt>
      <trkpt lat="47.550660" lon="7.896255">
        <ele>323.222743</ele>
        <time>2021-11-20T07:15:08.209Z</time>
      </trkpt>
      <trkpt lat="47.550639" lon="7.896345">
        <ele>323.140348</ele>
        <time>2021-11-20T07:15:09.396Z</time>
      </trkpt>
      <trkpt lat="47.550648" lon="7.896481">
        <ele>323.022110</ele>
        <time>2021-11-20T07:15:10.351Z</time>
      </trkpt>
      <trkpt lat="47.550819" lon="7.898109">
        <ele>319.753170</ele>
        <time>2021-11-20T07:15:22.099Z</time>
      </trkpt>
      <trkpt lat="47.550801" lon="7.900244">
        <ele>314.460497</ele>
        <time>2021-11-20T07:15:35.937Z</time>
      </trkpt>
      <trkpt lat="47.550769" lon="7.901362">
        <ele>311.344008</ele>
        <time>2021-11-20T07:15:43.208Z</time>
      </trkpt>
      <trkpt lat="47.550757" lon="7.901591">
        <ele>310.704311</ele>
        <time>2021-11-20T07:15:45.344Z</time>
      </trkpt>
      <trkpt lat="47.550688" lon="7.902451">
        <ele>308.370220</ele>
        <time>2021-11-20T07:15:53.779Z</time>
      </trkpt>
      <trkpt lat="47.550498" lon="7.903445">
        <ele>305.769987</ele>
        <time>2021-11-20T07:16:04.029Z</time>
      </trkpt>
      <trkpt lat="47.550302" lon="7.904164">
        <ele>303.818272</ele>
        <time>2021-11-20T07:16:11.288Z</time>
      </trkpt>
      <trkpt lat="47.550025" lon="7.904774">
        <ele>302.016181</ele>
        <time>2021-11-20T07:16:18.213Z</time>
      </trkpt>
      <trkpt lat="47.549868" lon="7.905010">
        <ele>301.276780</ele>
        <time>2021-11-20T07:16:21.345Z</time>
      </trkpt>
      <trkpt lat="47.549867" lon="7.905155">
        <ele>300.953214</ele>
        <time>2021-11-20T07:16:22.742Z</time>
      </trkpt>
      <trkpt lat="47.550067" lon="7.905245">
        <ele>300.262191</ele>
        <time>2021-11-20T07:16:25.667Z</time>
      </trkpt>
      <trkpt lat="47.550283" lon="7.905413">
        <ele>299.455683</ele>
        <time>2021-11-20T07:16:29.117Z</time>
      </trkpt>
      <trkpt lat="47.550497" lon="7.905558">
        <ele>298.677729</ele>
        <time>2021-11-20T07:16:32.475Z</time>
      </trkpt>
      <trkpt lat="47.549539" lon="7.908625">
        <ele>293.075360</ele>
        <time>2021-11-20T07:16:56.909Z</time>
      </trkpt>
      <trkpt lat="47.549520" lon="7.908678">
        <ele>292.990327</ele>
        <time>2021-11-20T07:16:57.416Z</time>
      </trkpt>
      <trkpt lat="47.549387" lon="7.909119">
        <ele>292.458192</ele>
        <time>2021-11-20T07:17:01.354Z</time>
      </trkpt>
      <trkpt lat="47.549314" lon="7.909361">
        <ele>292.238802</ele>
        <time>2021-11-20T07:17:03.512Z</time>
      </trkpt>
      <trkpt lat="47.549195" lon="7.909756">
        <ele>291.880783</ele>
        <time>2021-11-20T07:17:07.062Z</time>
      </trkpt>
      <trkpt lat="47.549102" lon="7.910058">
        <ele>291.606039</ele>
        <time>2021-11-20T07:17:09.752Z</time>
      </trkpt>
      <trkpt lat="47.549012" lon="7.910340">
        <ele>291.347857</ele>
        <time>2021-11-20T07:17:12.278Z</time>
      </trkpt>
      <trkpt lat="47.548412" lon="7.912168">
        <ele>289.850562</ele>
        <time>2021-11-20T07:17:28.615Z</time>
      </trkpt>
      <trkpt lat="47.548027" lon="7.913334">
        <ele>289.024474</ele>
        <time>2021-11-20T07:17:39.376Z</time>
      </trkpt>
      <trkpt lat="47.547994" lon="7.913433">
        <ele>288.954205</ele>
        <time>2021-11-20T07:17:40.297Z</time>
      </trkpt>
      <trkpt lat="47.547423" lon="7.915080">
        <ele>288.710878</ele>
        <time>2021-11-20T07:17:57.774Z</time>
      </trkpt>
      <trkpt lat="47.547113" lon="7.915971">
        <ele>288.672590</ele>
        <time>2021-11-20T07:18:08.221Z</time>
      </trkpt>
      <trkpt lat="47.547091" lon="7.916039">
        <ele>288.669710</ele>
        <time>2021-11-20T07:18:09.245Z</time>
      </trkpt>
      <trkpt lat="47.547032" lon="7.916218">
        <ele>288.729420</ele>
        <time>2021-11-20T07:18:11.448Z</time>
      </trkpt>
      <trkpt lat="47.546821" lon="7.916867">
        <ele>288.978550</ele>
        <time>2021-11-20T07:18:19.557Z</time>
      </trkpt>
      <trkpt lat="47.546262" lon="7.919081">
        <ele>289.759947</ele>
        <time>2021-11-20T07:18:47.069Z</time>
      </trkpt>
      <trkpt lat="47.546128" lon="7.919617">
        <ele>289.922920</ele>
        <time>2021-11-20T07:18:52.537Z</time>
      </trkpt>
      <trkpt lat="47.545973" lon="7.920313">
        <ele>290.131890</ele>
        <time>2021-11-20T07:19:01.000Z</time>
      </trkpt>
      <trkpt lat="47.545913" lon="7.920765">
        <ele>290.263235</ele>
        <time>2021-11-20T07:19:05.174Z</time>
      </trkpt>
      <trkpt lat="47.545881" lon="7.921096">
        <ele>290.388079</ele>
        <time>2021-11-20T07:19:09.190Z</time>
      </trkpt>
      <trkpt lat="47.545810" lon="7.921755">
        <ele>291.243021</ele>
        <time>2021-11-20T07:19:18.099Z</time>
      </trkpt>
      <trkpt lat="47.545778" lon="7.921947">
        <ele>291.496383</ele>
        <time>2021-11-20T07:19:21.708Z</time>
      </trkpt>
      <trkpt lat="47.545714" lon="7.922249">
        <ele>291.901900</ele>
        <time>2021-11-20T07:19:24.906Z</time>
      </trkpt>
      <trkpt lat="47.545699" lon="7.922325">
        <ele>292.003342</ele>
        <time>2021-11-20T07:19:26.104Z</time>
      </trkpt>
      <trkpt lat="47.545690" lon="7.922369">
        <ele>292.062243</ele>
        <time>2021-11-20T07:19:28.202Z</time>
      </trkpt>
      <trkpt lat="47.545641" lon="7.922610">
        <ele>292.384695</ele>
        <time>2021-11-20T07:19:30.556Z</time>
      </trkpt>
      <trkpt lat="47.545587" lon="7.922895">
        <ele>292.763927</ele>
        <time>2021-11-20T07:19:36.352Z</time>
      </trkpt>
      <trkpt lat="47.545553" lon="7.923142">
        <ele>293.086877</ele>
        <time>2021-11-20T07:19:38.999Z</time>
      </trkpt>
      <trkpt lat="47.545536" lon="7.923407">
        <ele>293.427904</ele>
        <time>2021-11-20T07:19:44.889Z</time>
      </trkpt>
      <trkpt lat="47.545521" lon="7.923709">
        <ele>293.866896</ele>
        <time>2021-11-20T07:19:49.042Z</time>
      </trkpt>
      <trkpt lat="47.545481" lon="7.924396">
        <ele>295.617749</ele>
        <time>2021-11-20T07:20:03.645Z</time>
      </trkpt>
      <trkpt lat="47.545466" lon="7.924880">
        <ele>296.847979</ele>
        <time>2021-11-20T07:20:14.952Z</time>
      </trkpt>
      <trkpt lat="47.545446" lon="7.925350">
        <ele>298.043736</ele>
        <time>2021-11-20T07:20:25.327Z</time>
      </trkpt>
      <trkpt lat="47.545417" lon="7.925848">
        <ele>299.312916</ele>
        <time>2021-11-20T07:20:35.806Z</time>
      </trkpt>
      <trkpt lat="47.545409" lon="7.926773">
        <ele>300.892183</ele>
        <time>2021-11-20T07:20:53.007Z</time>
      </trkpt>
      <trkpt lat="47.545407" lon="7.927001">
        <ele>301.077559</ele>
        <time>2021-11-20T07:20:56.816Z</time>
      </trkpt>
      <trkpt lat="47.545406" lon="7.927306">
        <ele>301.325524</ele>
        <time>2021-11-20T07:21:01.420Z</time>
      </trkpt>
      <trkpt lat="47.545421" lon="7.927686">
        <ele>301.634987</ele>
        <time>2021-11-20T07:21:06.956Z</time>
      </trkpt>
      <trkpt lat="47.545475" lon="7.928419">
        <ele>302.234445</ele>
        <time>2021-11-20T07:21:16.273Z</time>
      </trkpt>
      <trkpt lat="47.545563" lon="7.929641">
        <ele>301.854503</ele>
        <time>2021-11-20T07:21:26.153Z</time>
      </trkpt>
      <trkpt lat="47.545661" lon="7.930955">
        <ele>300.171948</ele>
        <time>2021-11-20T07:21:35.549Z</time>
      </trkpt>
      <trkpt lat="47.545696" lon="7.931497">
        <ele>299.478975</ele>
        <time>2021-11-20T07:21:39.517Z</time>
      </trkpt>
      <trkpt lat="47.545721" lon="7.931992">
        <ele>299.161785</ele>
        <time>2021-11-20T07:21:43.310Z</time>
      </trkpt>
      <trkpt lat="47.545724" lon="7.932758">
        <ele>298.857339</ele>
        <time>2021-11-20T07:21:49.519Z</time>
      </trkpt>
      <trkpt lat="47.545702" lon="7.933290">
        <ele>298.645502</ele>
        <time>2021-11-20T07:21:54.162Z</time>
      </trkpt>
      <trkpt lat="47.545674" lon="7.933625">
        <ele>298.511342</ele>
        <time>2021-11-20T07:21:57.363Z</time>
      </trkpt>
      <trkpt lat="47.545457" lon="7.935110">
        <ele>299.002741</ele>
        <time>2021-11-20T07:22:15.498Z</time>
      </trkpt>
      <trkpt lat="47.545074" lon="7.936484">
        <ele>300.325824</ele>
        <time>2021-11-20T07:22:37.025Z</time>
      </trkpt>
      <trkpt lat="47.544903" lon="7.936917">
        <ele>300.828154</ele>
        <time>2021-11-20T07:22:44.341Z</time>
      </trkpt>
      <trkpt lat="47.544705" lon="7.937395">
        <ele>301.506958</ele>
        <time>2021-11-20T07:22:52.525Z</time>
      </trkpt>
      <trkpt lat="47.544472" lon="7.937932">
        <ele>302.279623</ele>
        <time>2021-11-20T07:23:01.932Z</time>
      </trkpt>
      <trkpt lat="47.543826" lon="7.939433">
        <ele>304.345905</ele>
        <time>2021-11-20T07:23:28.814Z</time>
      </trkpt>
      <trkpt lat="47.543435" lon="7.940670">
        <ele>305.752397</ele>
        <time>2021-11-20T07:23:48.775Z</time>
      </trkpt>
      <trkpt lat="47.543161" lon="7.942213">
        <ele>306.554169</ele>
        <time>2021-11-20T07:24:09.624Z</time>
      </trkpt>
      <trkpt lat="47.543007" lon="7.943867">
        <ele>306.486382</ele>
        <time>2021-11-20T07:24:25.168Z</time>
      </trkpt>
      <trkpt lat="47.542913" lon="7.945267">
        <ele>304.613175</ele>
        <time>2021-11-20T07:24:35.928Z</time>
      </trkpt>
      <trkpt lat="47.542872" lon="7.945781">
        <ele>303.807507</ele>
        <time>2021-11-20T07:24:39.524Z</time>
      </trkpt>
      <trkpt lat="47.542875" lon="7.946089">
        <ele>303.328019</ele>
        <time>2021-11-20T07:24:41.615Z</time>
      </trkpt>
      <trkpt lat="47.542902" lon="7.946514">
        <ele>302.663533</ele>
        <time>2021-11-20T07:24:44.494Z</time>
      </trkpt>
      <trkpt lat="47.542943" lon="7.946806">
        <ele>302.226594</ele>
        <time>2021-11-20T07:24:46.541Z</time>
      </trkpt>
      <trkpt lat="47.542974" lon="7.946965">
        <ele>302.022701</ele>
        <time>2021-11-20T07:24:47.751Z</time>
      </trkpt>
      <trkpt lat="47.542979" lon="7.946989">
        <ele>301.991757</ele>
        <time>2021-11-20T07:24:47.907Z</time>
      </trkpt>
      <trkpt lat="47.543007" lon="7.947104">
        <ele>301.841145</ele>
        <time>2021-11-20T07:24:48.755Z</time>
      </trkpt>
      <trkpt lat="47.543087" lon="7.947317">
        <ele>301.540848</ele>
        <time>2021-11-20T07:24:50.498Z</time>
      </trkpt>
      <trkpt lat="47.543191" lon="7.947615">
        <ele>301.127555</ele>
        <time>2021-11-20T07:24:52.939Z</time>
      </trkpt>
      <trkpt lat="47.543242" lon="7.947745">
        <ele>300.942315</ele>
        <time>2021-11-20T07:24:54.069Z</time>
      </trkpt>
      <trkpt lat="47.543273" lon="7.947816">
        <ele>300.838141</ele>
        <time>2021-11-20T07:24:54.696Z</time>
      </trkpt>
      <trkpt lat="47.543358" lon="7.947967">
        <ele>300.595918</ele>
        <time>2021-11-20T07:24:56.139Z</time>
      </trkpt>
      <trkpt lat="47.543455" lon="7.948127">
        <ele>300.330975</ele>
        <time>2021-11-20T07:24:57.806Z</time>
      </trkpt>
      <trkpt lat="47.543532" lon="7.948214">
        <ele>300.154236</ele>
        <time>2021-11-20T07:24:58.887Z</time>
      </trkpt>
      <trkpt lat="47.543579" lon="7.948287">
        <ele>300.029954</ele>
        <time>2021-11-20T07:24:59.650Z</time>
      </trkpt>
      <trkpt lat="47.543760" lon="7.948548">
        <ele>299.568963</ele>
        <time>2021-11-20T07:25:02.539Z</time>
      </trkpt>
      <trkpt lat="47.543864" lon="7.948694">
        <ele>299.307470</ele>
        <time>2021-11-20T07:25:04.211Z</time>
      </trkpt>
      <trkpt lat="47.544239" lon="7.949202">
        <ele>299.191410</ele>
        <time>2021-11-20T07:25:11.573Z</time>
      </trkpt>
      <trkpt lat="47.544521" lon="7.949558">
        <ele>299.337034</ele>
        <time>2021-11-20T07:25:17.746Z</time>
      </trkpt>
      <trkpt lat="47.544901" lon="7.950044">
        <ele>299.534351</ele>
        <time>2021-11-20T07:25:27.143Z</time>
      </trkpt>
      <trkpt lat="47.545166" lon="7.950366">
        <ele>299.669062</ele>
        <time>2021-11-20T07:25:33.692Z</time>
      </trkpt>
      <trkpt lat="47.545434" lon="7.950668">
        <ele>299.743949</ele>
        <time>2021-11-20T07:25:39.482Z</time>
      </trkpt>
      <trkpt lat="47.545542" lon="7.950842">
        <ele>299.729690</ele>
        <time>2021-11-20T07:25:41.908Z</time>
      </trkpt>
      <trkpt lat="47.545667" lon="7.950979">
        <ele>299.715795</ele>
        <time>2021-11-20T07:25:44.513Z</time>
      </trkpt>
      <trkpt lat="47.545737" lon="7.951055">
        <ele>299.708040</ele>
        <time>2021-11-20T07:25:45.767Z</time>
      </trkpt>
      <trkpt lat="47.545876" lon="7.951233">
        <ele>299.691621</ele>
        <time>2021-11-20T07:25:48.160Z</time>
      </trkpt>
      <trkpt lat="47.546112" lon="7.951485">
        <ele>299.665624</ele>
        <time>2021-11-20T07:25:52.702Z</time>
      </trkpt>
      <trkpt lat="47.546164" lon="7.951520">
        <ele>299.660520</ele>
        <time>2021-11-20T07:25:53.337Z</time>
      </trkpt>
      <trkpt lat="47.546212" lon="7.951535">
        <ele>299.656136</ele>
        <time>2021-11-20T07:25:54.102Z</time>
      </trkpt>
      <trkpt lat="47.546231" lon="7.951558">
        <ele>299.653944</ele>
        <time>2021-11-20T07:25:54.831Z</time>
      </trkpt>
      <trkpt lat="47.546421" lon="7.951793">
        <ele>299.631825</ele>
        <time>2021-11-20T07:25:58.012Z</time>
      </trkpt>
      <trkpt lat="47.546634" lon="7.952024">
        <ele>299.608236</ele>
        <time>2021-11-20T07:26:01.547Z</time>
      </trkpt>
      <trkpt lat="47.546695" lon="7.952091">
        <ele>299.601450</ele>
        <time>2021-11-20T07:26:02.502Z</time>
      </trkpt>
      <trkpt lat="47.546776" lon="7.952185">
        <ele>299.585492</ele>
        <time>2021-11-20T07:26:03.688Z</time>
      </trkpt>
      <trkpt lat="47.546935" lon="7.952372">
        <ele>299.490891</ele>
        <time>2021-11-20T07:26:06.624Z</time>
      </trkpt>
      <trkpt lat="47.547090" lon="7.952543">
        <ele>299.400835</ele>
        <time>2021-11-20T07:26:09.261Z</time>
      </trkpt>
      <trkpt lat="47.547400" lon="7.952910">
        <ele>299.215921</ele>
        <time>2021-11-20T07:26:14.561Z</time>
      </trkpt>
      <trkpt lat="47.547458" lon="7.952975">
        <ele>299.182032</ele>
        <time>2021-11-20T07:26:15.479Z</time>
      </trkpt>
      <trkpt lat="47.547550" lon="7.953078">
        <ele>299.128297</ele>
        <time>2021-11-20T07:26:16.970Z</time>
      </trkpt>
      <trkpt lat="47.547624" lon="7.953160">
        <ele>299.085235</ele>
        <time>2021-11-20T07:26:18.209Z</time>
      </trkpt>
      <trkpt lat="47.547797" lon="7.953355">
        <ele>298.983939</ele>
        <time>2021-11-20T07:26:21.213Z</time>
      </trkpt>
      <trkpt lat="47.547871" lon="7.953437">
        <ele>298.940877</ele>
        <time>2021-11-20T07:26:22.507Z</time>
      </trkpt>
      <trkpt lat="47.547994" lon="7.953584">
        <ele>298.867236</ele>
        <time>2021-11-20T07:26:24.688Z</time>
      </trkpt>
      <trkpt lat="47.548115" lon="7.953729">
        <ele>298.794715</ele>
        <time>2021-11-20T07:26:26.838Z</time>
      </trkpt>
      <trkpt lat="47.548251" lon="7.953895">
        <ele>298.664418</ele>
        <time>2021-11-20T07:26:29.238Z</time>
      </trkpt>
      <trkpt lat="47.548335" lon="7.953779">
        <ele>298.551092</ele>
        <time>2021-11-20T07:26:31.144Z</time>
      </trkpt>
      <trkpt lat="47.549296" lon="7.953268">
        <ele>297.543455</ele>
        <time>2021-11-20T07:26:49.460Z</time>
      </trkpt>
      <trkpt lat="47.549442" lon="7.953195">
        <ele>297.391385</ele>
        <time>2021-11-20T07:26:52.011Z</time>
      </trkpt>
      <trkpt lat="47.549640" lon="7.953086">
        <ele>297.182927</ele>
        <time>2021-11-20T07:26:55.725Z</time>
      </trkpt>
      <trkpt lat="47.549673" lon="7.953076">
        <ele>297.149686</ele>
        <time>2021-11-20T07:26:56.283Z</time>
      </trkpt>
      <trkpt lat="47.549687" lon="7.953071">
        <ele>297.135473</ele>
        <time>2021-11-20T07:26:56.475Z</time>
      </trkpt>
      <trkpt lat="47.550567" lon="7.953069">
        <ele>295.460902</ele>
        <time>2021-11-20T07:27:10.651Z</time>
      </trkpt>
      <trkpt lat="47.550656" lon="7.953072">
        <ele>295.273806</ele>
        <time>2021-11-20T07:27:11.968Z</time>
      </trkpt>
      <trkpt lat="47.550967" lon="7.953063">
        <ele>294.620063</ele>
        <time>2021-11-20T07:27:16.732Z</time>
      </trkpt>
      <trkpt lat="47.551254" lon="7.952986">
        <ele>294.007075</ele>
        <time>2021-11-20T07:27:21.121Z</time>
      </trkpt>
      <trkpt lat="47.551295" lon="7.952900">
        <ele>293.857722</ele>
        <time>2021-11-20T07:27:22.184Z</time>
      </trkpt>
      <trkpt lat="47.551334" lon="7.952777">
        <ele>293.664955</ele>
        <time>2021-11-20T07:27:24.859Z</time>
      </trkpt>
      <trkpt lat="47.551339" lon="7.952761">
        <ele>293.639945</ele>
        <time>2021-11-20T07:27:25.230Z</time>
      </trkpt>
      <trkpt lat="47.551381" lon="7.952341">
        <ele>293.088511</ele>
        <time>2021-11-20T07:27:34.011Z</time>
      </trkpt>
      <trkpt lat="47.551506" lon="7.950255">
        <ele>291.045360</ele>
        <time>2021-11-20T07:28:19.548Z</time>
      </trkpt>
      <trkpt lat="47.551525" lon="7.950027">
        <ele>290.821229</ele>
        <time>2021-11-20T07:28:25.007Z</time>
      </trkpt>
      <trkpt lat="47.551581" lon="7.949830">
        <ele>290.612681</ele>
        <time>2021-11-20T07:28:30.144Z</time>
      </trkpt>
      <trkpt lat="47.551673" lon="7.949634">
        <ele>290.634444</ele>
        <time>2021-11-20T07:28:36.210Z</time>
      </trkpt>
      <trkpt lat="47.551794" lon="7.949387">
        <ele>290.680205</ele>
        <time>2021-11-20T07:28:43.789Z</time>
      </trkpt>
      <trkpt lat="47.552010" lon="7.949039">
        <ele>290.751092</ele>
        <time>2021-11-20T07:28:55.968Z</time>
      </trkpt>
      <trkpt lat="47.552049" lon="7.948982">
        <ele>290.763261</ele>
        <time>2021-11-20T07:28:58.145Z</time>
      </trkpt>
      <trkpt lat="47.552094" lon="7.948926">
        <ele>290.776316</ele>
        <time>2021-11-20T07:29:00.509Z</time>
      </trkpt>
      <trkpt lat="47.552202" lon="7.949003">
        <ele>290.802942</ele>
        <time>2021-11-20T07:29:05.184Z</time>
      </trkpt>
      <trkpt lat="47.552351" lon="7.949099">
        <ele>290.839036</ele>
        <time>2021-11-20T07:29:11.611Z</time>
      </trkpt>
      <trkpt lat="47.552382" lon="7.949119">
        <ele>290.846547</ele>
        <time>2021-11-20T07:29:13.058Z</time>
      </trkpt>
      <trkpt lat="47.552518" lon="7.949236">
        <ele>290.881483</ele>
        <time>2021-11-20T07:29:19.375Z</time>
      </trkpt>
      <trkpt lat="47.552835" lon="7.948900">
        <ele>290.968069</ele>
        <time>2021-11-20T07:29:35.024Z</time>
      </trkpt>
      <trkpt lat="47.552953" lon="7.948775">
        <ele>290.999757</ele>
        <time>2021-11-20T07:29:40.403Z</time>
      </trkpt>
      <trkpt lat="47.553197" lon="7.948543">
        <ele>290.896763</ele>
        <time>2021-11-20T07:29:51.122Z</time>
      </trkpt>
      <trkpt lat="47.553243" lon="7.948595">
        <ele>290.876209</ele>
        <time>2021-11-20T07:29:53.189Z</time>
      </trkpt>
      <trkpt lat="47.553488" lon="7.949175">
        <ele>290.712157</ele>
        <time>2021-11-20T07:30:09.400Z</time>
      </trkpt>
      <trkpt lat="47.553669" lon="7.949729">
        <ele>290.564585</ele>
        <time>2021-11-20T07:30:23.746Z</time>
      </trkpt>
      <trkpt lat="47.553699" lon="7.949840">
        <ele>290.535917</ele>
        <time>2021-11-20T07:30:26.383Z</time>
      </trkpt>
      <trkpt lat="47.553747" lon="7.950009">
        <ele>290.491956</ele>
        <time>2021-11-20T07:30:30.677Z</time>
      </trkpt>
      <trkpt lat="47.553836" lon="7.950173">
        <ele>290.441501</ele>
        <time>2021-11-20T07:30:35.968Z</time>
      </trkpt>
      <trkpt lat="47.553918" lon="7.950361">
        <ele>290.387833</ele>
        <time>2021-11-20T07:30:41.043Z</time>
      </trkpt>
      <trkpt lat="47.554036" lon="7.950322">
        <ele>290.373311</ele>
        <time>2021-11-20T07:30:45.534Z</time>
      </trkpt>
      <trkpt lat="47.554130" lon="7.950301">
        <ele>290.398675</ele>
        <time>2021-11-20T07:30:49.190Z</time>
      </trkpt>
      <trkpt lat="47.554192" lon="7.950296">
        <ele>290.415241</ele>
        <time>2021-11-20T07:30:51.383Z</time>
      </trkpt>
      <trkpt lat="47.554240" lon="7.950300">
        <ele>290.428068</ele>
        <time>2021-11-20T07:30:53.291Z</time>
      </trkpt>
      <trkpt lat="47.554303" lon="7.950312">
        <ele>290.445015</ele>
        <time>2021-11-20T07:30:54.117Z</time>
      </trkpt>
      <trkpt lat="47.554392" lon="7.950331">
        <ele>290.469006</ele>
        <time>2021-11-20T07:30:55.511Z</time>
      </trkpt>
      <trkpt lat="47.554652" lon="7.950448">
        <ele>290.541505</ele>
        <time>2021-11-20T07:30:59.501Z</time>
      </trkpt>
      <trkpt lat="47.554725" lon="7.950390">
        <ele>290.563605</ele>
        <time>2021-11-20T07:31:01.250Z</time>
      </trkpt>
      <trkpt lat="47.554907" lon="7.950212">
        <ele>290.621788</ele>
        <time>2021-11-20T07:31:05.927Z</time>
      </trkpt>
      <trkpt lat="47.555374" lon="7.949723">
        <ele>290.774359</ele>
        <time>2021-11-20T07:31:18.612Z</time>
      </trkpt>
      <trkpt lat="47.555446" lon="7.949664">
        <ele>290.796311</ele>
        <time>2021-11-20T07:31:20.340Z</time>
      </trkpt>
      <trkpt lat="47.555472" lon="7.949652">
        <ele>290.803576</ele>
        <time>2021-11-20T07:31:21.329Z</time>
      </trkpt>
      <trkpt lat="47.555429" lon="7.949557">
        <ele>290.824173</ele>
        <time>2021-11-20T07:31:22.642Z</time>
      </trkpt>
      <trkpt lat="47.555388" lon="7.949465">
        <ele>290.845932</ele>
        <time>2021-11-20T07:31:23.937Z</time>
      </trkpt>
      <trkpt lat="47.555335" lon="7.949348">
        <ele>290.887348</ele>
        <time>2021-11-20T07:31:25.583Z</time>
      </trkpt>
      <trkpt lat="47.555270" lon="7.949203">
        <ele>290.938509</ele>
        <time>2021-11-20T07:31:27.900Z</time>
      </trkpt>
      <trkpt lat="47.554929" lon="7.948424">
        <ele>291.211411</ele>
        <time>2021-11-20T07:31:39.032Z</time>
      </trkpt>
      <trkpt lat="47.554900" lon="7.948352">
        <ele>291.236055</ele>
        <time>2021-11-20T07:31:39.870Z</time>
      </trkpt>
      <trkpt lat="47.554846" lon="7.948223">
        <ele>291.280671</ele>
        <time>2021-11-20T07:31:41.954Z</time>
      </trkpt>
      <trkpt lat="47.554749" lon="7.947993">
        <ele>291.360385</ele>
        <time>2021-11-20T07:31:44.744Z</time>
      </trkpt>
      <trkpt lat="47.554731" lon="7.947945">
        <ele>291.376524</ele>
        <time>2021-11-20T07:31:45.235Z</time>
      </trkpt>
      <trkpt lat="47.554614" lon="7.947707">
        <ele>291.463066</ele>
        <time>2021-11-20T07:31:48.577Z</time>
      </trkpt>
      <trkpt lat="47.554563" lon="7.947632">
        <ele>291.494359</ele>
        <time>2021-11-20T07:31:49.592Z</time>
      </trkpt>
      <trkpt lat="47.554517" lon="7.947576">
        <ele>291.520286</ele>
        <time>2021-11-20T07:31:50.426Z</time>
      </trkpt>
      <trkpt lat="47.554475" lon="7.947529">
        <ele>291.543208</ele>
        <time>2021-11-20T07:31:51.125Z</time>
      </trkpt>
      <trkpt lat="47.554446" lon="7.947485">
        <ele>291.561284</ele>
        <time>2021-11-20T07:31:51.701Z</time>
      </trkpt>
      <trkpt lat="47.554411" lon="7.947434">
        <ele>291.582662</ele>
        <time>2021-11-20T07:31:52.400Z</time>
      </trkpt>
      <trkpt lat="47.554372" lon="7.947483">
        <ele>291.604930</ele>
        <time>2021-11-20T07:31:54.293Z</time>
      </trkpt>
      <trkpt lat="47.554282" lon="7.947594">
        <ele>291.645365</ele>
        <time>2021-11-20T07:31:58.659Z</time>
      </trkpt>
      <trkpt lat="47.554138" lon="7.947710">
        <ele>291.692893</ele>
        <time>2021-11-20T07:32:04.624Z</time>
      </trkpt>
      <trkpt lat="47.553758" lon="7.948048">
        <ele>291.821412</ele>
        <time>2021-11-20T07:32:21.071Z</time>
      </trkpt>
      <trkpt lat="47.553637" lon="7.948167">
        <ele>291.863524</ele>
        <time>2021-11-20T07:32:26.568Z</time>
      </trkpt>
      <trkpt lat="47.553758" lon="7.948048">
        <ele>291.905636</ele>
        <time>2021-11-20T07:32:31.978Z</time>
      </trkpt>
      <trkpt lat="47.554138" lon="7.947710">
        <ele>292.034156</ele>
        <time>2021-11-20T07:32:48.811Z</time>
      </trkpt>
      <trkpt lat="47.554282" lon="7.947594">
        <ele>292.081684</ele>
        <time>2021-11-20T07:32:55.275Z</time>
      </trkpt>
      <trkpt lat="47.554372" lon="7.947483">
        <ele>292.115639</ele>
        <time>2021-11-20T07:32:59.803Z</time>
      </trkpt>
      <trkpt lat="47.554411" lon="7.947434">
        <ele>292.130466</ele>
        <time>2021-11-20T07:33:01.812Z</time>
      </trkpt>
      <trkpt lat="47.554446" lon="7.947485">
        <ele>292.144700</ele>
        <time>2021-11-20T07:33:02.679Z</time>
      </trkpt>
      <trkpt lat="47.554475" lon="7.947529">
        <ele>292.208259</ele>
        <time>2021-11-20T07:33:03.432Z</time>
      </trkpt>
      <trkpt lat="47.554517" lon="7.947576">
        <ele>292.295936</ele>
        <time>2021-11-20T07:33:04.365Z</time>
      </trkpt>
      <trkpt lat="47.554563" lon="7.947632">
        <ele>292.395112</ele>
        <time>2021-11-20T07:33:05.518Z</time>
      </trkpt>
      <trkpt lat="47.554614" lon="7.947707">
        <ele>292.514810</ele>
        <time>2021-11-20T07:33:06.805Z</time>
      </trkpt>
      <trkpt lat="47.554731" lon="7.947945">
        <ele>292.845845</ele>
        <time>2021-11-20T07:33:10.473Z</time>
      </trkpt>
      <trkpt lat="47.554749" lon="7.947993">
        <ele>292.907580</ele>
        <time>2021-11-20T07:33:11.245Z</time>
      </trkpt>
      <trkpt lat="47.554810" lon="7.947963">
        <ele>293.014648</ele>
        <time>2021-11-20T07:33:12.702Z</time>
      </trkpt>
      <trkpt lat="47.554903" lon="7.947916">
        <ele>293.178336</ele>
        <time>2021-11-20T07:33:15.030Z</time>
      </trkpt>
      <trkpt lat="47.555286" lon="7.947750">
        <ele>293.843092</ele>
        <time>2021-11-20T07:33:23.964Z</time>
      </trkpt>
      <trkpt lat="47.555306" lon="7.947738">
        <ele>293.879036</ele>
        <time>2021-11-20T07:33:24.390Z</time>
      </trkpt>
      <trkpt lat="47.555379" lon="7.947702">
        <ele>294.007202</ele>
        <time>2021-11-20T07:33:25.929Z</time>
      </trkpt>
      <trkpt lat="47.555417" lon="7.947683">
        <ele>294.074011</ele>
        <time>2021-11-20T07:33:26.763Z</time>
      </trkpt>
      <trkpt lat="47.555582" lon="7.947589">
        <ele>294.368492</ele>
        <time>2021-11-20T07:33:31.158Z</time>
      </trkpt>
      <trkpt lat="47.555636" lon="7.947544">
        <ele>294.471698</ele>
        <time>2021-11-20T07:33:32.686Z</time>
      </trkpt>
      <trkpt lat="47.555751" lon="7.947427">
        <ele>294.704081</ele>
        <time>2021-11-20T07:33:35.684Z</time>
      </trkpt>
      <trkpt lat="47.555846" lon="7.947320">
        <ele>294.902866</ele>
        <time>2021-11-20T07:33:38.684Z</time>
      </trkpt>
      <trkpt lat="47.555912" lon="7.947254">
        <ele>295.035507</ele>
        <time>2021-11-20T07:33:40.815Z</time>
      </trkpt>
      <trkpt lat="47.556009" lon="7.947161">
        <ele>295.263681</ele>
        <time>2021-11-20T07:33:43.179Z</time>
      </trkpt>
      <trkpt lat="47.556050" lon="7.947125">
        <ele>295.376107</ele>
        <time>2021-11-20T07:33:44.224Z</time>
      </trkpt>
      <trkpt lat="47.556137" lon="7.947048">
        <ele>295.615165</ele>
        <time>2021-11-20T07:33:46.719Z</time>
      </trkpt>
      <trkpt lat="47.556160" lon="7.947027">
        <ele>295.678896</ele>
        <time>2021-11-20T07:33:47.548Z</time>
      </trkpt>
      <trkpt lat="47.556213" lon="7.946985">
        <ele>295.820681</ele>
        <time>2021-11-20T07:33:49.171Z</time>
      </trkpt>
      <trkpt lat="47.556716" lon="7.946585">
        <ele>297.167351</ele>
        <time>2021-11-20T07:34:02.362Z</time>
      </trkpt>
      <trkpt lat="47.556890" lon="7.946422">
        <ele>297.652969</ele>
        <time>2021-11-20T07:34:07.763Z</time>
      </trkpt>
      <trkpt lat="47.557026" lon="7.946287">
        <ele>298.039131</ele>
        <time>2021-11-20T07:34:11.395Z</time>
      </trkpt>
      <trkpt lat="47.557115" lon="7.946255">
        <ele>298.255176</ele>
        <time>2021-11-20T07:34:13.883Z</time>
      </trkpt>
      <trkpt lat="47.557303" lon="7.946078">
        <ele>298.780620</ele>
        <time>2021-11-20T07:34:19.112Z</time>
      </trkpt>
      <trkpt lat="47.557371" lon="7.946013">
        <ele>298.971514</ele>
        <time>2021-11-20T07:34:21.047Z</time>
      </trkpt>
      <trkpt lat="47.557460" lon="7.945924">
        <ele>299.224804</ele>
        <time>2021-11-20T07:34:24.140Z</time>
      </trkpt>
      <trkpt lat="47.557555" lon="7.945842">
        <ele>299.562727</ele>
        <time>2021-11-20T07:34:26.629Z</time>
      </trkpt>
      <trkpt lat="47.557631" lon="7.945782">
        <ele>299.927144</ele>
        <time>2021-11-20T07:34:28.563Z</time>
      </trkpt>
      <trkpt lat="47.557744" lon="7.945674">
        <ele>300.496179</ele>
        <time>2021-11-20T07:34:31.882Z</time>
      </trkpt>
      <trkpt lat="47.557910" lon="7.945625">
        <ele>301.212464</ele>
        <time>2021-11-20T07:34:36.175Z</time>
      </trkpt>
      <trkpt lat="47.558009" lon="7.945617">
        <ele>301.632037</ele>
        <time>2021-11-20T07:34:38.829Z</time>
      </trkpt>
      <trkpt lat="47.558102" lon="7.945615">
        <ele>302.025638</ele>
        <time>2021-11-20T07:34:41.414Z</time>
      </trkpt>
      <trkpt lat="47.558161" lon="7.945614">
        <ele>302.275332</ele>
        <time>2021-11-20T07:34:43.206Z</time>
      </trkpt>
      <trkpt lat="47.558415" lon="7.945666">
        <ele>303.360425</ele>
        <time>2021-11-20T07:34:51.021Z</time>
      </trkpt>
      <trkpt lat="47.558540" lon="7.945722">
        <ele>303.913049</ele>
        <time>2021-11-20T07:34:54.709Z</time>
      </trkpt>
      <trkpt lat="47.558608" lon="7.945765">
        <ele>304.225919</ele>
        <time>2021-11-20T07:34:57.626Z</time>
      </trkpt>
      <trkpt lat="47.558700" lon="7.945825">
        <ele>304.651285</ele>
        <time>2021-11-20T07:35:00.875Z</time>
      </trkpt>
      <trkpt lat="47.558739" lon="7.945644">
        <ele>305.193890</ele>
        <time>2021-11-20T07:35:05.106Z</time>
      </trkpt>
      <trkpt lat="47.558781" lon="7.945419">
        <ele>305.860569</ele>
        <time>2021-11-20T07:35:11.008Z</time>
      </trkpt>
      <trkpt lat="47.558967" lon="7.945068">
        <ele>307.257558</ele>
        <time>2021-11-20T07:35:22.244Z</time>
      </trkpt>
      <trkpt lat="47.559249" lon="7.944727">
        <ele>310.162006</ele>
        <time>2021-11-20T07:35:37.640Z</time>
      </trkpt>
      <trkpt lat="47.559263" lon="7.944710">
        <ele>310.306440</ele>
        <time>2021-11-20T07:35:39.214Z</time>
      </trkpt>
      <trkpt lat="47.559609" lon="7.944534">
        <ele>313.225588</ele>
        <time>2021-11-20T07:35:57.009Z</time>
      </trkpt>
      <trkpt lat="47.559774" lon="7.944500">
        <ele>314.554924</ele>
        <time>2021-11-20T07:36:04.481Z</time>
      </trkpt>
      <trkpt lat="47.559855" lon="7.944533">
        <ele>315.225271</ele>
        <time>2021-11-20T07:36:08.969Z</time>
      </trkpt>
      <trkpt lat="47.560106" lon="7.944624">
        <ele>317.287274</ele>
        <time>2021-11-20T07:36:21.698Z</time>
      </trkpt>
      <trkpt lat="47.560144" lon="7.944665">
        <ele>317.662366</ele>
        <time>2021-11-20T07:36:24.694Z</time>
      </trkpt>
      <trkpt lat="47.560288" lon="7.944850">
        <ele>319.183167</ele>
        <time>2021-11-20T07:36:34.756Z</time>
      </trkpt>
      <trkpt lat="47.560464" lon="7.945085">
        <ele>321.073621</ele>
        <time>2021-11-20T07:36:46.549Z</time>
      </trkpt>
      <trkpt lat="47.560632" lon="7.945223">
        <ele>322.443257</ele>
        <time>2021-11-20T07:36:55.297Z</time>
      </trkpt>
      <trkpt lat="47.560748" lon="7.945268">
        <ele>323.275896</ele>
        <time>2021-11-20T07:37:01.300Z</time>
      </trkpt>
      <trkpt lat="47.560884" lon="7.945275">
        <ele>324.220842</ele>
        <time>2021-11-20T07:37:07.340Z</time>
      </trkpt>
      <trkpt lat="47.561051" lon="7.945242">
        <ele>325.390744</ele>
        <time>2021-11-20T07:37:14.637Z</time>
      </trkpt>
      <trkpt lat="47.561253" lon="7.945105">
        <ele>326.933341</ele>
        <time>2021-11-20T07:37:24.671Z</time>
      </trkpt>
      <trkpt lat="47.561549" lon="7.944844">
        <ele>329.325075</ele>
        <time>2021-11-20T07:37:38.777Z</time>
      </trkpt>
      <trkpt lat="47.561590" lon="7.944808">
        <ele>329.655999</ele>
        <time>2021-11-20T07:37:40.249Z</time>
      </trkpt>
      <trkpt lat="47.561884" lon="7.944575">
        <ele>331.971118</ele>
        <time>2021-11-20T07:37:54.499Z</time>
      </trkpt>
      <trkpt lat="47.562104" lon="7.944442">
        <ele>333.621011</ele>
        <time>2021-11-20T07:38:03.534Z</time>
      </trkpt>
      <trkpt lat="47.562431" lon="7.944285">
        <ele>334.844528</ele>
        <time>2021-11-20T07:38:16.844Z</time>
      </trkpt>
      <trkpt lat="47.562993" lon="7.944148">
        <ele>336.677883</ele>
        <time>2021-11-20T07:38:34.068Z</time>
      </trkpt>
      <trkpt lat="47.563121" lon="7.944175">
        <ele>337.094060</ele>
        <time>2021-11-20T07:38:36.673Z</time>
      </trkpt>
      <trkpt lat="47.563250" lon="7.944210">
        <ele>337.516205</ele>
        <time>2021-11-20T07:38:40.669Z</time>
      </trkpt>
      <trkpt lat="47.563376" lon="7.944323">
        <ele>337.990275</ele>
        <time>2021-11-20T07:38:42.644Z</time>
      </trkpt>
      <trkpt lat="47.563617" lon="7.944825">
        <ele>339.328453</ele>
        <time>2021-11-20T07:38:50.444Z</time>
      </trkpt>
      <trkpt lat="47.563643" lon="7.944887">
        <ele>339.487007</ele>
        <time>2021-11-20T07:38:53.098Z</time>
      </trkpt>
      <trkpt lat="47.563685" lon="7.944852">
        <ele>339.639582</ele>
        <time>2021-11-20T07:38:54.007Z</time>
      </trkpt>
      <trkpt lat="47.563821" lon="7.944614">
        <ele>340.186800</ele>
        <time>2021-11-20T07:38:57.241Z</time>
      </trkpt>
      <trkpt lat="47.563817" lon="7.944579">
        <ele>340.249086</ele>
        <time>2021-11-20T07:38:57.493Z</time>
      </trkpt>
      <trkpt lat="47.563801" lon="7.944401">
        <ele>340.564164</ele>
        <time>2021-11-20T07:39:01.525Z</time>
      </trkpt>
      <trkpt lat="47.563689" lon="7.944279">
        <ele>340.925605</ele>
        <time>2021-11-20T07:39:05.399Z</time>
      </trkpt>
      <trkpt lat="47.563649" lon="7.944253">
        <ele>341.039182</ele>
        <time>2021-11-20T07:39:05.908Z</time>
      </trkpt>
      <trkpt lat="47.563594" lon="7.944220">
        <ele>341.193475</ele>
        <time>2021-11-20T07:39:06.587Z</time>
      </trkpt>
      <trkpt lat="47.563429" lon="7.944021">
        <ele>341.746650</ele>
        <time>2021-11-20T07:39:12.895Z</time>
      </trkpt>
      <trkpt lat="47.563413" lon="7.943822">
        <ele>342.098288</ele>
        <time>2021-11-20T07:39:15.199Z</time>
      </trkpt>
      <trkpt lat="47.563464" lon="7.943662">
        <ele>342.408773</ele>
        <time>2021-11-20T07:39:18.563Z</time>
      </trkpt>
      <trkpt lat="47.563511" lon="7.943574">
        <ele>342.605693</ele>
        <time>2021-11-20T07:39:19.404Z</time>
      </trkpt>
      <trkpt lat="47.563601" lon="7.943496">
        <ele>342.876801</ele>
        <time>2021-11-20T07:39:22.150Z</time>
      </trkpt>
      <trkpt lat="47.563719" lon="7.943365">
        <ele>343.260181</ele>
        <time>2021-11-20T07:39:25.929Z</time>
      </trkpt>
      <trkpt lat="47.563845" lon="7.943225">
        <ele>343.669678</ele>
        <time>2021-11-20T07:39:29.671Z</time>
      </trkpt>
      <trkpt lat="47.564097" lon="7.942881">
        <ele>344.996217</ele>
        <time>2021-11-20T07:39:40.088Z</time>
      </trkpt>
      <trkpt lat="47.564121" lon="7.942841">
        <ele>345.250829</ele>
        <time>2021-11-20T07:39:42.175Z</time>
      </trkpt>
      <trkpt lat="47.564135" lon="7.942819">
        <ele>345.394674</ele>
        <time>2021-11-20T07:39:42.540Z</time>
      </trkpt>
      <trkpt lat="47.564264" lon="7.942637">
        <ele>346.650247</ele>
        <time>2021-11-20T07:39:49.159Z</time>
      </trkpt>
      <trkpt lat="47.564507" lon="7.942214">
        <ele>349.292780</ele>
        <time>2021-11-20T07:40:04.931Z</time>
      </trkpt>
      <trkpt lat="47.564693" lon="7.942033">
        <ele>350.861384</ele>
        <time>2021-11-20T07:40:14.157Z</time>
      </trkpt>
      <trkpt lat="47.564814" lon="7.941979">
        <ele>351.752208</ele>
        <time>2021-11-20T07:40:21.095Z</time>
      </trkpt>
      <trkpt lat="47.564898" lon="7.941972">
        <ele>352.345300</ele>
        <time>2021-11-20T07:40:25.149Z</time>
      </trkpt>
      <trkpt lat="47.565002" lon="7.941980">
        <ele>353.079434</ele>
        <time>2021-11-20T07:40:30.426Z</time>
      </trkpt>
      <trkpt lat="47.565144" lon="7.942041">
        <ele>354.121666</ele>
        <time>2021-11-20T07:40:38.956Z</time>
      </trkpt>
      <trkpt lat="47.565593" lon="7.942200">
        <ele>357.293567</ele>
        <time>2021-11-20T07:41:00.913Z</time>
      </trkpt>
      <trkpt lat="47.566242" lon="7.941972">
        <ele>361.003048</ele>
        <time>2021-11-20T07:41:32.082Z</time>
      </trkpt>
      <trkpt lat="47.566527" lon="7.941959">
        <ele>362.588846</ele>
        <time>2021-11-20T07:41:44.313Z</time>
      </trkpt>
      <trkpt lat="47.567279" lon="7.942328">
        <ele>366.990919</ele>
        <time>2021-11-20T07:42:04.129Z</time>
      </trkpt>
      <trkpt lat="47.567412" lon="7.942343">
        <ele>367.273574</ele>
        <time>2021-11-20T07:42:08.479Z</time>
      </trkpt>
      <trkpt lat="47.567471" lon="7.942315">
        <ele>367.404854</ele>
        <time>2021-11-20T07:42:09.893Z</time>
      </trkpt>
      <trkpt lat="47.567523" lon="7.942285">
        <ele>367.523101</ele>
        <time>2021-11-20T07:42:10.975Z</time>
      </trkpt>
      <trkpt lat="47.567949" lon="7.942100">
        <ele>368.463791</ele>
        <time>2021-11-20T07:42:22.379Z</time>
      </trkpt>
      <trkpt lat="47.568118" lon="7.941960">
        <ele>368.874063</ele>
        <time>2021-11-20T07:42:27.010Z</time>
      </trkpt>
      <trkpt lat="47.568200" lon="7.941896">
        <ele>369.070450</ele>
        <time>2021-11-20T07:42:28.732Z</time>
      </trkpt>
      <trkpt lat="47.568271" lon="7.941748">
        <ele>369.330093</ele>
        <time>2021-11-20T07:42:31.586Z</time>
      </trkpt>
      <trkpt lat="47.568317" lon="7.941562">
        <ele>369.613334</ele>
        <time>2021-11-20T07:42:34.776Z</time>
      </trkpt>
      <trkpt lat="47.568379" lon="7.941267">
        <ele>370.055107</ele>
        <time>2021-11-20T07:42:38.666Z</time>
      </trkpt>
      <trkpt lat="47.568448" lon="7.941044">
        <ele>370.405876</ele>
        <time>2021-11-20T07:42:42.481Z</time>
      </trkpt>
      <trkpt lat="47.568494" lon="7.940909">
        <ele>370.622113</ele>
        <time>2021-11-20T07:42:44.269Z</time>
      </trkpt>
      <trkpt lat="47.568520" lon="7.940846">
        <ele>370.727703</ele>
        <time>2021-11-20T07:42:45.384Z</time>
      </trkpt>
      <trkpt lat="47.568598" lon="7.940707">
        <ele>371.194898</ele>
        <time>2021-11-20T07:42:47.526Z</time>
      </trkpt>
      <trkpt lat="47.569027" lon="7.940428">
        <ele>373.302046</ele>
        <time>2021-11-20T07:42:57.504Z</time>
      </trkpt>
      <trkpt lat="47.569418" lon="7.940363">
        <ele>375.071718</ele>
        <time>2021-11-20T07:43:08.555Z</time>
      </trkpt>
      <trkpt lat="47.570390" lon="7.940352">
        <ele>379.758821</ele>
        <time>2021-11-20T07:43:50.016Z</time>
      </trkpt>
      <trkpt lat="47.570745" lon="7.940187">
        <ele>382.384867</ele>
        <time>2021-11-20T07:44:06.494Z</time>
      </trkpt>
      <trkpt lat="47.570849" lon="7.940098">
        <ele>383.232510</ele>
        <time>2021-11-20T07:44:12.542Z</time>
      </trkpt>
      <trkpt lat="47.570920" lon="7.939991">
        <ele>383.947205</ele>
        <time>2021-11-20T07:44:18.443Z</time>
      </trkpt>
      <trkpt lat="47.570986" lon="7.939853">
        <ele>384.752748</ele>
        <time>2021-11-20T07:44:22.650Z</time>
      </trkpt>
      <trkpt lat="47.571121" lon="7.939531">
        <ele>386.558108</ele>
        <time>2021-11-20T07:44:33.572Z</time>
      </trkpt>
      <trkpt lat="47.571321" lon="7.939067">
        <ele>389.180182</ele>
        <time>2021-11-20T07:44:49.100Z</time>
      </trkpt>
      <trkpt lat="47.571471" lon="7.938793">
        <ele>390.860514</ele>
        <time>2021-11-20T07:44:58.209Z</time>
      </trkpt>
      <trkpt lat="47.571744" lon="7.938297">
        <ele>392.835191</ele>
        <time>2021-11-20T07:45:17.525Z</time>
      </trkpt>
      <trkpt lat="47.571792" lon="7.938168">
        <ele>393.212506</ele>
        <time>2021-11-20T07:45:22.125Z</time>
      </trkpt>
      <trkpt lat="47.571814" lon="7.938108">
        <ele>393.387408</ele>
        <time>2021-11-20T07:45:23.730Z</time>
      </trkpt>
      <trkpt lat="47.571837" lon="7.938094">
        <ele>393.481798</ele>
        <time>2021-11-20T07:45:23.973Z</time>
      </trkpt>
      <trkpt lat="47.571892" lon="7.938121">
        <ele>393.701746</ele>
        <time>2021-11-20T07:45:26.246Z</time>
      </trkpt>
      <trkpt lat="47.572087" lon="7.938259">
        <ele>394.522068</ele>
        <time>2021-11-20T07:45:34.027Z</time>
      </trkpt>
      <trkpt lat="47.572457" lon="7.938598">
        <ele>396.173372</ele>
        <time>2021-11-20T07:45:46.496Z</time>
      </trkpt>
      <trkpt lat="47.572709" lon="7.938608">
        <ele>397.130375</ele>
        <time>2021-11-20T07:45:51.369Z</time>
      </trkpt>
      <trkpt lat="47.572910" lon="7.938451">
        <ele>397.992890</ele>
        <time>2021-11-20T07:45:55.594Z</time>
      </trkpt>
      <trkpt lat="47.573038" lon="7.938150">
        <ele>398.777064</ele>
        <time>2021-11-20T07:45:59.651Z</time>
      </trkpt>
      <trkpt lat="47.573051" lon="7.938005">
        <ele>399.054570</ele>
        <time>2021-11-20T07:46:01.267Z</time>
      </trkpt>
      <trkpt lat="47.573078" lon="7.937709">
        <ele>399.621239</ele>
        <time>2021-11-20T07:46:04.413Z</time>
      </trkpt>
      <trkpt lat="47.573036" lon="7.937429">
        <ele>400.165415</ele>
        <time>2021-11-20T07:46:09.269Z</time>
      </trkpt>
      <trkpt lat="47.573024" lon="7.937357">
        <ele>400.306117</ele>
        <time>2021-11-20T07:46:10.180Z</time>
      </trkpt>
      <trkpt lat="47.573010" lon="7.937121">
        <ele>400.755575</ele>
        <time>2021-11-20T07:46:14.325Z</time>
      </trkpt>
      <trkpt lat="47.573010" lon="7.936978">
        <ele>401.026869</ele>
        <time>2021-11-20T07:46:16.660Z</time>
      </trkpt>
      <trkpt lat="47.573124" lon="7.936542">
        <ele>401.913980</ele>
        <time>2021-11-20T07:46:25.320Z</time>
      </trkpt>
      <trkpt lat="47.573179" lon="7.936342">
        <ele>402.323722</ele>
        <time>2021-11-20T07:46:29.793Z</time>
      </trkpt>
      <trkpt lat="47.573277" lon="7.936016">
        <ele>403.000814</ele>
        <time>2021-11-20T07:46:37.507Z</time>
      </trkpt>
      <trkpt lat="47.573388" lon="7.935781">
        <ele>403.664279</ele>
        <time>2021-11-20T07:46:43.419Z</time>
      </trkpt>
      <trkpt lat="47.573432" lon="7.935767">
        <ele>403.996853</ele>
        <time>2021-11-20T07:46:45.519Z</time>
      </trkpt>
      <trkpt lat="47.573597" lon="7.935752">
        <ele>405.218519</ele>
        <time>2021-11-20T07:46:51.348Z</time>
      </trkpt>
      <trkpt lat="47.573935" lon="7.935634">
        <ele>407.784735</ele>
        <time>2021-11-20T07:47:03.479Z</time>
      </trkpt>
      <trkpt lat="47.574115" lon="7.935550">
        <ele>409.179330</ele>
        <time>2021-11-20T07:47:11.065Z</time>
      </trkpt>
      <trkpt lat="47.574365" lon="7.935391">
        <ele>411.189751</ele>
        <time>2021-11-20T07:47:23.001Z</time>
      </trkpt>
      <trkpt lat="47.574919" lon="7.934783">
        <ele>416.283913</ele>
        <time>2021-11-20T07:47:59.337Z</time>
      </trkpt>
      <trkpt lat="47.575144" lon="7.934641">
        <ele>418.625887</ele>
        <time>2021-11-20T07:48:13.050Z</time>
      </trkpt>
      <trkpt lat="47.576460" lon="7.934694">
        <ele>432.275289</ele>
        <time>2021-11-20T07:49:28.548Z</time>
      </trkpt>
      <trkpt lat="47.577613" lon="7.934227">
        <ele>441.988048</ele>
        <time>2021-11-20T07:50:34.798Z</time>
      </trkpt>
      <trkpt lat="47.578335" lon="7.934175">
        <ele>447.312625</ele>
        <time>2021-11-20T07:51:02.692Z</time>
      </trkpt>
      <trkpt lat="47.578634" lon="7.934108">
        <ele>448.505786</ele>
        <time>2021-11-20T07:51:11.663Z</time>
      </trkpt>
      <trkpt lat="47.578958" lon="7.933883">
        <ele>448.038928</ele>
        <time>2021-11-20T07:51:19.147Z</time>
      </trkpt>
      <trkpt lat="47.579132" lon="7.933628">
        <ele>447.719667</ele>
        <time>2021-11-20T07:51:22.418Z</time>
      </trkpt>
      <trkpt lat="47.579242" lon="7.933285">
        <ele>447.385374</ele>
        <time>2021-11-20T07:51:25.476Z</time>
      </trkpt>
      <trkpt lat="47.579658" lon="7.932985">
        <ele>446.781738</ele>
        <time>2021-11-20T07:51:30.147Z</time>
      </trkpt>
      <trkpt lat="47.579800" lon="7.932767">
        <ele>446.514997</ele>
        <time>2021-11-20T07:51:32.046Z</time>
      </trkpt>
      <trkpt lat="47.579974" lon="7.931980">
        <ele>444.581098</ele>
        <time>2021-11-20T07:51:37.180Z</time>
      </trkpt>
      <trkpt lat="47.580010" lon="7.931498">
        <ele>443.181021</ele>
        <time>2021-11-20T07:51:40.361Z</time>
      </trkpt>
      <trkpt lat="47.580072" lon="7.931374">
        <ele>442.735402</ele>
        <time>2021-11-20T07:51:41.366Z</time>
      </trkpt>
      <trkpt lat="47.579993" lon="7.931259">
        <ele>442.261529</ele>
        <time>2021-11-20T07:51:42.391Z</time>
      </trkpt>
      <trkpt lat="47.579994" lon="7.931052">
        <ele>441.663888</ele>
        <time>2021-11-20T07:51:43.852Z</time>
      </trkpt>
      <trkpt lat="47.580006" lon="7.930973">
        <ele>441.430098</ele>
        <time>2021-11-20T07:51:44.322Z</time>
      </trkpt>
      <trkpt lat="47.580023" lon="7.930898">
        <ele>441.201670</ele>
        <time>2021-11-20T07:51:45.547Z</time>
      </trkpt>
      <trkpt lat="47.580257" lon="7.930531">
        <ele>439.743701</ele>
        <time>2021-11-20T07:51:48.881Z</time>
      </trkpt>
      <trkpt lat="47.580447" lon="7.930346">
        <ele>438.770795</ele>
        <time>2021-11-20T07:51:51.203Z</time>
      </trkpt>
      <trkpt lat="47.580995" lon="7.929985">
        <ele>436.081264</ele>
        <time>2021-11-20T07:51:57.189Z</time>
      </trkpt>
      <trkpt lat="47.581097" lon="7.929860">
        <ele>435.485983</ele>
        <time>2021-11-20T07:51:58.591Z</time>
      </trkpt>
      <trkpt lat="47.581284" lon="7.929390">
        <ele>433.830315</ele>
        <time>2021-11-20T07:52:02.571Z</time>
      </trkpt>
      <trkpt lat="47.581405" lon="7.929209">
        <ele>433.057110</ele>
        <time>2021-11-20T07:52:04.148Z</time>
      </trkpt>
      <trkpt lat="47.581847" lon="7.929069">
        <ele>431.024053</ele>
        <time>2021-11-20T07:52:08.291Z</time>
      </trkpt>
      <trkpt lat="47.582473" lon="7.929048">
        <ele>425.884580</ele>
        <time>2021-11-20T07:52:13.845Z</time>
      </trkpt>
      <trkpt lat="47.582622" lon="7.928957">
        <ele>424.433412</ele>
        <time>2021-11-20T07:52:15.267Z</time>
      </trkpt>
      <trkpt lat="47.582695" lon="7.928831">
        <ele>423.424496</ele>
        <time>2021-11-20T07:52:16.249Z</time>
      </trkpt>
      <trkpt lat="47.582659" lon="7.928638">
        <ele>422.208172</ele>
        <time>2021-11-20T07:52:17.394Z</time>
      </trkpt>
      <trkpt lat="47.582273" lon="7.928381">
        <ele>418.397720</ele>
        <time>2021-11-20T07:52:21.052Z</time>
      </trkpt>
      <trkpt lat="47.582118" lon="7.928218">
        <ele>416.686411</ele>
        <time>2021-11-20T07:52:22.690Z</time>
      </trkpt>
      <trkpt lat="47.581992" lon="7.927950">
        <ele>414.702089</ele>
        <time>2021-11-20T07:52:24.579Z</time>
      </trkpt>
      <trkpt lat="47.581995" lon="7.926846">
        <ele>409.069376</ele>
        <time>2021-11-20T07:52:30.971Z</time>
      </trkpt>
      <trkpt lat="47.581800" lon="7.926344">
        <ele>406.147013</ele>
        <time>2021-11-20T07:52:34.476Z</time>
      </trkpt>
      <trkpt lat="47.581805" lon="7.926181">
        <ele>405.323869</ele>
        <time>2021-11-20T07:52:35.480Z</time>
      </trkpt>
      <trkpt lat="47.581876" lon="7.926030">
        <ele>404.395305</ele>
        <time>2021-11-20T07:52:36.621Z</time>
      </trkpt>
      <trkpt lat="47.582115" lon="7.925927">
        <ele>402.533871</ele>
        <time>2021-11-20T07:52:38.952Z</time>
      </trkpt>
      <trkpt lat="47.582530" lon="7.925958">
        <ele>399.938354</ele>
        <time>2021-11-20T07:52:42.951Z</time>
      </trkpt>
      <trkpt lat="47.583414" lon="7.926287">
        <ele>395.528235</ele>
        <time>2021-11-20T07:52:51.933Z</time>
      </trkpt>
      <trkpt lat="47.583852" lon="7.926374">
        <ele>393.389954</ele>
        <time>2021-11-20T07:52:56.124Z</time>
      </trkpt>
      <trkpt lat="47.583992" lon="7.926334">
        <ele>392.700073</ele>
        <time>2021-11-20T07:52:57.444Z</time>
      </trkpt>
      <trkpt lat="47.584034" lon="7.926155">
        <ele>391.973930</ele>
        <time>2021-11-20T07:52:58.619Z</time>
      </trkpt>
      <trkpt lat="47.583971" lon="7.926018">
        <ele>390.802401</ele>
        <time>2021-11-20T07:52:59.637Z</time>
      </trkpt>
      <trkpt lat="47.583566" lon="7.925993">
        <ele>386.556331</ele>
        <time>2021-11-20T07:53:03.223Z</time>
      </trkpt>
      <trkpt lat="47.583411" lon="7.925756">
        <ele>384.223892</ele>
        <time>2021-11-20T07:53:05.150Z</time>
      </trkpt>
      <trkpt lat="47.583137" lon="7.924549">
        <ele>375.225680</ele>
        <time>2021-11-20T07:53:12.408Z</time>
      </trkpt>
      <trkpt lat="47.582665" lon="7.923021">
        <ele>361.368598</ele>
        <time>2021-11-20T07:53:21.864Z</time>
      </trkpt>
      <trkpt lat="47.582576" lon="7.922638">
        <ele>357.937887</ele>
        <time>2021-11-20T07:53:24.146Z</time>
      </trkpt>
      <trkpt lat="47.582488" lon="7.920818">
        <ele>346.246113</ele>
        <time>2021-11-20T07:53:34.748Z</time>
      </trkpt>
      <trkpt lat="47.582514" lon="7.920438">
        <ele>344.483409</ele>
        <time>2021-11-20T07:53:37.070Z</time>
      </trkpt>
      <trkpt lat="47.582597" lon="7.920223">
        <ele>343.340171</ele>
        <time>2021-11-20T07:53:38.598Z</time>
      </trkpt>
      <trkpt lat="47.582817" lon="7.920201">
        <ele>341.831545</ele>
        <time>2021-11-20T07:53:40.688Z</time>
      </trkpt>
      <trkpt lat="47.582910" lon="7.920248">
        <ele>341.159300</ele>
        <time>2021-11-20T07:53:41.630Z</time>
      </trkpt>
      <trkpt lat="47.583166" lon="7.920334">
        <ele>339.363385</ele>
        <time>2021-11-20T07:53:44.157Z</time>
      </trkpt>
      <trkpt lat="47.583279" lon="7.920234">
        <ele>338.462993</ele>
        <time>2021-11-20T07:53:45.438Z</time>
      </trkpt>
      <trkpt lat="47.583623" lon="7.919916">
        <ele>337.454776</ele>
        <time>2021-11-20T07:53:49.620Z</time>
      </trkpt>
      <trkpt lat="47.583975" lon="7.919617">
        <ele>336.457910</ele>
        <time>2021-11-20T07:53:54.168Z</time>
      </trkpt>
      <trkpt lat="47.584708" lon="7.919278">
        <ele>334.571139</ele>
        <time>2021-11-20T07:54:02.586Z</time>
      </trkpt>
      <trkpt lat="47.585010" lon="7.918940">
        <ele>333.764060</ele>
        <time>2021-11-20T07:54:06.551Z</time>
      </trkpt>
      <trkpt lat="47.585624" lon="7.918060">
        <ele>332.337791</ele>
        <time>2021-11-20T07:54:15.926Z</time>
      </trkpt>
      <trkpt lat="47.585929" lon="7.917570">
        <ele>331.586693</ele>
        <time>2021-11-20T07:54:21.133Z</time>
      </trkpt>
      <trkpt lat="47.586029" lon="7.917411">
        <ele>331.341799</ele>
        <time>2021-11-20T07:54:22.830Z</time>
      </trkpt>
      <trkpt lat="47.586246" lon="7.917094">
        <ele>330.986349</ele>
        <time>2021-11-20T07:54:26.605Z</time>
      </trkpt>
      <trkpt lat="47.586364" lon="7.917048">
        <ele>330.949234</ele>
        <time>2021-11-20T07:54:28.243Z</time>
      </trkpt>
      <trkpt lat="47.587522" lon="7.917098">
        <ele>330.596834</ele>
        <time>2021-11-20T07:54:44.075Z</time>
      </trkpt>
      <trkpt lat="47.587965" lon="7.917099">
        <ele>330.457611</ele>
        <time>2021-11-20T07:54:51.218Z</time>
      </trkpt>
      <trkpt lat="47.588625" lon="7.917131">
        <ele>330.177268</ele>
        <time>2021-11-20T07:55:01.934Z</time>
      </trkpt>
      <trkpt lat="47.588687" lon="7.917138">
        <ele>330.150871</ele>
        <time>2021-11-20T07:55:02.871Z</time>
      </trkpt>
      <trkpt lat="47.589219" lon="7.917013">
        <ele>329.922200</ele>
        <time>2021-11-20T07:55:11.227Z</time>
      </trkpt>
      <trkpt lat="47.589612" lon="7.916997">
        <ele>329.755294</ele>
        <time>2021-11-20T07:55:16.063Z</time>
      </trkpt>
      <trkpt lat="47.590043" lon="7.917014">
        <ele>328.201057</ele>
        <time>2021-11-20T07:55:20.663Z</time>
      </trkpt>
      <trkpt lat="47.590258" lon="7.917024">
        <ele>327.199224</ele>
        <time>2021-11-20T07:55:22.797Z</time>
      </trkpt>
      <trkpt lat="47.590496" lon="7.917018">
        <ele>326.090603</ele>
        <time>2021-11-20T07:55:25.074Z</time>
      </trkpt>
      <trkpt lat="47.590600" lon="7.916970">
        <ele>325.583310</ele>
        <time>2021-11-20T07:55:26.119Z</time>
      </trkpt>
      <trkpt lat="47.590677" lon="7.916856">
        <ele>325.076527</ele>
        <time>2021-11-20T07:55:27.149Z</time>
      </trkpt>
      <trkpt lat="47.590714" lon="7.916644">
        <ele>324.388687</ele>
        <time>2021-11-20T07:55:28.504Z</time>
      </trkpt>
      <trkpt lat="47.590824" lon="7.916070">
        <ele>322.514351</ele>
        <time>2021-11-20T07:55:32.199Z</time>
      </trkpt>
      <trkpt lat="47.590960" lon="7.915508">
        <ele>320.421695</ele>
        <time>2021-11-20T07:55:35.845Z</time>
      </trkpt>
      <trkpt lat="47.590991" lon="7.915424">
        <ele>320.026787</ele>
        <time>2021-11-20T07:55:36.434Z</time>
      </trkpt>
      <trkpt lat="47.591214" lon="7.914833">
        <ele>317.233845</ele>
        <time>2021-11-20T07:55:40.495Z</time>
      </trkpt>
      <trkpt lat="47.591443" lon="7.914358">
        <ele>314.825806</ele>
        <time>2021-11-20T07:55:44.020Z</time>
      </trkpt>
      <trkpt lat="47.591643" lon="7.914131">
        <ele>313.285593</ele>
        <time>2021-11-20T07:55:46.335Z</time>
      </trkpt>
      <trkpt lat="47.591782" lon="7.913893">
        <ele>311.987153</ele>
        <time>2021-11-20T07:55:48.302Z</time>
      </trkpt>
      <trkpt lat="47.591858" lon="7.913783">
        <ele>311.337693</ele>
        <time>2021-11-20T07:55:49.309Z</time>
      </trkpt>
      <trkpt lat="47.591809" lon="7.913704">
        <ele>310.895046</ele>
        <time>2021-11-20T07:55:49.975Z</time>
      </trkpt>
      <trkpt lat="47.591746" lon="7.913330">
        <ele>309.969925</ele>
        <time>2021-11-20T07:55:52.551Z</time>
      </trkpt>
      <trkpt lat="47.591721" lon="7.913096">
        <ele>309.624294</ele>
        <time>2021-11-20T07:55:54.100Z</time>
      </trkpt>
      <trkpt lat="47.591714" lon="7.913064">
        <ele>309.575217</ele>
        <time>2021-11-20T07:55:54.336Z</time>
      </trkpt>
      <trkpt lat="47.591605" lon="7.912829">
        <ele>309.159129</ele>
        <time>2021-11-20T07:55:56.417Z</time>
      </trkpt>
      <trkpt lat="47.591443" lon="7.912678">
        <ele>308.745208</ele>
        <time>2021-11-20T07:55:58.425Z</time>
      </trkpt>
      <trkpt lat="47.591348" lon="7.912662">
        <ele>308.538385</ele>
        <time>2021-11-20T07:55:59.550Z</time>
      </trkpt>
      <trkpt lat="47.591044" lon="7.912710">
        <ele>307.877064</ele>
        <time>2021-11-20T07:56:02.988Z</time>
      </trkpt>
      <trkpt lat="47.590570" lon="7.912784">
        <ele>306.846055</ele>
        <time>2021-11-20T07:56:08.735Z</time>
      </trkpt>
      <trkpt lat="47.590231" lon="7.912830">
        <ele>306.400270</ele>
        <time>2021-11-20T07:56:13.013Z</time>
      </trkpt>
      <trkpt lat="47.589873" lon="7.912855">
        <ele>306.300925</ele>
        <time>2021-11-20T07:56:17.987Z</time>
      </trkpt>
      <trkpt lat="47.589326" lon="7.912720">
        <ele>306.147216</ele>
        <time>2021-11-20T07:56:25.951Z</time>
      </trkpt>
      <trkpt lat="47.588907" lon="7.912607">
        <ele>306.029168</ele>
        <time>2021-11-20T07:56:32.247Z</time>
      </trkpt>
      <trkpt lat="47.587897" lon="7.912517">
        <ele>304.966546</ele>
        <time>2021-11-20T07:56:46.811Z</time>
      </trkpt>
      <trkpt lat="47.587725" lon="7.912508">
        <ele>304.728184</ele>
        <time>2021-11-20T07:56:48.796Z</time>
      </trkpt>
      <trkpt lat="47.586917" lon="7.912301">
        <ele>303.592548</ele>
        <time>2021-11-20T07:56:57.800Z</time>
      </trkpt>
      <trkpt lat="47.586622" lon="7.912140">
        <ele>302.579015</ele>
        <time>2021-11-20T07:57:01.121Z</time>
      </trkpt>
      <trkpt lat="47.586433" lon="7.912047">
        <ele>301.764817</ele>
        <time>2021-11-20T07:57:03.110Z</time>
      </trkpt>
      <trkpt lat="47.586263" lon="7.911881">
        <ele>300.932545</ele>
        <time>2021-11-20T07:57:05.072Z</time>
      </trkpt>
      <trkpt lat="47.586028" lon="7.911561">
        <ele>299.627964</ele>
        <time>2021-11-20T07:57:08.151Z</time>
      </trkpt>
      <trkpt lat="47.585610" lon="7.910640">
        <ele>296.566637</ele>
        <time>2021-11-20T07:57:15.210Z</time>
      </trkpt>
      <trkpt lat="47.585430" lon="7.910346">
        <ele>295.687185</ele>
        <time>2021-11-20T07:57:17.725Z</time>
      </trkpt>
      <trkpt lat="47.585271" lon="7.910136">
        <ele>295.115486</ele>
        <time>2021-11-20T07:57:19.795Z</time>
      </trkpt>
      <trkpt lat="47.585157" lon="7.909965">
        <ele>294.680097</ele>
        <time>2021-11-20T07:57:21.430Z</time>
      </trkpt>
      <trkpt lat="47.585093" lon="7.909869">
        <ele>294.435668</ele>
        <time>2021-11-20T07:57:22.402Z</time>
      </trkpt>
      <trkpt lat="47.585066" lon="7.909809">
        <ele>294.305054</ele>
        <time>2021-11-20T07:57:22.889Z</time>
      </trkpt>
      <trkpt lat="47.585051" lon="7.909751">
        <ele>294.192567</ele>
        <time>2021-11-20T07:57:23.308Z</time>
      </trkpt>
      <trkpt lat="47.585045" lon="7.909674">
        <ele>294.052203</ele>
        <time>2021-11-20T07:57:23.806Z</time>
      </trkpt>
      <trkpt lat="47.585078" lon="7.909509">
        <ele>293.740550</ele>
        <time>2021-11-20T07:57:25.017Z</time>
      </trkpt>
      <trkpt lat="47.585337" lon="7.909031">
        <ele>292.630246</ele>
        <time>2021-11-20T07:57:29.457Z</time>
      </trkpt>
      <trkpt lat="47.585419" lon="7.908887">
        <ele>292.288977</ele>
        <time>2021-11-20T07:57:31.534Z</time>
      </trkpt>
      <trkpt lat="47.585427" lon="7.908874">
        <ele>292.257110</ele>
        <time>2021-11-20T07:57:31.693Z</time>
      </trkpt>
      <trkpt lat="47.585474" lon="7.908835">
        <ele>292.112506</ele>
        <time>2021-11-20T07:57:32.487Z</time>
      </trkpt>
      <trkpt lat="47.585548" lon="7.908722">
        <ele>291.827299</ele>
        <time>2021-11-20T07:57:34.235Z</time>
      </trkpt>
      <trkpt lat="47.585609" lon="7.908612">
        <ele>291.569424</ele>
        <time>2021-11-20T07:57:36.002Z</time>
      </trkpt>
      <trkpt lat="47.585636" lon="7.908546">
        <ele>291.429643</ele>
        <time>2021-11-20T07:57:36.975Z</time>
      </trkpt>
      <trkpt lat="47.585666" lon="7.908542">
        <ele>291.348774</ele>
        <time>2021-11-20T07:57:37.375Z</time>
      </trkpt>
      <trkpt lat="47.585695" lon="7.908526">
        <ele>291.271292</ele>
        <time>2021-11-20T07:57:37.720Z</time>
      </trkpt>
      <trkpt lat="47.585727" lon="7.908489">
        <ele>291.291744</ele>
        <time>2021-11-20T07:57:38.174Z</time>
      </trkpt>
      <trkpt lat="47.585750" lon="7.908439">
        <ele>291.312317</ele>
        <time>2021-11-20T07:57:38.765Z</time>
      </trkpt>
      <trkpt lat="47.585760" lon="7.908367">
        <ele>291.337305</ele>
        <time>2021-11-20T07:57:39.460Z</time>
      </trkpt>
      <trkpt lat="47.585751" lon="7.908295">
        <ele>291.362196</ele>
        <time>2021-11-20T07:57:40.183Z</time>
      </trkpt>
      <trkpt lat="47.585761" lon="7.908160">
        <ele>291.408361</ele>
        <time>2021-11-20T07:57:41.975Z</time>
      </trkpt>
      <trkpt lat="47.585759" lon="7.908093">
        <ele>291.431159</ele>
        <time>2021-11-20T07:57:42.824Z</time>
      </trkpt>
      <trkpt lat="47.585745" lon="7.907994">
        <ele>291.465543</ele>
        <time>2021-11-20T07:57:44.002Z</time>
      </trkpt>
      <trkpt lat="47.585709" lon="7.907887">
        <ele>291.506189</ele>
        <time>2021-11-20T07:57:45.608Z</time>
      </trkpt>
      <trkpt lat="47.585496" lon="7.906982">
        <ele>291.832012</ele>
        <time>2021-11-20T07:57:57.007Z</time>
      </trkpt>
      <trkpt lat="47.585477" lon="7.906769">
        <ele>291.905046</ele>
        <time>2021-11-20T07:57:59.938Z</time>
      </trkpt>
      <trkpt lat="47.585522" lon="7.905992">
        <ele>292.170140</ele>
        <time>2021-11-20T07:58:10.719Z</time>
      </trkpt>
      <trkpt lat="47.585585" lon="7.905551">
        <ele>292.566144</ele>
        <time>2021-11-20T07:58:17.008Z</time>
      </trkpt>
      <trkpt lat="47.585693" lon="7.905272">
        <ele>292.856704</ele>
        <time>2021-11-20T07:58:21.590Z</time>
      </trkpt>
      <trkpt lat="47.585762" lon="7.905099">
        <ele>293.038242</ele>
        <time>2021-11-20T07:58:24.436Z</time>
      </trkpt>
      <trkpt lat="47.585958" lon="7.904606">
        <ele>293.555143</ele>
        <time>2021-11-20T07:58:32.403Z</time>
      </trkpt>
      <trkpt lat="47.586155" lon="7.904080">
        <ele>294.098581</ele>
        <time>2021-11-20T07:58:40.751Z</time>
      </trkpt>
      <trkpt lat="47.586240" lon="7.903854">
        <ele>294.332305</ele>
        <time>2021-11-20T07:58:43.915Z</time>
      </trkpt>
      <trkpt lat="47.586407" lon="7.903407">
        <ele>294.721281</ele>
        <time>2021-11-20T07:58:50.313Z</time>
      </trkpt>
      <trkpt lat="47.586847" lon="7.902221">
        <ele>295.517905</ele>
        <time>2021-11-20T07:59:07.351Z</time>
      </trkpt>
      <trkpt lat="47.587029" lon="7.901746">
        <ele>295.839416</ele>
        <time>2021-11-20T07:59:13.940Z</time>
      </trkpt>
      <trkpt lat="47.587506" lon="7.900489">
        <ele>296.669914</ele>
        <time>2021-11-20T07:59:30.996Z</time>
      </trkpt>
      <trkpt lat="47.587961" lon="7.899254">
        <ele>297.469635</ele>
        <time>2021-11-20T07:59:48.437Z</time>
      </trkpt>
      <trkpt lat="47.588436" lon="7.898021">
        <ele>298.401618</ele>
        <time>2021-11-20T08:00:06.506Z</time>
      </trkpt>
      <trkpt lat="47.588506" lon="7.897839">
        <ele>298.545246</ele>
        <time>2021-11-20T08:00:08.978Z</time>
      </trkpt>
      <trkpt lat="47.588808" lon="7.897009">
        <ele>299.191754</ele>
        <time>2021-11-20T08:00:21.262Z</time>
      </trkpt>
      <trkpt lat="47.589118" lon="7.896174">
        <ele>299.704111</ele>
        <time>2021-11-20T08:00:33.659Z</time>
      </trkpt>
      <trkpt lat="47.589590" lon="7.894990">
        <ele>300.263086</ele>
        <time>2021-11-20T08:00:50.081Z</time>
      </trkpt>
      <trkpt lat="47.589932" lon="7.894260">
        <ele>300.559282</ele>
        <time>2021-11-20T08:00:59.646Z</time>
      </trkpt>
      <trkpt lat="47.589960" lon="7.894201">
        <ele>300.542913</ele>
        <time>2021-11-20T08:01:00.338Z</time>
      </trkpt>
      <trkpt lat="47.590704" lon="7.892594">
        <ele>300.100658</ele>
        <time>2021-11-20T08:01:18.435Z</time>
      </trkpt>
      <trkpt lat="47.591003" lon="7.891941">
        <ele>299.789592</ele>
        <time>2021-11-20T08:01:25.108Z</time>
      </trkpt>
      <trkpt lat="47.591247" lon="7.891264">
        <ele>299.204271</ele>
        <time>2021-11-20T08:01:31.602Z</time>
      </trkpt>
      <trkpt lat="47.591381" lon="7.890797">
        <ele>298.817283</ele>
        <time>2021-11-20T08:01:35.632Z</time>
      </trkpt>
      <trkpt lat="47.591692" lon="7.889232">
        <ele>297.627986</ele>
        <time>2021-11-20T08:01:48.516Z</time>
      </trkpt>
      <trkpt lat="47.591728" lon="7.889070">
        <ele>297.517145</ele>
        <time>2021-11-20T08:01:49.821Z</time>
      </trkpt>
      <trkpt lat="47.591763" lon="7.888925">
        <ele>297.417066</ele>
        <time>2021-11-20T08:01:51.023Z</time>
      </trkpt>
      <trkpt lat="47.591866" lon="7.888529">
        <ele>297.141256</ele>
        <time>2021-11-20T08:01:54.404Z</time>
      </trkpt>
      <trkpt lat="47.592202" lon="7.887383">
        <ele>296.329218</ele>
        <time>2021-11-20T08:02:04.832Z</time>
      </trkpt>
      <trkpt lat="47.592409" lon="7.886663">
        <ele>296.398431</ele>
        <time>2021-11-20T08:02:12.167Z</time>
      </trkpt>
      <trkpt lat="47.592600" lon="7.886000">
        <ele>296.623784</ele>
        <time>2021-11-20T08:02:20.819Z</time>
      </trkpt>
      <trkpt lat="47.592651" lon="7.885826">
        <ele>296.683087</ele>
        <time>2021-11-20T08:02:23.207Z</time>
      </trkpt>
      <trkpt lat="47.592802" lon="7.885426">
        <ele>296.826372</ele>
        <time>2021-11-20T08:02:28.784Z</time>
      </trkpt>
      <trkpt lat="47.593166" lon="7.884637">
        <ele>297.304208</ele>
        <time>2021-11-20T08:02:40.280Z</time>
      </trkpt>
      <trkpt lat="47.593354" lon="7.884147">
        <ele>297.871011</ele>
        <time>2021-11-20T08:02:47.444Z</time>
      </trkpt>
      <trkpt lat="47.593465" lon="7.883826">
        <ele>298.233701</ele>
        <time>2021-11-20T08:02:52.244Z</time>
      </trkpt>
      <trkpt lat="47.593516" lon="7.883635">
        <ele>298.440240</ele>
        <time>2021-11-20T08:02:55.087Z</time>
      </trkpt>
      <trkpt lat="47.593562" lon="7.883406">
        <ele>298.680475</ele>
        <time>2021-11-20T08:02:58.171Z</time>
      </trkpt>
      <trkpt lat="47.593602" lon="7.883202">
        <ele>298.894072</ele>
        <time>2021-11-20T08:03:01.124Z</time>
      </trkpt>
      <trkpt lat="47.593695" lon="7.882631">
        <ele>299.484666</ele>
        <time>2021-11-20T08:03:10.078Z</time>
      </trkpt>
      <trkpt lat="47.593743" lon="7.882378">
        <ele>299.802717</ele>
        <time>2021-11-20T08:03:13.892Z</time>
      </trkpt>
      <trkpt lat="47.593831" lon="7.882052">
        <ele>300.982194</ele>
        <time>2021-11-20T08:03:19.211Z</time>
      </trkpt>
      <trkpt lat="47.593960" lon="7.881629">
        <ele>302.541546</ele>
        <time>2021-11-20T08:03:28.487Z</time>
      </trkpt>
      <trkpt lat="47.593971" lon="7.881590">
        <ele>302.683540</ele>
        <time>2021-11-20T08:03:29.140Z</time>
      </trkpt>
      <trkpt lat="47.593986" lon="7.881532">
        <ele>302.892192</ele>
        <time>2021-11-20T08:03:30.269Z</time>
      </trkpt>
      <trkpt lat="47.594029" lon="7.881400">
        <ele>303.384588</ele>
        <time>2021-11-20T08:03:34.409Z</time>
      </trkpt>
      <trkpt lat="47.594057" lon="7.881307">
        <ele>303.726685</ele>
        <time>2021-11-20T08:03:37.241Z</time>
      </trkpt>
      <trkpt lat="47.594067" lon="7.881235">
        <ele>303.973603</ele>
        <time>2021-11-20T08:03:38.964Z</time>
      </trkpt>
      <trkpt lat="47.594067" lon="7.881089">
        <ele>304.464005</ele>
        <time>2021-11-20T08:03:42.092Z</time>
      </trkpt>
      <trkpt lat="47.594054" lon="7.881021">
        <ele>304.701412</ele>
        <time>2021-11-20T08:03:43.492Z</time>
      </trkpt>
      <trkpt lat="47.594237" lon="7.880922">
        <ele>305.671655</ele>
        <time>2021-11-20T08:03:52.876Z</time>
      </trkpt>
      <trkpt lat="47.594428" lon="7.880985">
        <ele>306.646231</ele>
        <time>2021-11-20T08:04:00.480Z</time>
      </trkpt>
      <trkpt lat="47.594673" lon="7.881251">
        <ele>308.158638</ele>
        <time>2021-11-20T08:04:15.010Z</time>
      </trkpt>
      <trkpt lat="47.594801" lon="7.881318">
        <ele>308.947127</ele>
        <time>2021-11-20T08:04:22.673Z</time>
      </trkpt>
      <trkpt lat="47.595079" lon="7.881265">
        <ele>311.387870</ele>
        <time>2021-11-20T08:04:36.020Z</time>
      </trkpt>
      <trkpt lat="47.595204" lon="7.881241">
        <ele>312.485454</ele>
        <time>2021-11-20T08:04:43.140Z</time>
      </trkpt>
      <trkpt lat="47.595356" lon="7.881168">
        <ele>313.876755</ele>
        <time>2021-11-20T08:04:50.463Z</time>
      </trkpt>
      <trkpt lat="47.595590" lon="7.880967">
        <ele>316.231597</ele>
        <time>2021-11-20T08:05:05.977Z</time>
      </trkpt>
      <trkpt lat="47.595849" lon="7.880571">
        <ele>319.471087</ele>
        <time>2021-11-20T08:05:27.672Z</time>
      </trkpt>
      <trkpt lat="47.595897" lon="7.880539">
        <ele>319.929367</ele>
        <time>2021-11-20T08:05:31.059Z</time>
      </trkpt>
      <trkpt lat="47.596105" lon="7.880429">
        <ele>321.852363</ele>
        <time>2021-11-20T08:05:45.205Z</time>
      </trkpt>
      <trkpt lat="47.596624" lon="7.880330">
        <ele>326.377443</ele>
        <time>2021-11-20T08:06:15.210Z</time>
      </trkpt>
      <trkpt lat="47.596862" lon="7.880148">
        <ele>328.673543</ele>
        <time>2021-11-20T08:06:29.334Z</time>
      </trkpt>
      <trkpt lat="47.597107" lon="7.879961">
        <ele>331.036239</ele>
        <time>2021-11-20T08:06:43.784Z</time>
      </trkpt>
      <trkpt lat="47.597592" lon="7.879745">
        <ele>335.378384</ele>
        <time>2021-11-20T08:07:08.742Z</time>
      </trkpt>
      <trkpt lat="47.598046" lon="7.879670">
        <ele>339.295303</ele>
        <time>2021-11-20T08:07:30.337Z</time>
      </trkpt>
      <trkpt lat="47.598601" lon="7.879410">
        <ele>343.330776</ele>
        <time>2021-11-20T08:07:56.180Z</time>
      </trkpt>
      <trkpt lat="47.598814" lon="7.879234">
        <ele>344.979334</ele>
        <time>2021-11-20T08:08:05.121Z</time>
      </trkpt>
      <trkpt lat="47.599319" lon="7.878456">
        <ele>349.902600</ele>
        <time>2021-11-20T08:08:35.036Z</time>
      </trkpt>
      <trkpt lat="47.599501" lon="7.878325">
        <ele>351.270388</ele>
        <time>2021-11-20T08:08:44.072Z</time>
      </trkpt>
      <trkpt lat="47.599911" lon="7.878305">
        <ele>353.772696</ele>
        <time>2021-11-20T08:09:00.046Z</time>
      </trkpt>
      <trkpt lat="47.600025" lon="7.878272">
        <ele>354.457229</ele>
        <time>2021-11-20T08:09:03.915Z</time>
      </trkpt>
      <trkpt lat="47.600151" lon="7.878087">
        <ele>355.502176</ele>
        <time>2021-11-20T08:09:11.834Z</time>
      </trkpt>
      <trkpt lat="47.600245" lon="7.877413">
        <ele>358.237315</ele>
        <time>2021-11-20T08:09:30.349Z</time>
      </trkpt>
      <trkpt lat="47.600322" lon="7.875497">
        <ele>364.164357</ele>
        <time>2021-11-20T08:10:17.157Z</time>
      </trkpt>
      <trkpt lat="47.600332" lon="7.875215">
        <ele>364.714225</ele>
        <time>2021-11-20T08:10:23.012Z</time>
      </trkpt>
      <trkpt lat="47.600417" lon="7.874784">
        <ele>365.588624</ele>
        <time>2021-11-20T08:10:30.293Z</time>
      </trkpt>
      <trkpt lat="47.600560" lon="7.874413">
        <ele>366.420729</ele>
        <time>2021-11-20T08:10:36.467Z</time>
      </trkpt>
      <trkpt lat="47.600649" lon="7.874233">
        <ele>366.855354</ele>
        <time>2021-11-20T08:10:39.917Z</time>
      </trkpt>
      <trkpt lat="47.600741" lon="7.874046">
        <ele>367.306095</ele>
        <time>2021-11-20T08:10:42.266Z</time>
      </trkpt>
      <trkpt lat="47.600948" lon="7.873597">
        <ele>367.305876</ele>
        <time>2021-11-20T08:10:48.477Z</time>
      </trkpt>
      <trkpt lat="47.601105" lon="7.873353">
        <ele>366.876685</ele>
        <time>2021-11-20T08:10:52.192Z</time>
      </trkpt>
      <trkpt lat="47.601296" lon="7.873172">
        <ele>366.448914</ele>
        <time>2021-11-20T08:10:54.743Z</time>
      </trkpt>
      <trkpt lat="47.601943" lon="7.872936">
        <ele>365.191471</ele>
        <time>2021-11-20T08:11:01.683Z</time>
      </trkpt>
      <trkpt lat="47.602586" lon="7.872916">
        <ele>363.508258</ele>
        <time>2021-11-20T08:11:08.221Z</time>
      </trkpt>
      <trkpt lat="47.602808" lon="7.872798">
        <ele>362.470244</ele>
        <time>2021-11-20T08:11:10.537Z</time>
      </trkpt>
      <trkpt lat="47.603045" lon="7.872583">
        <ele>361.247391</ele>
        <time>2021-11-20T08:11:13.225Z</time>
      </trkpt>
      <trkpt lat="47.603829" lon="7.872140">
        <ele>357.554575</ele>
        <time>2021-11-20T08:11:21.199Z</time>
      </trkpt>
      <trkpt lat="47.604280" lon="7.872065">
        <ele>355.812398</ele>
        <time>2021-11-20T08:11:25.403Z</time>
      </trkpt>
      <trkpt lat="47.604519" lon="7.871934">
        <ele>355.025415</ele>
        <time>2021-11-20T08:11:27.777Z</time>
      </trkpt>
      <trkpt lat="47.604699" lon="7.871639">
        <ele>354.196864</ele>
        <time>2021-11-20T08:11:30.484Z</time>
      </trkpt>
      <trkpt lat="47.604826" lon="7.871285">
        <ele>353.361799</ele>
        <time>2021-11-20T08:11:33.263Z</time>
      </trkpt>
      <trkpt lat="47.605144" lon="7.870882">
        <ele>352.069894</ele>
        <time>2021-11-20T08:11:37.721Z</time>
      </trkpt>
      <trkpt lat="47.605546" lon="7.870588">
        <ele>350.863121</ele>
        <time>2021-11-20T08:11:42.679Z</time>
      </trkpt>
      <trkpt lat="47.605814" lon="7.870517">
        <ele>350.889093</ele>
        <time>2021-11-20T08:11:47.893Z</time>
      </trkpt>
      <trkpt lat="47.606788" lon="7.870326">
        <ele>350.982824</ele>
        <time>2021-11-20T08:12:07.952Z</time>
      </trkpt>
      <trkpt lat="47.607422" lon="7.869646">
        <ele>351.577060</ele>
        <time>2021-11-20T08:12:28.468Z</time>
      </trkpt>
      <trkpt lat="47.607453" lon="7.869540">
        <ele>351.722049</ele>
        <time>2021-11-20T08:12:30.342Z</time>
      </trkpt>
      <trkpt lat="47.607466" lon="7.869418">
        <ele>351.877040</ele>
        <time>2021-11-20T08:12:31.645Z</time>
      </trkpt>
      <trkpt lat="47.607848" lon="7.869319">
        <ele>352.598798</ele>
        <time>2021-11-20T08:12:39.551Z</time>
      </trkpt>
      <trkpt lat="47.607911" lon="7.869279">
        <ele>352.726346</ele>
        <time>2021-11-20T08:12:41.931Z</time>
      </trkpt>
      <trkpt lat="47.608074" lon="7.869176">
        <ele>353.056109</ele>
        <time>2021-11-20T08:12:45.623Z</time>
      </trkpt>
      <trkpt lat="47.608371" lon="7.868821">
        <ele>353.766042</ele>
        <time>2021-11-20T08:12:53.591Z</time>
      </trkpt>
      <trkpt lat="47.609971" lon="7.866486">
        <ele>360.904291</ele>
        <time>2021-11-20T08:13:56.533Z</time>
      </trkpt>
      <trkpt lat="47.610539" lon="7.865746">
        <ele>363.979967</ele>
        <time>2021-11-20T08:14:21.905Z</time>
      </trkpt>
      <trkpt lat="47.611380" lon="7.864872">
        <ele>367.966617</ele>
        <time>2021-11-20T08:14:54.476Z</time>
      </trkpt>
      <trkpt lat="47.611814" lon="7.864344">
        <ele>369.197165</ele>
        <time>2021-11-20T08:15:09.646Z</time>
      </trkpt>
      <trkpt lat="47.613099" lon="7.861661">
        <ele>373.468121</ele>
        <time>2021-11-20T08:15:54.939Z</time>
      </trkpt>
      <trkpt lat="47.613183" lon="7.861517">
        <ele>373.679258</ele>
        <time>2021-11-20T08:15:57.543Z</time>
      </trkpt>
      <trkpt lat="47.613247" lon="7.861408">
        <ele>373.839527</ele>
        <time>2021-11-20T08:15:59.391Z</time>
      </trkpt>
      <trkpt lat="47.613477" lon="7.861090">
        <ele>374.356650</ele>
        <time>2021-11-20T08:16:05.894Z</time>
      </trkpt>
      <trkpt lat="47.613709" lon="7.860779">
        <ele>375.069086</ele>
        <time>2021-11-20T08:16:13.274Z</time>
      </trkpt>
      <trkpt lat="47.613653" lon="7.860682">
        <ele>375.334727</ele>
        <time>2021-11-20T08:16:15.494Z</time>
      </trkpt>
      <trkpt lat="47.613681" lon="7.860208">
        <ele>376.324447</ele>
        <time>2021-11-20T08:16:24.332Z</time>
      </trkpt>
      <trkpt lat="47.613930" lon="7.859518">
        <ele>377.952378</ele>
        <time>2021-11-20T08:16:40.497Z</time>
      </trkpt>
      <trkpt lat="47.614117" lon="7.858260">
        <ele>380.570087</ele>
        <time>2021-11-20T08:17:04.083Z</time>
      </trkpt>
      <trkpt lat="47.614324" lon="7.857633">
        <ele>381.816964</ele>
        <time>2021-11-20T08:17:16.185Z</time>
      </trkpt>
      <trkpt lat="47.614594" lon="7.857031">
        <ele>383.108325</ele>
        <time>2021-11-20T08:17:28.911Z</time>
      </trkpt>
      <trkpt lat="47.614943" lon="7.856422">
        <ele>384.535866</ele>
        <time>2021-11-20T08:17:42.646Z</time>
      </trkpt>
      <trkpt lat="47.615230" lon="7.856082">
        <ele>385.878187</ele>
        <time>2021-11-20T08:17:50.882Z</time>
      </trkpt>
      <trkpt lat="47.615482" lon="7.855744">
        <ele>387.383436</ele>
        <time>2021-11-20T08:17:59.824Z</time>
      </trkpt>
      <trkpt lat="47.615834" lon="7.855623">
        <ele>388.984360</ele>
        <time>2021-11-20T08:18:11.095Z</time>
      </trkpt>
      <trkpt lat="47.616532" lon="7.854834">
        <ele>392.872469</ele>
        <time>2021-11-20T08:18:50.518Z</time>
      </trkpt>
      <trkpt lat="47.616902" lon="7.854158">
        <ele>397.671215</ele>
        <time>2021-11-20T08:19:21.304Z</time>
      </trkpt>
      <trkpt lat="47.617121" lon="7.853582">
        <ele>401.352638</ele>
        <time>2021-11-20T08:19:43.355Z</time>
      </trkpt>
      <trkpt lat="47.617174" lon="7.853374">
        <ele>402.590514</ele>
        <time>2021-11-20T08:19:50.811Z</time>
      </trkpt>
      <trkpt lat="47.617401" lon="7.852985">
        <ele>405.454745</ele>
        <time>2021-11-20T08:20:08.514Z</time>
      </trkpt>
      <trkpt lat="47.617505" lon="7.852663">
        <ele>407.442411</ele>
        <time>2021-11-20T08:20:21.033Z</time>
      </trkpt>
      <trkpt lat="47.617527" lon="7.851427">
        <ele>413.005886</ele>
        <time>2021-11-20T08:21:00.756Z</time>
      </trkpt>
      <trkpt lat="47.618006" lon="7.850183">
        <ele>419.372664</ele>
        <time>2021-11-20T08:21:36.715Z</time>
      </trkpt>
      <trkpt lat="47.618035" lon="7.849984">
        <ele>419.947402</ele>
        <time>2021-11-20T08:21:41.304Z</time>
      </trkpt>
      <trkpt lat="47.618004" lon="7.848291">
        <ele>423.569968</ele>
        <time>2021-11-20T08:22:13.475Z</time>
      </trkpt>
      <trkpt lat="47.617988" lon="7.848055">
        <ele>424.077305</ele>
        <time>2021-11-20T08:22:17.471Z</time>
      </trkpt>
      <trkpt lat="47.617998" lon="7.847811">
        <ele>424.600171</ele>
        <time>2021-11-20T08:22:21.033Z</time>
      </trkpt>
      <trkpt lat="47.618233" lon="7.846599">
        <ele>426.819242</ele>
        <time>2021-11-20T08:22:39.485Z</time>
      </trkpt>
      <trkpt lat="47.618223" lon="7.845325">
        <ele>428.875497</ele>
        <time>2021-11-20T08:23:00.216Z</time>
      </trkpt>
      <trkpt lat="47.618134" lon="7.844973">
        <ele>429.482242</ele>
        <time>2021-11-20T08:23:06.713Z</time>
      </trkpt>
      <trkpt lat="47.617988" lon="7.844483">
        <ele>430.889359</ele>
        <time>2021-11-20T08:23:16.845Z</time>
      </trkpt>
      <trkpt lat="47.617607" lon="7.843840">
        <ele>433.354414</ele>
        <time>2021-11-20T08:23:34.883Z</time>
      </trkpt>
      <trkpt lat="47.617368" lon="7.843216">
        <ele>435.420938</ele>
        <time>2021-11-20T08:23:51.528Z</time>
      </trkpt>
      <trkpt lat="47.617228" lon="7.842570">
        <ele>437.374298</ele>
        <time>2021-11-20T08:24:07.899Z</time>
      </trkpt>
      <trkpt lat="47.617103" lon="7.841209">
        <ele>441.275575</ele>
        <time>2021-11-20T08:24:38.758Z</time>
      </trkpt>
      <trkpt lat="47.616766" lon="7.839183">
        <ele>446.713854</ele>
        <time>2021-11-20T08:25:20.306Z</time>
      </trkpt>
      <trkpt lat="47.616796" lon="7.838812">
        <ele>447.548263</ele>
        <time>2021-11-20T08:25:27.087Z</time>
      </trkpt>
      <trkpt lat="47.617290" lon="7.837217">
        <ele>451.497940</ele>
        <time>2021-11-20T08:25:59.481Z</time>
      </trkpt>
      <trkpt lat="47.617841" lon="7.835706">
        <ele>455.528121</ele>
        <time>2021-11-20T08:26:32.260Z</time>
      </trkpt>
      <trkpt lat="47.618319" lon="7.834959">
        <ele>458.013759</ele>
        <time>2021-11-20T08:26:53.415Z</time>
      </trkpt>
      <trkpt lat="47.618582" lon="7.834417">
        <ele>459.714668</ele>
        <time>2021-11-20T08:27:07.111Z</time>
      </trkpt>
      <trkpt lat="47.618883" lon="7.833744">
        <ele>461.771731</ele>
        <time>2021-11-20T08:27:23.634Z</time>
      </trkpt>
      <trkpt lat="47.619543" lon="7.832548">
        <ele>465.341153</ele>
        <time>2021-11-20T08:27:54.277Z</time>
      </trkpt>
      <trkpt lat="47.621202" lon="7.830405">
        <ele>471.681998</ele>
        <time>2021-11-20T08:28:51.088Z</time>
      </trkpt>
      <trkpt lat="47.621427" lon="7.829933">
        <ele>472.736822</ele>
        <time>2021-11-20T08:29:00.858Z</time>
      </trkpt>
      <trkpt lat="47.621534" lon="7.829734">
        <ele>473.201294</ele>
        <time>2021-11-20T08:29:05.134Z</time>
      </trkpt>
      <trkpt lat="47.621216" lon="7.829246">
        <ele>474.439962</ele>
        <time>2021-11-20T08:29:19.259Z</time>
      </trkpt>
      <trkpt lat="47.620592" lon="7.827866">
        <ele>477.474299</ele>
        <time>2021-11-20T08:29:54.686Z</time>
      </trkpt>
      <trkpt lat="47.620417" lon="7.827360">
        <ele>478.512777</ele>
        <time>2021-11-20T08:30:06.679Z</time>
      </trkpt>
      <trkpt lat="47.620239" lon="7.826424">
        <ele>478.983042</ele>
        <time>2021-11-20T08:30:26.929Z</time>
      </trkpt>
      <trkpt lat="47.620280" lon="7.825972">
        <ele>478.927754</ele>
        <time>2021-11-20T08:30:34.467Z</time>
      </trkpt>
      <trkpt lat="47.620532" lon="7.825491">
        <ele>478.853904</ele>
        <time>2021-11-20T08:30:42.123Z</time>
      </trkpt>
      <trkpt lat="47.620535" lon="7.825147">
        <ele>478.812199</ele>
        <time>2021-11-20T08:30:45.980Z</time>
      </trkpt>
      <trkpt lat="47.620426" lon="7.824361">
        <ele>477.966039</ele>
        <time>2021-11-20T08:30:54.078Z</time>
      </trkpt>
      <trkpt lat="47.620313" lon="7.823927">
        <ele>476.280063</ele>
        <time>2021-11-20T08:30:58.413Z</time>
      </trkpt>
      <trkpt lat="47.620145" lon="7.823390">
        <ele>474.134700</ele>
        <time>2021-11-20T08:31:03.900Z</time>
      </trkpt>
      <trkpt lat="47.620379" lon="7.822890">
        <ele>471.928890</ele>
        <time>2021-11-20T08:31:09.176Z</time>
      </trkpt>
      <trkpt lat="47.620415" lon="7.822781">
        <ele>471.489030</ele>
        <time>2021-11-20T08:31:10.201Z</time>
      </trkpt>
      <trkpt lat="47.620423" lon="7.822679">
        <ele>471.116911</ele>
        <time>2021-11-20T08:31:11.038Z</time>
      </trkpt>
      <trkpt lat="47.620375" lon="7.821867">
        <ele>468.568041</ele>
        <time>2021-11-20T08:31:18.073Z</time>
      </trkpt>
      <trkpt lat="47.620205" lon="7.821419">
        <ele>467.535968</ele>
        <time>2021-11-20T08:31:22.726Z</time>
      </trkpt>
      <trkpt lat="47.620142" lon="7.821371">
        <ele>467.325041</ele>
        <time>2021-11-20T08:31:23.628Z</time>
      </trkpt>
      <trkpt lat="47.620115" lon="7.821360">
        <ele>467.241650</ele>
        <time>2021-11-20T08:31:24.090Z</time>
      </trkpt>
      <trkpt lat="47.620094" lon="7.821351">
        <ele>467.176549</ele>
        <time>2021-11-20T08:31:24.369Z</time>
      </trkpt>
      <trkpt lat="47.619956" lon="7.821295">
        <ele>466.750451</ele>
        <time>2021-11-20T08:31:26.570Z</time>
      </trkpt>
      <trkpt lat="47.619921" lon="7.821263">
        <ele>466.628007</ele>
        <time>2021-11-20T08:31:27.361Z</time>
      </trkpt>
      <trkpt lat="47.619886" lon="7.821190">
        <ele>466.448168</ele>
        <time>2021-11-20T08:31:28.316Z</time>
      </trkpt>
      <trkpt lat="47.619831" lon="7.821041">
        <ele>466.107137</ele>
        <time>2021-11-20T08:31:29.907Z</time>
      </trkpt>
      <trkpt lat="47.619748" lon="7.820814">
        <ele>465.588707</ele>
        <time>2021-11-20T08:31:33.136Z</time>
      </trkpt>
      <trkpt lat="47.619700" lon="7.820678">
        <ele>465.280525</ele>
        <time>2021-11-20T08:31:34.780Z</time>
      </trkpt>
      <trkpt lat="47.619615" lon="7.820500">
        <ele>464.842604</ele>
        <time>2021-11-20T08:31:37.591Z</time>
      </trkpt>
      <trkpt lat="47.619523" lon="7.820339">
        <ele>464.418883</ele>
        <time>2021-11-20T08:31:41.398Z</time>
      </trkpt>
      <trkpt lat="47.619453" lon="7.820217">
        <ele>464.097251</ele>
        <time>2021-11-20T08:31:43.071Z</time>
      </trkpt>
      <trkpt lat="47.619452" lon="7.820110">
        <ele>463.882427</ele>
        <time>2021-11-20T08:31:44.524Z</time>
      </trkpt>
      <trkpt lat="47.619471" lon="7.819998">
        <ele>463.704263</ele>
        <time>2021-11-20T08:31:45.789Z</time>
      </trkpt>
      <trkpt lat="47.619480" lon="7.819969">
        <ele>463.694318</ele>
        <time>2021-11-20T08:31:46.493Z</time>
      </trkpt>
      <trkpt lat="47.619503" lon="7.819903">
        <ele>463.671174</ele>
        <time>2021-11-20T08:31:48.196Z</time>
      </trkpt>
      <trkpt lat="47.619563" lon="7.819774">
        <ele>463.622353</ele>
        <time>2021-11-20T08:31:49.910Z</time>
      </trkpt>
      <trkpt lat="47.619739" lon="7.819464">
        <ele>463.496100</ele>
        <time>2021-11-20T08:31:55.033Z</time>
      </trkpt>
      <trkpt lat="47.620091" lon="7.818898">
        <ele>463.256214</ele>
        <time>2021-11-20T08:32:06.355Z</time>
      </trkpt>
      <trkpt lat="47.620052" lon="7.818861">
        <ele>463.234821</ele>
        <time>2021-11-20T08:32:06.958Z</time>
      </trkpt>
      <trkpt lat="47.619989" lon="7.818555">
        <ele>463.135156</ele>
        <time>2021-11-20T08:32:10.096Z</time>
      </trkpt>
      <trkpt lat="47.619983" lon="7.818525">
        <ele>463.125409</ele>
        <time>2021-11-20T08:32:10.417Z</time>
      </trkpt>
      <trkpt lat="47.619948" lon="7.818387">
        <ele>463.079480</ele>
        <time>2021-11-20T08:32:12.319Z</time>
      </trkpt>
      <trkpt lat="47.619880" lon="7.818346">
        <ele>463.045559</ele>
        <time>2021-11-20T08:32:13.077Z</time>
      </trkpt>
      <trkpt lat="47.619481" lon="7.818077">
        <ele>462.575520</ele>
        <time>2021-11-20T08:32:18.724Z</time>
      </trkpt>
      <trkpt lat="47.619455" lon="7.818047">
        <ele>462.458238</ele>
        <time>2021-11-20T08:32:19.015Z</time>
      </trkpt>
      <trkpt lat="47.619414" lon="7.817980">
        <ele>462.241049</ele>
        <time>2021-11-20T08:32:19.813Z</time>
      </trkpt>
      <trkpt lat="47.619369" lon="7.817884">
        <ele>461.960403</ele>
        <time>2021-11-20T08:32:20.806Z</time>
      </trkpt>
      <trkpt lat="47.619286" lon="7.817698">
        <ele>461.425024</ele>
        <time>2021-11-20T08:32:22.339Z</time>
      </trkpt>
      <trkpt lat="47.619222" lon="7.817606">
        <ele>461.107711</ele>
        <time>2021-11-20T08:32:23.182Z</time>
      </trkpt>
      <trkpt lat="47.619023" lon="7.817353">
        <ele>460.174542</ele>
        <time>2021-11-20T08:32:25.825Z</time>
      </trkpt>
      <trkpt lat="47.618799" lon="7.817081">
        <ele>459.143841</ele>
        <time>2021-11-20T08:32:28.608Z</time>
      </trkpt>
      <trkpt lat="47.618674" lon="7.816980">
        <ele>458.637023</ele>
        <time>2021-11-20T08:32:29.929Z</time>
      </trkpt>
      <trkpt lat="47.618026" lon="7.816656">
        <ele>456.110467</ele>
        <time>2021-11-20T08:32:36.539Z</time>
      </trkpt>
      <trkpt lat="47.617819" lon="7.816612">
        <ele>455.118773</ele>
        <time>2021-11-20T08:32:38.516Z</time>
      </trkpt>
      <trkpt lat="47.617645" lon="7.816658">
        <ele>454.280602</ele>
        <time>2021-11-20T08:32:40.230Z</time>
      </trkpt>
      <trkpt lat="47.617591" lon="7.816685">
        <ele>454.010361</ele>
        <time>2021-11-20T08:32:40.769Z</time>
      </trkpt>
      <trkpt lat="47.617508" lon="7.816727">
        <ele>453.594477</ele>
        <time>2021-11-20T08:32:41.603Z</time>
      </trkpt>
      <trkpt lat="47.617466" lon="7.816748">
        <ele>453.384289</ele>
        <time>2021-11-20T08:32:42.060Z</time>
      </trkpt>
      <trkpt lat="47.617373" lon="7.816786">
        <ele>452.926826</ele>
        <time>2021-11-20T08:32:43.029Z</time>
      </trkpt>
      <trkpt lat="47.617243" lon="7.816840">
        <ele>452.286608</ele>
        <time>2021-11-20T08:32:44.289Z</time>
      </trkpt>
      <trkpt lat="47.617000" lon="7.816677">
        <ele>451.021885</ele>
        <time>2021-11-20T08:32:46.928Z</time>
      </trkpt>
      <trkpt lat="47.616733" lon="7.816466">
        <ele>449.587221</ele>
        <time>2021-11-20T08:32:49.758Z</time>
      </trkpt>
      <trkpt lat="47.616707" lon="7.816445">
        <ele>449.446829</ele>
        <time>2021-11-20T08:32:50.054Z</time>
      </trkpt>
      <trkpt lat="47.616632" lon="7.816335">
        <ele>448.946669</ele>
        <time>2021-11-20T08:32:51.012Z</time>
      </trkpt>
      <trkpt lat="47.616582" lon="7.816196">
        <ele>448.443010</ele>
        <time>2021-11-20T08:32:51.971Z</time>
      </trkpt>
      <trkpt lat="47.616439" lon="7.815458">
        <ele>445.704319</ele>
        <time>2021-11-20T08:32:56.873Z</time>
      </trkpt>
      <trkpt lat="47.616368" lon="7.815112">
        <ele>444.380662</ele>
        <time>2021-11-20T08:32:59.082Z</time>
      </trkpt>
      <trkpt lat="47.616291" lon="7.814920">
        <ele>443.563029</ele>
        <time>2021-11-20T08:33:00.530Z</time>
      </trkpt>
      <trkpt lat="47.616224" lon="7.814793">
        <ele>442.972816</ele>
        <time>2021-11-20T08:33:01.482Z</time>
      </trkpt>
      <trkpt lat="47.615803" lon="7.813616">
        <ele>438.111088</ele>
        <time>2021-11-20T08:33:09.913Z</time>
      </trkpt>
      <trkpt lat="47.615645" lon="7.813447">
        <ele>437.232287</ele>
        <time>2021-11-20T08:33:11.702Z</time>
      </trkpt>
      <trkpt lat="47.615387" lon="7.813324">
        <ele>436.009668</ele>
        <time>2021-11-20T08:33:14.291Z</time>
      </trkpt>
      <trkpt lat="47.614932" lon="7.812637">
        <ele>433.080627</ele>
        <time>2021-11-20T08:33:20.526Z</time>
      </trkpt>
      <trkpt lat="47.614764" lon="7.812475">
        <ele>432.176623</ele>
        <time>2021-11-20T08:33:22.483Z</time>
      </trkpt>
      <trkpt lat="47.614051" lon="7.812407">
        <ele>429.301018</ele>
        <time>2021-11-20T08:33:29.405Z</time>
      </trkpt>
      <trkpt lat="47.613868" lon="7.812544">
        <ele>428.664539</ele>
        <time>2021-11-20T08:33:31.398Z</time>
      </trkpt>
      <trkpt lat="47.613621" lon="7.812859">
        <ele>427.653135</ele>
        <time>2021-11-20T08:33:34.620Z</time>
      </trkpt>
      <trkpt lat="47.613501" lon="7.812899">
        <ele>427.271241</ele>
        <time>2021-11-20T08:33:35.867Z</time>
      </trkpt>
      <trkpt lat="47.612810" lon="7.813060">
        <ele>425.099368</ele>
        <time>2021-11-20T08:33:43.125Z</time>
      </trkpt>
      <trkpt lat="47.612555" lon="7.813076">
        <ele>424.419367</ele>
        <time>2021-11-20T08:33:45.914Z</time>
      </trkpt>
      <trkpt lat="47.612313" lon="7.813004">
        <ele>424.139841</ele>
        <time>2021-11-20T08:33:48.735Z</time>
      </trkpt>
      <trkpt lat="47.611013" lon="7.812221">
        <ele>422.550837</ele>
        <time>2021-11-20T08:34:06.449Z</time>
      </trkpt>
      <trkpt lat="47.610772" lon="7.811907">
        <ele>421.921931</ele>
        <time>2021-11-20T08:34:10.670Z</time>
      </trkpt>
      <trkpt lat="47.610233" lon="7.810909">
        <ele>419.945834</ele>
        <time>2021-11-20T08:34:20.484Z</time>
      </trkpt>
      <trkpt lat="47.609797" lon="7.810201">
        <ele>418.463989</ele>
        <time>2021-11-20T08:34:27.085Z</time>
      </trkpt>
      <trkpt lat="47.609427" lon="7.809753">
        <ele>415.793439</ele>
        <time>2021-11-20T08:34:31.620Z</time>
      </trkpt>
      <trkpt lat="47.608602" lon="7.809088">
        <ele>410.089687</ele>
        <time>2021-11-20T08:34:40.162Z</time>
      </trkpt>
      <trkpt lat="47.607803" lon="7.808223">
        <ele>403.452140</ele>
        <time>2021-11-20T08:34:48.970Z</time>
      </trkpt>
      <trkpt lat="47.607595" lon="7.808039">
        <ele>401.702194</ele>
        <time>2021-11-20T08:34:51.107Z</time>
      </trkpt>
      <trkpt lat="47.607385" lon="7.807967">
        <ele>400.144789</ele>
        <time>2021-11-20T08:34:53.032Z</time>
      </trkpt>
      <trkpt lat="47.606698" lon="7.808066">
        <ele>395.157372</ele>
        <time>2021-11-20T08:34:59.204Z</time>
      </trkpt>
      <trkpt lat="47.605899" lon="7.808010">
        <ele>390.294234</ele>
        <time>2021-11-20T08:35:06.550Z</time>
      </trkpt>
      <trkpt lat="47.605468" lon="7.808045">
        <ele>387.744343</ele>
        <time>2021-11-20T08:35:10.587Z</time>
      </trkpt>
      <trkpt lat="47.604338" lon="7.808356">
        <ele>381.006255</ele>
        <time>2021-11-20T08:35:21.160Z</time>
      </trkpt>
      <trkpt lat="47.604147" lon="7.808404">
        <ele>379.882632</ele>
        <time>2021-11-20T08:35:22.950Z</time>
      </trkpt>
      <trkpt lat="47.603933" lon="7.808453">
        <ele>378.626691</ele>
        <time>2021-11-20T08:35:24.860Z</time>
      </trkpt>
      <trkpt lat="47.603664" lon="7.808428">
        <ele>377.063385</ele>
        <time>2021-11-20T08:35:27.359Z</time>
      </trkpt>
      <trkpt lat="47.603050" lon="7.808058">
        <ele>373.273933</ele>
        <time>2021-11-20T08:35:33.552Z</time>
      </trkpt>
      <trkpt lat="47.602603" lon="7.807841">
        <ele>371.741049</ele>
        <time>2021-11-20T08:35:37.982Z</time>
      </trkpt>
      <trkpt lat="47.602352" lon="7.807799">
        <ele>370.917821</ele>
        <time>2021-11-20T08:35:40.543Z</time>
      </trkpt>
      <trkpt lat="47.602242" lon="7.807771">
        <ele>370.554076</ele>
        <time>2021-11-20T08:35:41.648Z</time>
      </trkpt>
      <trkpt lat="47.601856" lon="7.807444">
        <ele>369.105287</ele>
        <time>2021-11-20T08:35:46.255Z</time>
      </trkpt>
      <trkpt lat="47.601434" lon="7.806809">
        <ele>367.317282</ele>
        <time>2021-11-20T08:35:52.764Z</time>
      </trkpt>
      <trkpt lat="47.600919" lon="7.805847">
        <ele>365.994157</ele>
        <time>2021-11-20T08:36:03.569Z</time>
      </trkpt>
      <trkpt lat="47.600707" lon="7.805537">
        <ele>365.518547</ele>
        <time>2021-11-20T08:36:07.006Z</time>
      </trkpt>
      <trkpt lat="47.600367" lon="7.805144">
        <ele>364.829906</ele>
        <time>2021-11-20T08:36:11.745Z</time>
      </trkpt>
      <trkpt lat="47.599983" lon="7.804755">
        <ele>363.485844</ele>
        <time>2021-11-20T08:36:16.644Z</time>
      </trkpt>
      <trkpt lat="47.598398" lon="7.802889">
        <ele>356.784439</ele>
        <time>2021-11-20T08:36:36.592Z</time>
      </trkpt>
      <trkpt lat="47.598146" lon="7.802509">
        <ele>355.716328</ele>
        <time>2021-11-20T08:36:40.248Z</time>
      </trkpt>
      <trkpt lat="47.597927" lon="7.802250">
        <ele>354.883836</ele>
        <time>2021-11-20T08:36:43.195Z</time>
      </trkpt>
      <trkpt lat="47.597625" lon="7.801971">
        <ele>353.826381</ele>
        <time>2021-11-20T08:36:46.998Z</time>
      </trkpt>
      <trkpt lat="47.596866" lon="7.801508">
        <ele>352.180699</ele>
        <time>2021-11-20T08:36:55.733Z</time>
      </trkpt>
      <trkpt lat="47.596631" lon="7.801307">
        <ele>351.752743</ele>
        <time>2021-11-20T08:36:58.990Z</time>
      </trkpt>
      <trkpt lat="47.596154" lon="7.800842">
        <ele>350.852246</ele>
        <time>2021-11-20T08:37:05.947Z</time>
      </trkpt>
      <trkpt lat="47.596083" lon="7.800764">
        <ele>350.712856</ele>
        <time>2021-11-20T08:37:06.965Z</time>
      </trkpt>
      <trkpt lat="47.595950" lon="7.800596">
        <ele>350.437250</ele>
        <time>2021-11-20T08:37:09.037Z</time>
      </trkpt>
      <trkpt lat="47.595757" lon="7.800208">
        <ele>349.954915</ele>
        <time>2021-11-20T08:37:12.907Z</time>
      </trkpt>
      <trkpt lat="47.595466" lon="7.799497">
        <ele>349.155553</ele>
        <time>2021-11-20T08:37:19.383Z</time>
      </trkpt>
      <trkpt lat="47.595383" lon="7.799322">
        <ele>348.949925</ele>
        <time>2021-11-20T08:37:21.127Z</time>
      </trkpt>
      <trkpt lat="47.594957" lon="7.798605">
        <ele>348.031493</ele>
        <time>2021-11-20T08:37:28.752Z</time>
      </trkpt>
      <trkpt lat="47.594663" lon="7.797229">
        <ele>345.798776</ele>
        <time>2021-11-20T08:37:39.511Z</time>
      </trkpt>
      <trkpt lat="47.594653" lon="7.797153">
        <ele>345.663459</ele>
        <time>2021-11-20T08:37:40.039Z</time>
      </trkpt>
      <trkpt lat="47.594636" lon="7.797017">
        <ele>345.421747</ele>
        <time>2021-11-20T08:37:41.007Z</time>
      </trkpt>
      <trkpt lat="47.594601" lon="7.796746">
        <ele>344.939560</ele>
        <time>2021-11-20T08:37:42.978Z</time>
      </trkpt>
      <trkpt lat="47.594592" lon="7.795962">
        <ele>343.569297</ele>
        <time>2021-11-20T08:37:48.332Z</time>
      </trkpt>
      <trkpt lat="47.594615" lon="7.795353">
        <ele>342.520128</ele>
        <time>2021-11-20T08:37:52.448Z</time>
      </trkpt>
      <trkpt lat="47.594694" lon="7.794211">
        <ele>340.579440</ele>
        <time>2021-11-20T08:38:00.159Z</time>
      </trkpt>
      <trkpt lat="47.594650" lon="7.793807">
        <ele>339.887626</ele>
        <time>2021-11-20T08:38:03.055Z</time>
      </trkpt>
      <trkpt lat="47.594491" lon="7.793515">
        <ele>339.253170</ele>
        <time>2021-11-20T08:38:05.904Z</time>
      </trkpt>
      <trkpt lat="47.594337" lon="7.793337">
        <ele>338.763702</ele>
        <time>2021-11-20T08:38:08.219Z</time>
      </trkpt>
      <trkpt lat="47.594118" lon="7.793102">
        <ele>338.613906</ele>
        <time>2021-11-20T08:38:11.925Z</time>
      </trkpt>
      <trkpt lat="47.594068" lon="7.792892">
        <ele>338.708708</ele>
        <time>2021-11-20T08:38:14.026Z</time>
      </trkpt>
      <trkpt lat="47.594082" lon="7.792808">
        <ele>338.745541</ele>
        <time>2021-11-20T08:38:15.037Z</time>
      </trkpt>
      <trkpt lat="47.594154" lon="7.792816">
        <ele>338.791116</ele>
        <time>2021-11-20T08:38:16.155Z</time>
      </trkpt>
      <trkpt lat="47.595133" lon="7.792800">
        <ele>339.409122</ele>
        <time>2021-11-20T08:38:33.675Z</time>
      </trkpt>
      <trkpt lat="47.595245" lon="7.792802">
        <ele>339.479824</ele>
        <time>2021-11-20T08:38:36.034Z</time>
      </trkpt>
      <trkpt lat="47.595750" lon="7.792802">
        <ele>340.126265</ele>
        <time>2021-11-20T08:38:47.044Z</time>
      </trkpt>
      <trkpt lat="47.596504" lon="7.792669">
        <ele>341.615422</ele>
        <time>2021-11-20T08:39:04.135Z</time>
      </trkpt>
      <trkpt lat="47.597646" lon="7.792396">
        <ele>344.134997</ele>
        <time>2021-11-20T08:39:31.391Z</time>
      </trkpt>
      <trkpt lat="47.597848" lon="7.792115">
        <ele>344.869258</ele>
        <time>2021-11-20T08:39:38.477Z</time>
      </trkpt>
      <trkpt lat="47.598017" lon="7.791913">
        <ele>345.444709</ele>
        <time>2021-11-20T08:39:44.024Z</time>
      </trkpt>
      <trkpt lat="47.598252" lon="7.791731">
        <ele>346.147561</ele>
        <time>2021-11-20T08:39:51.177Z</time>
      </trkpt>
      <trkpt lat="47.598592" lon="7.791580">
        <ele>347.088490</ele>
        <time>2021-11-20T08:40:00.737Z</time>
      </trkpt>
      <trkpt lat="47.599667" lon="7.791105">
        <ele>349.533686</ele>
        <time>2021-11-20T08:40:29.223Z</time>
      </trkpt>
      <trkpt lat="47.600151" lon="7.790895">
        <ele>350.537810</ele>
        <time>2021-11-20T08:40:40.059Z</time>
      </trkpt>
      <trkpt lat="47.600211" lon="7.790869">
        <ele>350.662276</ele>
        <time>2021-11-20T08:40:41.358Z</time>
      </trkpt>
      <trkpt lat="47.600304" lon="7.790832">
        <ele>350.854002</ele>
        <time>2021-11-20T08:40:43.351Z</time>
      </trkpt>
      <trkpt lat="47.601073" lon="7.790573">
        <ele>351.975878</ele>
        <time>2021-11-20T08:40:58.807Z</time>
      </trkpt>
      <trkpt lat="47.601359" lon="7.790478">
        <ele>352.270003</ele>
        <time>2021-11-20T08:41:04.221Z</time>
      </trkpt>
      <trkpt lat="47.601768" lon="7.790511">
        <ele>352.681060</ele>
        <time>2021-11-20T08:41:11.686Z</time>
      </trkpt>
      <trkpt lat="47.601954" lon="7.790533">
        <ele>352.868312</ele>
        <time>2021-11-20T08:41:15.011Z</time>
      </trkpt>
      <trkpt lat="47.602292" lon="7.790564">
        <ele>353.208159</ele>
        <time>2021-11-20T08:41:21.219Z</time>
      </trkpt>
      <trkpt lat="47.603218" lon="7.790665">
        <ele>354.505313</ele>
        <time>2021-11-20T08:41:38.881Z</time>
      </trkpt>
      <trkpt lat="47.603379" lon="7.790683">
        <ele>354.740015</ele>
        <time>2021-11-20T08:41:42.278Z</time>
      </trkpt>
      <trkpt lat="47.603500" lon="7.790696">
        <ele>354.916367</ele>
        <time>2021-11-20T08:41:44.962Z</time>
      </trkpt>
      <trkpt lat="47.604020" lon="7.790669">
        <ele>355.672729</ele>
        <time>2021-11-20T08:41:56.344Z</time>
      </trkpt>
      <trkpt lat="47.604312" lon="7.790667">
        <ele>356.256947</ele>
        <time>2021-11-20T08:42:02.845Z</time>
      </trkpt>
      <trkpt lat="47.604673" lon="7.790747">
        <ele>357.326557</ele>
        <time>2021-11-20T08:42:11.306Z</time>
      </trkpt>
      <trkpt lat="47.604776" lon="7.790738">
        <ele>357.628910</ele>
        <time>2021-11-20T08:42:13.859Z</time>
      </trkpt>
      <trkpt lat="47.604861" lon="7.790465">
        <ele>358.223032</ele>
        <time>2021-11-20T08:42:18.962Z</time>
      </trkpt>
      <trkpt lat="47.604933" lon="7.789879">
        <ele>359.399904</ele>
        <time>2021-11-20T08:42:29.700Z</time>
      </trkpt>
      <trkpt lat="47.605245" lon="7.789093">
        <ele>361.202006</ele>
        <time>2021-11-20T08:42:47.739Z</time>
      </trkpt>
      <trkpt lat="47.606058" lon="7.787870">
        <ele>365.453538</ele>
        <time>2021-11-20T08:43:25.076Z</time>
      </trkpt>
      <trkpt lat="47.606236" lon="7.787573">
        <ele>366.437724</ele>
        <time>2021-11-20T08:43:32.512Z</time>
      </trkpt>
      <trkpt lat="47.606482" lon="7.786756">
        <ele>368.185172</ele>
        <time>2021-11-20T08:43:48.373Z</time>
      </trkpt>
      <trkpt lat="47.606894" lon="7.785802">
        <ele>369.418169</ele>
        <time>2021-11-20T08:44:04.590Z</time>
      </trkpt>
      <trkpt lat="47.607090" lon="7.785536">
        <ele>369.847010</ele>
        <time>2021-11-20T08:44:10.019Z</time>
      </trkpt>
      <trkpt lat="47.607244" lon="7.785405">
        <ele>370.133579</ele>
        <time>2021-11-20T08:44:13.209Z</time>
      </trkpt>
      <trkpt lat="47.607357" lon="7.785276">
        <ele>370.363756</ele>
        <time>2021-11-20T08:44:16.162Z</time>
      </trkpt>
      <trkpt lat="47.607784" lon="7.784501">
        <ele>371.754608</ele>
        <time>2021-11-20T08:44:27.688Z</time>
      </trkpt>
      <trkpt lat="47.607811" lon="7.784422">
        <ele>371.890725</ele>
        <time>2021-11-20T08:44:28.995Z</time>
      </trkpt>
      <trkpt lat="47.608000" lon="7.783873">
        <ele>372.838066</ele>
        <time>2021-11-20T08:44:37.747Z</time>
      </trkpt>
      <trkpt lat="47.608067" lon="7.783679">
        <ele>373.173048</ele>
        <time>2021-11-20T08:44:41.392Z</time>
      </trkpt>
      <trkpt lat="47.608293" lon="7.782840">
        <ele>374.561533</ele>
        <time>2021-11-20T08:44:58.206Z</time>
      </trkpt>
      <trkpt lat="47.608319" lon="7.782746">
        <ele>374.717677</ele>
        <time>2021-11-20T08:45:00.400Z</time>
      </trkpt>
      <trkpt lat="47.608448" lon="7.782041">
        <ele>377.482163</ele>
        <time>2021-11-20T08:45:16.315Z</time>
      </trkpt>
      <trkpt lat="47.608437" lon="7.781938">
        <ele>377.900605</ele>
        <time>2021-11-20T08:45:18.690Z</time>
      </trkpt>
      <trkpt lat="47.608309" lon="7.781587">
        <ele>379.501828</ele>
        <time>2021-11-20T08:45:28.602Z</time>
      </trkpt>
      <trkpt lat="47.608295" lon="7.781364">
        <ele>380.400491</ele>
        <time>2021-11-20T08:45:34.150Z</time>
      </trkpt>
      <trkpt lat="47.608399" lon="7.780950">
        <ele>382.173242</ele>
        <time>2021-11-20T08:45:46.174Z</time>
      </trkpt>
      <trkpt lat="47.608573" lon="7.780374">
        <ele>384.705846</ele>
        <time>2021-11-20T08:46:05.365Z</time>
      </trkpt>
      <trkpt lat="47.608894" lon="7.779407">
        <ele>390.278252</ele>
        <time>2021-11-20T08:46:39.979Z</time>
      </trkpt>
      <trkpt lat="47.609368" lon="7.778574">
        <ele>396.208783</ele>
        <time>2021-11-20T08:47:15.422Z</time>
      </trkpt>
      <trkpt lat="47.610133" lon="7.777501">
        <ele>403.890174</ele>
        <time>2021-11-20T08:48:04.283Z</time>
      </trkpt>
      <trkpt lat="47.610341" lon="7.777059">
        <ele>406.310283</ele>
        <time>2021-11-20T08:48:20.031Z</time>
      </trkpt>
      <trkpt lat="47.610448" lon="7.776605">
        <ele>408.469590</ele>
        <time>2021-11-20T08:48:33.243Z</time>
      </trkpt>
      <trkpt lat="47.610502" lon="7.776042">
        <ele>411.022762</ele>
        <time>2021-11-20T08:48:47.955Z</time>
      </trkpt>
      <trkpt lat="47.610473" lon="7.775477">
        <ele>412.834554</ele>
        <time>2021-11-20T08:49:01.404Z</time>
      </trkpt>
      <trkpt lat="47.610312" lon="7.774653">
        <ele>414.863872</ele>
        <time>2021-11-20T08:49:18.640Z</time>
      </trkpt>
      <trkpt lat="47.610139" lon="7.773592">
        <ele>417.445956</ele>
        <time>2021-11-20T08:49:37.837Z</time>
      </trkpt>
      <trkpt lat="47.610132" lon="7.773138">
        <ele>418.470727</ele>
        <time>2021-11-20T08:49:45.588Z</time>
      </trkpt>
      <trkpt lat="47.610187" lon="7.772679">
        <ele>419.286854</ele>
        <time>2021-11-20T08:49:53.283Z</time>
      </trkpt>
      <trkpt lat="47.610258" lon="7.772352">
        <ele>419.888263</ele>
        <time>2021-11-20T08:49:58.360Z</time>
      </trkpt>
      <trkpt lat="47.610490" lon="7.771899">
        <ele>420.884164</ele>
        <time>2021-11-20T08:50:07.474Z</time>
      </trkpt>
      <trkpt lat="47.611349" lon="7.770818">
        <ele>424.151269</ele>
        <time>2021-11-20T08:50:36.528Z</time>
      </trkpt>
      <trkpt lat="47.611495" lon="7.770538">
        <ele>425.032930</ele>
        <time>2021-11-20T08:50:44.543Z</time>
      </trkpt>
      <trkpt lat="47.611735" lon="7.769126">
        <ele>428.659858</ele>
        <time>2021-11-20T08:51:14.762Z</time>
      </trkpt>
      <trkpt lat="47.611843" lon="7.768871">
        <ele>429.409924</ele>
        <time>2021-11-20T08:51:21.012Z</time>
      </trkpt>
      <trkpt lat="47.611720" lon="7.768321">
        <ele>430.802232</ele>
        <time>2021-11-20T08:51:32.303Z</time>
      </trkpt>
      <trkpt lat="47.610892" lon="7.766368">
        <ele>436.376223</ele>
        <time>2021-11-20T08:52:16.800Z</time>
      </trkpt>
      <trkpt lat="47.610797" lon="7.765993">
        <ele>437.559185</ele>
        <time>2021-11-20T08:52:24.540Z</time>
      </trkpt>
      <trkpt lat="47.610767" lon="7.765723">
        <ele>438.367242</ele>
        <time>2021-11-20T08:52:29.883Z</time>
      </trkpt>
      <trkpt lat="47.610710" lon="7.765230">
        <ele>439.844308</ele>
        <time>2021-11-20T08:52:40.187Z</time>
      </trkpt>
      <trkpt lat="47.610607" lon="7.764328">
        <ele>442.545827</ele>
        <time>2021-11-20T08:53:02.247Z</time>
      </trkpt>
      <trkpt lat="47.610505" lon="7.763094">
        <ele>445.870240</ele>
        <time>2021-11-20T08:53:31.486Z</time>
      </trkpt>
      <trkpt lat="47.610510" lon="7.762675">
        <ele>446.923383</ele>
        <time>2021-11-20T08:53:40.571Z</time>
      </trkpt>
      <trkpt lat="47.610549" lon="7.761995">
        <ele>448.638445</ele>
        <time>2021-11-20T08:53:53.687Z</time>
      </trkpt>
      <trkpt lat="47.610580" lon="7.761637">
        <ele>449.545516</ele>
        <time>2021-11-20T08:54:00.403Z</time>
      </trkpt>
      <trkpt lat="47.610601" lon="7.761374">
        <ele>450.211073</ele>
        <time>2021-11-20T08:54:04.977Z</time>
      </trkpt>
      <trkpt lat="47.610760" lon="7.761304">
        <ele>450.651420</ele>
        <time>2021-11-20T08:54:09.191Z</time>
      </trkpt>
      <trkpt lat="47.610854" lon="7.761285">
        <ele>450.738229</ele>
        <time>2021-11-20T08:54:11.331Z</time>
      </trkpt>
      <trkpt lat="47.611933" lon="7.761457">
        <ele>451.731237</ele>
        <time>2021-11-20T08:54:31.735Z</time>
      </trkpt>
      <trkpt lat="47.612022" lon="7.761449">
        <ele>451.812825</ele>
        <time>2021-11-20T08:54:33.241Z</time>
      </trkpt>
      <trkpt lat="47.612075" lon="7.761435">
        <ele>451.862084</ele>
        <time>2021-11-20T08:54:34.028Z</time>
      </trkpt>
      <trkpt lat="47.612127" lon="7.761383">
        <ele>451.919469</ele>
        <time>2021-11-20T08:54:34.962Z</time>
      </trkpt>
      <trkpt lat="47.612441" lon="7.760890">
        <ele>452.019394</ele>
        <time>2021-11-20T08:54:41.706Z</time>
      </trkpt>
      <trkpt lat="47.612523" lon="7.760811">
        <ele>451.819553</ele>
        <time>2021-11-20T08:54:43.079Z</time>
      </trkpt>
      <trkpt lat="47.612630" lon="7.760759">
        <ele>451.589424</ele>
        <time>2021-11-20T08:54:44.562Z</time>
      </trkpt>
      <trkpt lat="47.612812" lon="7.760726">
        <ele>451.214675</ele>
        <time>2021-11-20T08:54:46.891Z</time>
      </trkpt>
      <trkpt lat="47.612960" lon="7.760706">
        <ele>450.910933</ele>
        <time>2021-11-20T08:54:48.691Z</time>
      </trkpt>
      <trkpt lat="47.613059" lon="7.760674">
        <ele>450.703845</ele>
        <time>2021-11-20T08:54:49.867Z</time>
      </trkpt>
      <trkpt lat="47.613148" lon="7.760607">
        <ele>450.499858</ele>
        <time>2021-11-20T08:54:50.941Z</time>
      </trkpt>
      <trkpt lat="47.613231" lon="7.760404">
        <ele>450.172737</ele>
        <time>2021-11-20T08:54:52.726Z</time>
      </trkpt>
      <trkpt lat="47.613222" lon="7.760189">
        <ele>449.875934</ele>
        <time>2021-11-20T08:54:54.348Z</time>
      </trkpt>
      <trkpt lat="47.613205" lon="7.760080">
        <ele>449.721785</ele>
        <time>2021-11-20T08:54:55.071Z</time>
      </trkpt>
      <trkpt lat="47.613053" lon="7.759623">
        <ele>449.019651</ele>
        <time>2021-11-20T08:54:58.520Z</time>
      </trkpt>
      <trkpt lat="47.612944" lon="7.759245">
        <ele>448.238338</ele>
        <time>2021-11-20T08:55:01.354Z</time>
      </trkpt>
      <trkpt lat="47.612830" lon="7.758759">
        <ele>446.144881</ele>
        <time>2021-11-20T08:55:04.687Z</time>
      </trkpt>
      <trkpt lat="47.612779" lon="7.758543">
        <ele>445.213792</ele>
        <time>2021-11-20T08:55:06.083Z</time>
      </trkpt>
      <trkpt lat="47.612718" lon="7.758199">
        <ele>443.766693</ele>
        <time>2021-11-20T08:55:08.380Z</time>
      </trkpt>
      <trkpt lat="47.612697" lon="7.758003">
        <ele>442.959300</ele>
        <time>2021-11-20T08:55:09.567Z</time>
      </trkpt>
      <trkpt lat="47.612671" lon="7.757751">
        <ele>441.922151</ele>
        <time>2021-11-20T08:55:11.163Z</time>
      </trkpt>
      <trkpt lat="47.612657" lon="7.757559">
        <ele>441.136482</ele>
        <time>2021-11-20T08:55:12.324Z</time>
      </trkpt>
      <trkpt lat="47.612654" lon="7.757180">
        <ele>439.594490</ele>
        <time>2021-11-20T08:55:14.586Z</time>
      </trkpt>
      <trkpt lat="47.612635" lon="7.756867">
        <ele>438.315960</ele>
        <time>2021-11-20T08:55:16.471Z</time>
      </trkpt>
      <trkpt lat="47.612595" lon="7.756458">
        <ele>436.324367</ele>
        <time>2021-11-20T08:55:18.934Z</time>
      </trkpt>
      <trkpt lat="47.612539" lon="7.756079">
        <ele>434.289972</ele>
        <time>2021-11-20T08:55:21.279Z</time>
      </trkpt>
      <trkpt lat="47.612503" lon="7.755886">
        <ele>433.239986</ele>
        <time>2021-11-20T08:55:22.475Z</time>
      </trkpt>
      <trkpt lat="47.612481" lon="7.755809">
        <ele>432.801485</ele>
        <time>2021-11-20T08:55:22.979Z</time>
      </trkpt>
      <trkpt lat="47.612451" lon="7.755754">
        <ele>432.430527</ele>
        <time>2021-11-20T08:55:23.400Z</time>
      </trkpt>
      <trkpt lat="47.612387" lon="7.755703">
        <ele>431.865467</ele>
        <time>2021-11-20T08:55:24.031Z</time>
      </trkpt>
      <trkpt lat="47.612248" lon="7.755635">
        <ele>430.727075</ele>
        <time>2021-11-20T08:55:25.315Z</time>
      </trkpt>
      <trkpt lat="47.612196" lon="7.755580">
        <ele>430.230344</ele>
        <time>2021-11-20T08:55:25.880Z</time>
      </trkpt>
      <trkpt lat="47.612172" lon="7.755521">
        <ele>429.869030</ele>
        <time>2021-11-20T08:55:26.292Z</time>
      </trkpt>
      <trkpt lat="47.612161" lon="7.755449">
        <ele>429.481934</ele>
        <time>2021-11-20T08:55:26.741Z</time>
      </trkpt>
      <trkpt lat="47.612159" lon="7.755380">
        <ele>429.119807</ele>
        <time>2021-11-20T08:55:27.155Z</time>
      </trkpt>
      <trkpt lat="47.612161" lon="7.755353">
        <ele>428.977384</ele>
        <time>2021-11-20T08:55:27.307Z</time>
      </trkpt>
      <trkpt lat="47.612192" lon="7.754954">
        <ele>426.871431</ele>
        <time>2021-11-20T08:55:29.727Z</time>
      </trkpt>
      <trkpt lat="47.612146" lon="7.754726">
        <ele>425.623554</ele>
        <time>2021-11-20T08:55:31.138Z</time>
      </trkpt>
      <trkpt lat="47.611848" lon="7.754391">
        <ele>422.866644</ele>
        <time>2021-11-20T08:55:34.461Z</time>
      </trkpt>
      <trkpt lat="47.611701" lon="7.754245">
        <ele>421.698027</ele>
        <time>2021-11-20T08:55:36.047Z</time>
      </trkpt>
      <trkpt lat="47.611506" lon="7.753985">
        <ele>419.966005</ele>
        <time>2021-11-20T08:55:38.397Z</time>
      </trkpt>
      <trkpt lat="47.611310" lon="7.753428">
        <ele>417.167937</ele>
        <time>2021-11-20T08:55:42.239Z</time>
      </trkpt>
      <trkpt lat="47.611269" lon="7.753071">
        <ele>415.555196</ele>
        <time>2021-11-20T08:55:44.474Z</time>
      </trkpt>
      <trkpt lat="47.611242" lon="7.752336">
        <ele>412.277145</ele>
        <time>2021-11-20T08:55:48.953Z</time>
      </trkpt>
      <trkpt lat="47.611288" lon="7.751378">
        <ele>409.577845</ele>
        <time>2021-11-20T08:55:55.034Z</time>
      </trkpt>
      <trkpt lat="47.611255" lon="7.751205">
        <ele>409.106346</ele>
        <time>2021-11-20T08:55:56.189Z</time>
      </trkpt>
      <trkpt lat="47.611197" lon="7.751064">
        <ele>408.673179</ele>
        <time>2021-11-20T08:55:57.276Z</time>
      </trkpt>
      <trkpt lat="47.611094" lon="7.750951">
        <ele>408.174828</ele>
        <time>2021-11-20T08:55:58.628Z</time>
      </trkpt>
      <trkpt lat="47.610714" lon="7.750722">
        <ele>406.579292</ele>
        <time>2021-11-20T08:56:02.757Z</time>
      </trkpt>
      <trkpt lat="47.610643" lon="7.750603">
        <ele>406.162551</ele>
        <time>2021-11-20T08:56:03.827Z</time>
      </trkpt>
      <trkpt lat="47.610520" lon="7.750319">
        <ele>405.277311</ele>
        <time>2021-11-20T08:56:06.271Z</time>
      </trkpt>
      <trkpt lat="47.610345" lon="7.749815">
        <ele>404.548633</ele>
        <time>2021-11-20T08:56:10.345Z</time>
      </trkpt>
      <trkpt lat="47.610303" lon="7.749507">
        <ele>404.319199</ele>
        <time>2021-11-20T08:56:12.641Z</time>
      </trkpt>
      <trkpt lat="47.610331" lon="7.749289">
        <ele>404.157167</ele>
        <time>2021-11-20T08:56:14.429Z</time>
      </trkpt>
      <trkpt lat="47.610399" lon="7.749144">
        <ele>404.028203</ele>
        <time>2021-11-20T08:56:15.966Z</time>
      </trkpt>
      <trkpt lat="47.610897" lon="7.748667">
        <ele>403.386193</ele>
        <time>2021-11-20T08:56:23.958Z</time>
      </trkpt>
      <trkpt lat="47.611024" lon="7.748403">
        <ele>403.149400</ele>
        <time>2021-11-20T08:56:27.233Z</time>
      </trkpt>
      <trkpt lat="47.611423" lon="7.747196">
        <ele>401.584010</ele>
        <time>2021-11-20T08:56:39.142Z</time>
      </trkpt>
      <trkpt lat="47.611508" lon="7.746851">
        <ele>401.099918</ele>
        <time>2021-11-20T08:56:41.803Z</time>
      </trkpt>
      <trkpt lat="47.611647" lon="7.746050">
        <ele>400.009862</ele>
        <time>2021-11-20T08:56:47.712Z</time>
      </trkpt>
      <trkpt lat="47.611691" lon="7.745486">
        <ele>399.166464</ele>
        <time>2021-11-20T08:56:51.505Z</time>
      </trkpt>
      <trkpt lat="47.611651" lon="7.745141">
        <ele>398.324716</ele>
        <time>2021-11-20T08:56:53.878Z</time>
      </trkpt>
      <trkpt lat="47.611609" lon="7.744853">
        <ele>397.616188</ele>
        <time>2021-11-20T08:56:55.790Z</time>
      </trkpt>
      <trkpt lat="47.611456" lon="7.744262">
        <ele>396.093917</ele>
        <time>2021-11-20T08:57:00.061Z</time>
      </trkpt>
      <trkpt lat="47.611241" lon="7.743837">
        <ele>394.816252</ele>
        <time>2021-11-20T08:57:03.631Z</time>
      </trkpt>
      <trkpt lat="47.611161" lon="7.743634">
        <ele>394.250841</ele>
        <time>2021-11-20T08:57:05.185Z</time>
      </trkpt>
      <trkpt lat="47.611010" lon="7.743033">
        <ele>392.765654</ele>
        <time>2021-11-20T08:57:09.420Z</time>
      </trkpt>
      <trkpt lat="47.610879" lon="7.741793">
        <ele>390.428147</ele>
        <time>2021-11-20T08:57:18.108Z</time>
      </trkpt>
      <trkpt lat="47.610871" lon="7.741420">
        <ele>389.733135</ele>
        <time>2021-11-20T08:57:20.876Z</time>
      </trkpt>
      <trkpt lat="47.610898" lon="7.741056">
        <ele>389.051145</ele>
        <time>2021-11-20T08:57:23.637Z</time>
      </trkpt>
      <trkpt lat="47.611129" lon="7.739819">
        <ele>386.802190</ele>
        <time>2021-11-20T08:57:32.690Z</time>
      </trkpt>
      <trkpt lat="47.611382" lon="7.739254">
        <ele>385.673190</ele>
        <time>2021-11-20T08:57:37.342Z</time>
      </trkpt>
      <trkpt lat="47.611618" lon="7.738936">
        <ele>384.885983</ele>
        <time>2021-11-20T08:57:40.684Z</time>
      </trkpt>
      <trkpt lat="47.611684" lon="7.738828">
        <ele>384.643351</ele>
        <time>2021-11-20T08:57:41.750Z</time>
      </trkpt>
      <trkpt lat="47.611751" lon="7.738698">
        <ele>384.370978</ele>
        <time>2021-11-20T08:57:42.965Z</time>
      </trkpt>
      <trkpt lat="47.611785" lon="7.738609">
        <ele>384.200707</ele>
        <time>2021-11-20T08:57:43.653Z</time>
      </trkpt>
      <trkpt lat="47.611872" lon="7.738156">
        <ele>383.556029</ele>
        <time>2021-11-20T08:57:47.249Z</time>
      </trkpt>
      <trkpt lat="47.611893" lon="7.737711">
        <ele>383.577942</ele>
        <time>2021-11-20T08:57:50.681Z</time>
      </trkpt>
      <trkpt lat="47.611965" lon="7.737457">
        <ele>383.591478</ele>
        <time>2021-11-20T08:57:52.873Z</time>
      </trkpt>
      <trkpt lat="47.612044" lon="7.737224">
        <ele>383.604289</ele>
        <time>2021-11-20T08:57:54.992Z</time>
      </trkpt>
      <trkpt lat="47.612194" lon="7.737048">
        <ele>383.618225</ele>
        <time>2021-11-20T08:57:57.957Z</time>
      </trkpt>
      <trkpt lat="47.612447" lon="7.736778">
        <ele>383.640936</ele>
        <time>2021-11-20T08:58:02.923Z</time>
      </trkpt>
      <trkpt lat="47.612712" lon="7.736151">
        <ele>383.677288</ele>
        <time>2021-11-20T08:58:13.284Z</time>
      </trkpt>
      <trkpt lat="47.613210" lon="7.735944">
        <ele>385.551556</ele>
        <time>2021-11-20T08:58:25.309Z</time>
      </trkpt>
      <trkpt lat="47.613317" lon="7.735838">
        <ele>386.101092</ele>
        <time>2021-11-20T08:58:29.196Z</time>
      </trkpt>
      <trkpt lat="47.613375" lon="7.735736">
        <ele>386.485294</ele>
        <time>2021-11-20T08:58:31.383Z</time>
      </trkpt>
      <trkpt lat="47.613434" lon="7.735397">
        <ele>387.493347</ele>
        <time>2021-11-20T08:58:38.595Z</time>
      </trkpt>
      <trkpt lat="47.613390" lon="7.735211">
        <ele>388.060893</ele>
        <time>2021-11-20T08:58:42.896Z</time>
      </trkpt>
      <trkpt lat="47.613181" lon="7.734997">
        <ele>389.145533</ele>
        <time>2021-11-20T08:58:53.038Z</time>
      </trkpt>
      <trkpt lat="47.612755" lon="7.734867">
        <ele>391.003076</ele>
        <time>2021-11-20T08:59:09.513Z</time>
      </trkpt>
      <trkpt lat="47.612618" lon="7.734756">
        <ele>391.827634</ele>
        <time>2021-11-20T08:59:16.390Z</time>
      </trkpt>
      <trkpt lat="47.612558" lon="7.734604">
        <ele>392.597488</ele>
        <time>2021-11-20T08:59:20.921Z</time>
      </trkpt>
      <trkpt lat="47.612560" lon="7.734334">
        <ele>393.777646</ele>
        <time>2021-11-20T08:59:28.658Z</time>
      </trkpt>
      <trkpt lat="47.612562" lon="7.734273">
        <ele>394.044573</ele>
        <time>2021-11-20T08:59:30.434Z</time>
      </trkpt>
      <trkpt lat="47.612580" lon="7.733842">
        <ele>395.931951</ele>
        <time>2021-11-20T08:59:40.211Z</time>
      </trkpt>
      <trkpt lat="47.612580" lon="7.733841">
        <ele>395.936322</ele>
        <time>2021-11-20T08:59:40.605Z</time>
      </trkpt>
      <trkpt lat="47.612582" lon="7.733083">
        <ele>399.249328</ele>
        <time>2021-11-20T09:00:00.966Z</time>
      </trkpt>
      <trkpt lat="47.612414" lon="7.731732">
        <ele>405.033531</ele>
        <time>2021-11-20T09:00:40.883Z</time>
      </trkpt>
      <trkpt lat="47.612490" lon="7.730332">
        <ele>410.565386</ele>
        <time>2021-11-20T09:01:15.609Z</time>
      </trkpt>
      <trkpt lat="47.612445" lon="7.730023">
        <ele>411.810479</ele>
        <time>2021-11-20T09:01:23.073Z</time>
      </trkpt>
      <trkpt lat="47.612234" lon="7.729223">
        <ele>414.731825</ele>
        <time>2021-11-20T09:01:45.065Z</time>
      </trkpt>
      <trkpt lat="47.612102" lon="7.728839">
        <ele>415.956733</ele>
        <time>2021-11-20T09:01:55.995Z</time>
      </trkpt>
      <trkpt lat="47.611794" lon="7.728207">
        <ele>418.172869</ele>
        <time>2021-11-20T09:02:13.573Z</time>
      </trkpt>
      <trkpt lat="47.611673" lon="7.727743">
        <ele>419.586667</ele>
        <time>2021-11-20T09:02:23.646Z</time>
      </trkpt>
      <trkpt lat="47.611558" lon="7.727374">
        <ele>420.741916</ele>
        <time>2021-11-20T09:02:31.650Z</time>
      </trkpt>
      <trkpt lat="47.611696" lon="7.727069">
        <ele>421.072081</ele>
        <time>2021-11-20T09:02:37.413Z</time>
      </trkpt>
      <trkpt lat="47.612294" lon="7.725494">
        <ele>420.730904</ele>
        <time>2021-11-20T09:02:56.729Z</time>
      </trkpt>
      <trkpt lat="47.612626" lon="7.724023">
        <ele>418.356987</ele>
        <time>2021-11-20T09:03:07.119Z</time>
      </trkpt>
      <trkpt lat="47.613151" lon="7.722474">
        <ele>414.134709</ele>
        <time>2021-11-20T09:03:18.621Z</time>
      </trkpt>
      <trkpt lat="47.613293" lon="7.722239">
        <ele>413.293756</ele>
        <time>2021-11-20T09:03:20.722Z</time>
      </trkpt>
      <trkpt lat="47.614307" lon="7.721193">
        <ele>408.400812</ele>
        <time>2021-11-20T09:03:32.960Z</time>
      </trkpt>
      <trkpt lat="47.614657" lon="7.720991">
        <ele>406.895188</ele>
        <time>2021-11-20T09:03:36.532Z</time>
      </trkpt>
      <trkpt lat="47.615110" lon="7.720843">
        <ele>404.631093</ele>
        <time>2021-11-20T09:03:40.940Z</time>
      </trkpt>
      <trkpt lat="47.615394" lon="7.720757">
        <ele>403.216295</ele>
        <time>2021-11-20T09:03:43.664Z</time>
      </trkpt>
      <trkpt lat="47.615630" lon="7.720579">
        <ele>401.924033</ele>
        <time>2021-11-20T09:03:46.150Z</time>
      </trkpt>
      <trkpt lat="47.615890" lon="7.720244">
        <ele>400.243115</ele>
        <time>2021-11-20T09:03:49.342Z</time>
      </trkpt>
      <trkpt lat="47.616298" lon="7.719670">
        <ele>397.836172</ele>
        <time>2021-11-20T09:03:54.571Z</time>
      </trkpt>
      <trkpt lat="47.617098" lon="7.718278">
        <ele>394.672002</ele>
        <time>2021-11-20T09:04:07.295Z</time>
      </trkpt>
      <trkpt lat="47.617269" lon="7.718018">
        <ele>394.043664</ele>
        <time>2021-11-20T09:04:10.572Z</time>
      </trkpt>
      <trkpt lat="47.617441" lon="7.717849">
        <ele>393.597632</ele>
        <time>2021-11-20T09:04:13.578Z</time>
      </trkpt>
      <trkpt lat="47.617832" lon="7.717579">
        <ele>393.634105</ele>
        <time>2021-11-20T09:04:20.543Z</time>
      </trkpt>
      <trkpt lat="47.618344" lon="7.717282">
        <ele>393.680597</ele>
        <time>2021-11-20T09:04:30.217Z</time>
      </trkpt>
      <trkpt lat="47.619037" lon="7.717037">
        <ele>393.740844</ele>
        <time>2021-11-20T09:04:42.318Z</time>
      </trkpt>
      <trkpt lat="47.619222" lon="7.716913">
        <ele>393.503699</ele>
        <time>2021-11-20T09:04:45.110Z</time>
      </trkpt>
      <trkpt lat="47.619370" lon="7.716703">
        <ele>393.118062</ele>
        <time>2021-11-20T09:04:47.525Z</time>
      </trkpt>
      <trkpt lat="47.620083" lon="7.715138">
        <ele>390.720489</ele>
        <time>2021-11-20T09:05:01.033Z</time>
      </trkpt>
      <trkpt lat="47.620154" lon="7.714902">
        <ele>390.392463</ele>
        <time>2021-11-20T09:05:02.756Z</time>
      </trkpt>
      <trkpt lat="47.620355" lon="7.714031">
        <ele>389.899310</ele>
        <time>2021-11-20T09:05:09.827Z</time>
      </trkpt>
      <trkpt lat="47.620562" lon="7.712881">
        <ele>389.286531</ele>
        <time>2021-11-20T09:05:20.017Z</time>
      </trkpt>
      <trkpt lat="47.620583" lon="7.712051">
        <ele>388.892344</ele>
        <time>2021-11-20T09:05:30.407Z</time>
      </trkpt>
      <trkpt lat="47.620668" lon="7.711439">
        <ele>388.654962</ele>
        <time>2021-11-20T09:05:38.392Z</time>
      </trkpt>
      <trkpt lat="47.620838" lon="7.710891">
        <ele>388.425788</ele>
        <time>2021-11-20T09:05:45.087Z</time>
      </trkpt>
      <trkpt lat="47.620944" lon="7.709648">
        <ele>387.752991</ele>
        <time>2021-11-20T09:05:55.016Z</time>
      </trkpt>
      <trkpt lat="47.621059" lon="7.709139">
        <ele>385.792697</ele>
        <time>2021-11-20T09:05:58.603Z</time>
      </trkpt>
      <trkpt lat="47.621330" lon="7.708277">
        <ele>382.319485</ele>
        <time>2021-11-20T09:06:04.614Z</time>
      </trkpt>
      <trkpt lat="47.621520" lon="7.707900">
        <ele>380.600576</ele>
        <time>2021-11-20T09:06:07.493Z</time>
      </trkpt>
      <trkpt lat="47.621593" lon="7.707590">
        <ele>379.401501</ele>
        <time>2021-11-20T09:06:09.472Z</time>
      </trkpt>
      <trkpt lat="47.621611" lon="7.706298">
        <ele>372.764053</ele>
        <time>2021-11-20T09:06:17.143Z</time>
      </trkpt>
      <trkpt lat="47.621789" lon="7.705094">
        <ele>365.827576</ele>
        <time>2021-11-20T09:06:24.427Z</time>
      </trkpt>
      <trkpt lat="47.621888" lon="7.704755">
        <ele>363.748522</ele>
        <time>2021-11-20T09:06:26.605Z</time>
      </trkpt>
      <trkpt lat="47.622344" lon="7.703662">
        <ele>356.925320</ele>
        <time>2021-11-20T09:06:34.166Z</time>
      </trkpt>
      <trkpt lat="47.622692" lon="7.702977">
        <ele>352.394112</ele>
        <time>2021-11-20T09:06:39.294Z</time>
      </trkpt>
      <trkpt lat="47.622874" lon="7.702287">
        <ele>348.729190</ele>
        <time>2021-11-20T09:06:43.785Z</time>
      </trkpt>
      <trkpt lat="47.622996" lon="7.702123">
        <ele>347.945069</ele>
        <time>2021-11-20T09:06:45.369Z</time>
      </trkpt>
      <trkpt lat="47.623108" lon="7.702060">
        <ele>347.374563</ele>
        <time>2021-11-20T09:06:46.415Z</time>
      </trkpt>
      <trkpt lat="47.623205" lon="7.702085">
        <ele>346.905635</ele>
        <time>2021-11-20T09:06:47.391Z</time>
      </trkpt>
      <trkpt lat="47.623513" lon="7.702279">
        <ele>345.311914</ele>
        <time>2021-11-20T09:06:50.523Z</time>
      </trkpt>
      <trkpt lat="47.623648" lon="7.702270">
        <ele>344.668263</ele>
        <time>2021-11-20T09:06:51.910Z</time>
      </trkpt>
      <trkpt lat="47.623958" lon="7.701951">
        <ele>342.871369</ele>
        <time>2021-11-20T09:06:55.563Z</time>
      </trkpt>
      <trkpt lat="47.624323" lon="7.701445">
        <ele>340.510959</ele>
        <time>2021-11-20T09:07:00.361Z</time>
      </trkpt>
      <trkpt lat="47.624857" lon="7.700230">
        <ele>337.419249</ele>
        <time>2021-11-20T09:07:10.647Z</time>
      </trkpt>
      <trkpt lat="47.625309" lon="7.699433">
        <ele>335.199088</ele>
        <time>2021-11-20T09:07:17.702Z</time>
      </trkpt>
      <trkpt lat="47.625461" lon="7.699273">
        <ele>334.613178</ele>
        <time>2021-11-20T09:07:19.552Z</time>
      </trkpt>
      <trkpt lat="47.626086" lon="7.698992">
        <ele>332.576529</ele>
        <time>2021-11-20T09:07:26.105Z</time>
      </trkpt>
      <trkpt lat="47.626452" lon="7.698602">
        <ele>331.171272</ele>
        <time>2021-11-20T09:07:30.662Z</time>
      </trkpt>
      <trkpt lat="47.627231" lon="7.697773">
        <ele>328.662511</ele>
        <time>2021-11-20T09:07:40.609Z</time>
      </trkpt>
      <trkpt lat="47.627884" lon="7.697343">
        <ele>327.436633</ele>
        <time>2021-11-20T09:07:48.460Z</time>
      </trkpt>
      <trkpt lat="47.628021" lon="7.697269">
        <ele>327.186461</ele>
        <time>2021-11-20T09:07:50.157Z</time>
      </trkpt>
      <trkpt lat="47.628516" lon="7.697169">
        <ele>326.329247</ele>
        <time>2021-11-20T09:07:58.862Z</time>
      </trkpt>
      <trkpt lat="47.629210" lon="7.696607">
        <ele>326.225834</ele>
        <time>2021-11-20T09:08:13.521Z</time>
      </trkpt>
      <trkpt lat="47.629568" lon="7.696115">
        <ele>326.268960</ele>
        <time>2021-11-20T09:08:24.197Z</time>
      </trkpt>
      <trkpt lat="47.629730" lon="7.695969">
        <ele>326.285712</ele>
        <time>2021-11-20T09:08:28.365Z</time>
      </trkpt>
      <trkpt lat="47.630492" lon="7.695689">
        <ele>325.767812</ele>
        <time>2021-11-20T09:08:47.686Z</time>
      </trkpt>
      <trkpt lat="47.630798" lon="7.695688">
        <ele>325.293509</ele>
        <time>2021-11-20T09:08:52.862Z</time>
      </trkpt>
      <trkpt lat="47.630920" lon="7.695687">
        <ele>325.104406</ele>
        <time>2021-11-20T09:08:54.929Z</time>
      </trkpt>
      <trkpt lat="47.631501" lon="7.695775">
        <ele>324.199174</ele>
        <time>2021-11-20T09:09:03.904Z</time>
      </trkpt>
      <trkpt lat="47.631816" lon="7.695863">
        <ele>323.702345</ele>
        <time>2021-11-20T09:09:08.759Z</time>
      </trkpt>
      <trkpt lat="47.631911" lon="7.695669">
        <ele>323.291997</ele>
        <time>2021-11-20T09:09:10.398Z</time>
      </trkpt>
      <trkpt lat="47.631973" lon="7.695502">
        <ele>322.712255</ele>
        <time>2021-11-20T09:09:11.890Z</time>
      </trkpt>
      <trkpt lat="47.631985" lon="7.695469">
        <ele>322.598239</ele>
        <time>2021-11-20T09:09:12.094Z</time>
      </trkpt>
      <trkpt lat="47.632076" lon="7.695243">
        <ele>321.797739</ele>
        <time>2021-11-20T09:09:13.905Z</time>
      </trkpt>
      <trkpt lat="47.632096" lon="7.695178">
        <ele>321.580473</ele>
        <time>2021-11-20T09:09:14.360Z</time>
      </trkpt>
      <trkpt lat="47.632164" lon="7.694950">
        <ele>320.822355</ele>
        <time>2021-11-20T09:09:15.955Z</time>
      </trkpt>
      <trkpt lat="47.632229" lon="7.694703">
        <ele>320.016095</ele>
        <time>2021-11-20T09:09:17.635Z</time>
      </trkpt>
      <trkpt lat="47.632297" lon="7.694443">
        <ele>319.168089</ele>
        <time>2021-11-20T09:09:19.405Z</time>
      </trkpt>
      <trkpt lat="47.632440" lon="7.693874">
        <ele>317.321597</ele>
        <time>2021-11-20T09:09:23.210Z</time>
      </trkpt>
      <trkpt lat="47.632526" lon="7.693622">
        <ele>316.462718</ele>
        <time>2021-11-20T09:09:24.934Z</time>
      </trkpt>
      <trkpt lat="47.632642" lon="7.693416">
        <ele>315.646467</ele>
        <time>2021-11-20T09:09:26.627Z</time>
      </trkpt>
      <trkpt lat="47.632763" lon="7.693227">
        <ele>315.062168</ele>
        <time>2021-11-20T09:09:28.301Z</time>
      </trkpt>
      <trkpt lat="47.632822" lon="7.693157">
        <ele>314.846766</ele>
        <time>2021-11-20T09:09:29.070Z</time>
      </trkpt>
      <trkpt lat="47.633091" lon="7.692798">
        <ele>313.815130</ele>
        <time>2021-11-20T09:09:32.822Z</time>
      </trkpt>
      <trkpt lat="47.633173" lon="7.692695">
        <ele>313.508785</ele>
        <time>2021-11-20T09:09:34.043Z</time>
      </trkpt>
      <trkpt lat="47.633202" lon="7.692660">
        <ele>313.402194</ele>
        <time>2021-11-20T09:09:34.411Z</time>
      </trkpt>
      <trkpt lat="47.633266" lon="7.692577">
        <ele>313.159825</ele>
        <time>2021-11-20T09:09:35.269Z</time>
      </trkpt>
      <trkpt lat="47.633399" lon="7.692413">
        <ele>312.666728</ele>
        <time>2021-11-20T09:09:37.097Z</time>
      </trkpt>
      <trkpt lat="47.633588" lon="7.692141">
        <ele>311.915973</ele>
        <time>2021-11-20T09:09:39.830Z</time>
      </trkpt>
      <trkpt lat="47.633548" lon="7.692076">
        <ele>311.746827</ele>
        <time>2021-11-20T09:09:40.471Z</time>
      </trkpt>
      <trkpt lat="47.633446" lon="7.691801">
        <ele>311.143640</ele>
        <time>2021-11-20T09:09:42.759Z</time>
      </trkpt>
      <trkpt lat="47.633168" lon="7.691051">
        <ele>310.046434</ele>
        <time>2021-11-20T09:09:49.198Z</time>
      </trkpt>
      <trkpt lat="47.633134" lon="7.690866">
        <ele>309.932644</ele>
        <time>2021-11-20T09:09:50.752Z</time>
      </trkpt>
      <trkpt lat="47.633123" lon="7.690653">
        <ele>309.805877</ele>
        <time>2021-11-20T09:09:52.521Z</time>
      </trkpt>
      <trkpt lat="47.633120" lon="7.690596">
        <ele>309.771950</ele>
        <time>2021-11-20T09:09:52.938Z</time>
      </trkpt>
      <trkpt lat="47.633090" lon="7.690331">
        <ele>309.612492</ele>
        <time>2021-11-20T09:09:55.287Z</time>
      </trkpt>
      <trkpt lat="47.633034" lon="7.690065">
        <ele>309.447121</ele>
        <time>2021-11-20T09:09:57.642Z</time>
      </trkpt>
      <trkpt lat="47.632964" lon="7.689905">
        <ele>309.333921</ele>
        <time>2021-11-20T09:09:59.430Z</time>
      </trkpt>
      <trkpt lat="47.632879" lon="7.689719">
        <ele>309.200560</ele>
        <time>2021-11-20T09:10:01.634Z</time>
      </trkpt>
      <trkpt lat="47.632643" lon="7.689293">
        <ele>308.873307</ele>
        <time>2021-11-20T09:10:06.718Z</time>
      </trkpt>
      <trkpt lat="47.632379" lon="7.688829">
        <ele>308.701147</ele>
        <time>2021-11-20T09:10:12.053Z</time>
      </trkpt>
      <trkpt lat="47.632137" lon="7.688381">
        <ele>308.690487</ele>
        <time>2021-11-20T09:10:17.277Z</time>
      </trkpt>
      <trkpt lat="47.632006" lon="7.688132">
        <ele>308.684622</ele>
        <time>2021-11-20T09:10:20.206Z</time>
      </trkpt>
      <trkpt lat="47.631926" lon="7.687942">
        <ele>308.680463</ele>
        <time>2021-11-20T09:10:22.618Z</time>
      </trkpt>
      <trkpt lat="47.631844" lon="7.687700">
        <ele>308.675434</ele>
        <time>2021-11-20T09:10:25.451Z</time>
      </trkpt>
      <trkpt lat="47.631760" lon="7.687488">
        <ele>308.670868</ele>
        <time>2021-11-20T09:10:28.170Z</time>
      </trkpt>
      <trkpt lat="47.631713" lon="7.687383">
        <ele>308.668528</ele>
        <time>2021-11-20T09:10:29.740Z</time>
      </trkpt>
      <trkpt lat="47.631655" lon="7.687264">
        <ele>308.665801</ele>
        <time>2021-11-20T09:10:31.351Z</time>
      </trkpt>
      <trkpt lat="47.631631" lon="7.687221">
        <ele>308.664765</ele>
        <time>2021-11-20T09:10:31.900Z</time>
      </trkpt>
      <trkpt lat="47.631536" lon="7.687074">
        <ele>308.660983</ele>
        <time>2021-11-20T09:10:34.255Z</time>
      </trkpt>
      <trkpt lat="47.631402" lon="7.686886">
        <ele>308.677191</ele>
        <time>2021-11-20T09:10:37.224Z</time>
      </trkpt>
      <trkpt lat="47.631363" lon="7.686832">
        <ele>308.693401</ele>
        <time>2021-11-20T09:10:37.987Z</time>
      </trkpt>
      <trkpt lat="47.631303" lon="7.686748">
        <ele>308.718469</ele>
        <time>2021-11-20T09:10:39.326Z</time>
      </trkpt>
      <trkpt lat="47.631278" lon="7.686713">
        <ele>308.728914</ele>
        <time>2021-11-20T09:10:39.832Z</time>
      </trkpt>
      <trkpt lat="47.631216" lon="7.686627">
        <ele>308.754706</ele>
        <time>2021-11-20T09:10:41.221Z</time>
      </trkpt>
      <trkpt lat="47.630927" lon="7.686060">
        <ele>308.900298</ele>
        <time>2021-11-20T09:10:47.887Z</time>
      </trkpt>
      <trkpt lat="47.630747" lon="7.685457">
        <ele>309.035364</ele>
        <time>2021-11-20T09:10:54.149Z</time>
      </trkpt>
      <trkpt lat="47.630549" lon="7.684835">
        <ele>309.176244</ele>
        <time>2021-11-20T09:11:02.084Z</time>
      </trkpt>
      <trkpt lat="47.630471" lon="7.684617">
        <ele>309.357625</ele>
        <time>2021-11-20T09:11:04.875Z</time>
      </trkpt>
      <trkpt lat="47.630348" lon="7.684274">
        <ele>309.899489</ele>
        <time>2021-11-20T09:11:10.601Z</time>
      </trkpt>
      <trkpt lat="47.630302" lon="7.684172">
        <ele>310.070654</ele>
        <time>2021-11-20T09:11:12.294Z</time>
      </trkpt>
      <trkpt lat="47.630200" lon="7.683945">
        <ele>310.451153</ele>
        <time>2021-11-20T09:11:16.966Z</time>
      </trkpt>
      <trkpt lat="47.630114" lon="7.683752">
        <ele>310.773834</ele>
        <time>2021-11-20T09:11:20.587Z</time>
      </trkpt>
      <trkpt lat="47.629964" lon="7.683492">
        <ele>311.251161</ele>
        <time>2021-11-20T09:11:26.253Z</time>
      </trkpt>
      <trkpt lat="47.629502" lon="7.682853">
        <ele>312.558177</ele>
        <time>2021-11-20T09:11:43.163Z</time>
      </trkpt>
      <trkpt lat="47.629225" lon="7.682524">
        <ele>312.997657</ele>
        <time>2021-11-20T09:11:51.793Z</time>
      </trkpt>
      <trkpt lat="47.629074" lon="7.682346">
        <ele>313.075286</ele>
        <time>2021-11-20T09:11:55.235Z</time>
      </trkpt>
      <trkpt lat="47.629021" lon="7.682285">
        <ele>313.102286</ele>
        <time>2021-11-20T09:11:56.339Z</time>
      </trkpt>
      <trkpt lat="47.628926" lon="7.682175">
        <ele>313.150792</ele>
        <time>2021-11-20T09:11:58.979Z</time>
      </trkpt>
      <trkpt lat="47.628800" lon="7.682032">
        <ele>313.214646</ele>
        <time>2021-11-20T09:12:02.318Z</time>
      </trkpt>
      <trkpt lat="47.628745" lon="7.681969">
        <ele>313.242615</ele>
        <time>2021-11-20T09:12:03.228Z</time>
      </trkpt>
      <trkpt lat="47.628705" lon="7.681923">
        <ele>313.262986</ele>
        <time>2021-11-20T09:12:04.477Z</time>
      </trkpt>
      <trkpt lat="47.628589" lon="7.681765">
        <ele>313.326370</ele>
        <time>2021-11-20T09:12:07.269Z</time>
      </trkpt>
      <trkpt lat="47.628285" lon="7.681330">
        <ele>313.496372</ele>
        <time>2021-11-20T09:12:13.947Z</time>
      </trkpt>
      <trkpt lat="47.628181" lon="7.681165">
        <ele>313.557660</ele>
        <time>2021-11-20T09:12:15.939Z</time>
      </trkpt>
      <trkpt lat="47.628138" lon="7.681041">
        <ele>313.595491</ele>
        <time>2021-11-20T09:12:16.948Z</time>
      </trkpt>
      <trkpt lat="47.628093" lon="7.680912">
        <ele>313.634897</ele>
        <time>2021-11-20T09:12:18.391Z</time>
      </trkpt>
      <trkpt lat="47.628083" lon="7.680843">
        <ele>313.623721</ele>
        <time>2021-11-20T09:12:18.855Z</time>
      </trkpt>
      <trkpt lat="47.628092" lon="7.680801">
        <ele>313.533648</ele>
        <time>2021-11-20T09:12:19.155Z</time>
      </trkpt>
      <trkpt lat="47.628094" lon="7.680756">
        <ele>313.441477</ele>
        <time>2021-11-20T09:12:19.471Z</time>
      </trkpt>
      <trkpt lat="47.628088" lon="7.680711">
        <ele>313.347724</ele>
        <time>2021-11-20T09:12:19.863Z</time>
      </trkpt>
      <trkpt lat="47.628030" lon="7.680605">
        <ele>313.068669</ele>
        <time>2021-11-20T09:12:21.004Z</time>
      </trkpt>
      <trkpt lat="47.628001" lon="7.680587">
        <ele>312.973339</ele>
        <time>2021-11-20T09:12:21.289Z</time>
      </trkpt>
      <trkpt lat="47.627968" lon="7.680581">
        <ele>312.872515</ele>
        <time>2021-11-20T09:12:21.665Z</time>
      </trkpt>
      <trkpt lat="47.627935" lon="7.680589">
        <ele>312.771112</ele>
        <time>2021-11-20T09:12:22.028Z</time>
      </trkpt>
      <trkpt lat="47.627905" lon="7.680608">
        <ele>312.672194</ele>
        <time>2021-11-20T09:12:22.407Z</time>
      </trkpt>
      <trkpt lat="47.627860" lon="7.680600">
        <ele>312.534750</ele>
        <time>2021-11-20T09:12:22.825Z</time>
      </trkpt>
      <trkpt lat="47.627797" lon="7.680564">
        <ele>312.330019</ele>
        <time>2021-11-20T09:12:23.468Z</time>
      </trkpt>
      <trkpt lat="47.627709" lon="7.680520">
        <ele>312.048405</ele>
        <time>2021-11-20T09:12:24.617Z</time>
      </trkpt>
      <trkpt lat="47.627657" lon="7.680455">
        <ele>311.842211</ele>
        <time>2021-11-20T09:12:25.265Z</time>
      </trkpt>
      <trkpt lat="47.627438" lon="7.680175">
        <ele>310.965528</ele>
        <time>2021-11-20T09:12:28.074Z</time>
      </trkpt>
      <trkpt lat="47.627263" lon="7.679924">
        <ele>310.227412</ele>
        <time>2021-11-20T09:12:30.400Z</time>
      </trkpt>
      <trkpt lat="47.626895" lon="7.679366">
        <ele>308.631763</ele>
        <time>2021-11-20T09:12:35.670Z</time>
      </trkpt>
      <trkpt lat="47.626749" lon="7.679157">
        <ele>308.083284</ele>
        <time>2021-11-20T09:12:37.822Z</time>
      </trkpt>
      <trkpt lat="47.626628" lon="7.678990">
        <ele>307.768607</ele>
        <time>2021-11-20T09:12:39.788Z</time>
      </trkpt>
      <trkpt lat="47.626529" lon="7.678853">
        <ele>307.510826</ele>
        <time>2021-11-20T09:12:41.143Z</time>
      </trkpt>
      <trkpt lat="47.626402" lon="7.678661">
        <ele>307.165573</ele>
        <time>2021-11-20T09:12:43.130Z</time>
      </trkpt>
      <trkpt lat="47.626380" lon="7.678630">
        <ele>307.107799</ele>
        <time>2021-11-20T09:12:43.555Z</time>
      </trkpt>
      <trkpt lat="47.625998" lon="7.678087">
        <ele>306.100453</ele>
        <time>2021-11-20T09:12:49.209Z</time>
      </trkpt>
      <trkpt lat="47.625936" lon="7.678008">
        <ele>305.944833</ele>
        <time>2021-11-20T09:12:50.129Z</time>
      </trkpt>
      <trkpt lat="47.625812" lon="7.677851">
        <ele>305.634428</ele>
        <time>2021-11-20T09:12:52.076Z</time>
      </trkpt>
      <trkpt lat="47.625653" lon="7.677673">
        <ele>305.255146</ele>
        <time>2021-11-20T09:12:54.243Z</time>
      </trkpt>
      <trkpt lat="47.625095" lon="7.677184">
        <ele>304.385904</ele>
        <time>2021-11-20T09:13:02.713Z</time>
      </trkpt>
      <trkpt lat="47.624807" lon="7.676975">
        <ele>304.072421</ele>
        <time>2021-11-20T09:13:06.783Z</time>
      </trkpt>
      <trkpt lat="47.624714" lon="7.676908">
        <ele>303.971334</ele>
        <time>2021-11-20T09:13:08.169Z</time>
      </trkpt>
      <trkpt lat="47.624516" lon="7.676765">
        <ele>303.756013</ele>
        <time>2021-11-20T09:13:10.828Z</time>
      </trkpt>
      <trkpt lat="47.624297" lon="7.676607">
        <ele>303.517903</ele>
        <time>2021-11-20T09:13:13.712Z</time>
      </trkpt>
      <trkpt lat="47.624001" lon="7.676393">
        <ele>303.195944</ele>
        <time>2021-11-20T09:13:17.654Z</time>
      </trkpt>
      <trkpt lat="47.623761" lon="7.676203">
        <ele>302.934760</ele>
        <time>2021-11-20T09:13:20.931Z</time>
      </trkpt>
      <trkpt lat="47.623580" lon="7.676054">
        <ele>302.744177</ele>
        <time>2021-11-20T09:13:23.393Z</time>
      </trkpt>
      <trkpt lat="47.623515" lon="7.675999">
        <ele>302.675281</ele>
        <time>2021-11-20T09:13:24.267Z</time>
      </trkpt>
      <trkpt lat="47.623419" lon="7.675918">
        <ele>302.573599</ele>
        <time>2021-11-20T09:13:25.717Z</time>
      </trkpt>
      <trkpt lat="47.623262" lon="7.675787">
        <ele>302.407754</ele>
        <time>2021-11-20T09:13:27.914Z</time>
      </trkpt>
      <trkpt lat="47.623130" lon="7.675680">
        <ele>302.269262</ele>
        <time>2021-11-20T09:13:29.835Z</time>
      </trkpt>
      <trkpt lat="47.622947" lon="7.675522">
        <ele>302.074318</ele>
        <time>2021-11-20T09:13:32.439Z</time>
      </trkpt>
      <trkpt lat="47.622868" lon="7.675447">
        <ele>301.987964</ele>
        <time>2021-11-20T09:13:33.616Z</time>
      </trkpt>
      <trkpt lat="47.622802" lon="7.675385">
        <ele>301.916040</ele>
        <time>2021-11-20T09:13:34.646Z</time>
      </trkpt>
      <trkpt lat="47.622703" lon="7.675292">
        <ele>301.808154</ele>
        <time>2021-11-20T09:13:36.077Z</time>
      </trkpt>
      <trkpt lat="47.622655" lon="7.675244">
        <ele>301.754858</ele>
        <time>2021-11-20T09:13:36.779Z</time>
      </trkpt>
      <trkpt lat="47.622655" lon="7.675244">
        <ele>301.754858</ele>
        <time>2021-11-20T09:13:36.780Z</time>
      </trkpt>
      <trkpt lat="47.622571" lon="7.675156">
        <ele>301.660180</ele>
        <time>2021-11-20T09:13:38.046Z</time>
      </trkpt>
      <trkpt lat="47.622559" lon="7.675142">
        <ele>301.646125</ele>
        <time>2021-11-20T09:13:38.249Z</time>
      </trkpt>
      <trkpt lat="47.622475" lon="7.675050">
        <ele>301.549993</ele>
        <time>2021-11-20T09:13:39.563Z</time>
      </trkpt>
      <trkpt lat="47.622300" lon="7.674850">
        <ele>301.352031</ele>
        <time>2021-11-20T09:13:42.236Z</time>
      </trkpt>
      <trkpt lat="47.622083" lon="7.674597">
        <ele>301.241809</ele>
        <time>2021-11-20T09:13:45.812Z</time>
      </trkpt>
      <trkpt lat="47.621973" lon="7.674471">
        <ele>301.186309</ele>
        <time>2021-11-20T09:13:47.666Z</time>
      </trkpt>
      <trkpt lat="47.621734" lon="7.674211">
        <ele>301.067949</ele>
        <time>2021-11-20T09:13:51.700Z</time>
      </trkpt>
      <trkpt lat="47.621516" lon="7.673947">
        <ele>300.955564</ele>
        <time>2021-11-20T09:13:55.619Z</time>
      </trkpt>
      <trkpt lat="47.621491" lon="7.673917">
        <ele>300.942722</ele>
        <time>2021-11-20T09:13:56.083Z</time>
      </trkpt>
      <trkpt lat="47.621262" lon="7.673623">
        <ele>300.821777</ele>
        <time>2021-11-20T09:14:00.394Z</time>
      </trkpt>
      <trkpt lat="47.621214" lon="7.673557">
        <ele>300.795641</ele>
        <time>2021-11-20T09:14:01.324Z</time>
      </trkpt>
      <trkpt lat="47.620997" lon="7.673228">
        <ele>300.671729</ele>
        <time>2021-11-20T09:14:05.794Z</time>
      </trkpt>
      <trkpt lat="47.620916" lon="7.673105">
        <ele>300.618766</ele>
        <time>2021-11-20T09:14:07.451Z</time>
      </trkpt>
      <trkpt lat="47.620464" lon="7.672371">
        <ele>300.207304</ele>
        <time>2021-11-20T09:14:16.298Z</time>
      </trkpt>
      <trkpt lat="47.620167" lon="7.671976">
        <ele>299.962398</ele>
        <time>2021-11-20T09:14:21.266Z</time>
      </trkpt>
      <trkpt lat="47.620025" lon="7.671810">
        <ele>299.851395</ele>
        <time>2021-11-20T09:14:23.483Z</time>
      </trkpt>
      <trkpt lat="47.619893" lon="7.671674">
        <ele>299.752720</ele>
        <time>2021-11-20T09:14:25.526Z</time>
      </trkpt>
      <trkpt lat="47.619773" lon="7.671561">
        <ele>299.665450</ele>
        <time>2021-11-20T09:14:27.287Z</time>
      </trkpt>
      <trkpt lat="47.619708" lon="7.671503">
        <ele>299.618878</ele>
        <time>2021-11-20T09:14:28.277Z</time>
      </trkpt>
      <trkpt lat="47.619553" lon="7.671367">
        <ele>299.517137</ele>
        <time>2021-11-20T09:14:30.683Z</time>
      </trkpt>
      <trkpt lat="47.619506" lon="7.671328">
        <ele>299.495666</ele>
        <time>2021-11-20T09:14:31.308Z</time>
      </trkpt>
      <trkpt lat="47.619107" lon="7.671001">
        <ele>299.313927</ele>
        <time>2021-11-20T09:14:37.482Z</time>
      </trkpt>
      <trkpt lat="47.618999" lon="7.670916">
        <ele>299.265184</ele>
        <time>2021-11-20T09:14:39.184Z</time>
      </trkpt>
      <trkpt lat="47.618817" lon="7.670768">
        <ele>299.182436</ele>
        <time>2021-11-20T09:14:42.021Z</time>
      </trkpt>
      <trkpt lat="47.618553" lon="7.670552">
        <ele>299.062234</ele>
        <time>2021-11-20T09:14:46.119Z</time>
      </trkpt>
      <trkpt lat="47.617447" lon="7.669640">
        <ele>298.691155</ele>
        <time>2021-11-20T09:15:03.614Z</time>
      </trkpt>
      <trkpt lat="47.617172" lon="7.669395">
        <ele>298.629235</ele>
        <time>2021-11-20T09:15:08.443Z</time>
      </trkpt>
      <trkpt lat="47.617124" lon="7.669350">
        <ele>298.618275</ele>
        <time>2021-11-20T09:15:09.198Z</time>
      </trkpt>
      <trkpt lat="47.616952" lon="7.669189">
        <ele>298.579017</ele>
        <time>2021-11-20T09:15:12.291Z</time>
      </trkpt>
      <trkpt lat="47.616909" lon="7.669149">
        <ele>298.569220</ele>
        <time>2021-11-20T09:15:12.949Z</time>
      </trkpt>
      <trkpt lat="47.616826" lon="7.669068">
        <ele>298.550043</ele>
        <time>2021-11-20T09:15:14.304Z</time>
      </trkpt>
      <trkpt lat="47.616672" lon="7.668910">
        <ele>298.513900</ele>
        <time>2021-11-20T09:15:17.008Z</time>
      </trkpt>
      <trkpt lat="47.616431" lon="7.668644">
        <ele>298.444232</ele>
        <time>2021-11-20T09:15:21.139Z</time>
      </trkpt>
      <trkpt lat="47.616276" lon="7.668438">
        <ele>298.368682</ele>
        <time>2021-11-20T09:15:23.978Z</time>
      </trkpt>
      <trkpt lat="47.616136" lon="7.668205">
        <ele>298.292299</ele>
        <time>2021-11-20T09:15:26.854Z</time>
      </trkpt>
      <trkpt lat="47.615885" lon="7.667765">
        <ele>298.151240</ele>
        <time>2021-11-20T09:15:32.111Z</time>
      </trkpt>
      <trkpt lat="47.615626" lon="7.667312">
        <ele>298.005877</ele>
        <time>2021-11-20T09:15:37.530Z</time>
      </trkpt>
      <trkpt lat="47.615419" lon="7.666959">
        <ele>297.891378</ele>
        <time>2021-11-20T09:15:41.803Z</time>
      </trkpt>
      <trkpt lat="47.615411" lon="7.666948">
        <ele>297.887418</ele>
        <time>2021-11-20T09:15:42.010Z</time>
      </trkpt>
      <trkpt lat="47.615325" lon="7.666835">
        <ele>297.845711</ele>
        <time>2021-11-20T09:15:43.523Z</time>
      </trkpt>
      <trkpt lat="47.615228" lon="7.666743">
        <ele>297.807130</ele>
        <time>2021-11-20T09:15:45.050Z</time>
      </trkpt>
      <trkpt lat="47.614785" lon="7.666441">
        <ele>297.676414</ele>
        <time>2021-11-20T09:15:51.687Z</time>
      </trkpt>
      <trkpt lat="47.614712" lon="7.666390">
        <ele>297.654779</ele>
        <time>2021-11-20T09:15:52.763Z</time>
      </trkpt>
      <trkpt lat="47.614013" lon="7.665917">
        <ele>297.448789</ele>
        <time>2021-11-20T09:16:03.534Z</time>
      </trkpt>
      <trkpt lat="47.613722" lon="7.665706">
        <ele>297.361946</ele>
        <time>2021-11-20T09:16:08.035Z</time>
      </trkpt>
      <trkpt lat="47.613539" lon="7.665576">
        <ele>297.333077</ele>
        <time>2021-11-20T09:16:10.925Z</time>
      </trkpt>
      <trkpt lat="47.612606" lon="7.664924">
        <ele>297.323724</ele>
        <time>2021-11-20T09:16:25.848Z</time>
      </trkpt>
      <trkpt lat="47.612536" lon="7.664871">
        <ele>297.323012</ele>
        <time>2021-11-20T09:16:27.066Z</time>
      </trkpt>
      <trkpt lat="47.612247" lon="7.664612">
        <ele>297.319950</ele>
        <time>2021-11-20T09:16:32.368Z</time>
      </trkpt>
      <trkpt lat="47.611599" lon="7.664012">
        <ele>297.236828</ele>
        <time>2021-11-20T09:16:44.232Z</time>
      </trkpt>
      <trkpt lat="47.611433" lon="7.663859">
        <ele>297.205937</ele>
        <time>2021-11-20T09:16:47.263Z</time>
      </trkpt>
      <trkpt lat="47.611165" lon="7.663611">
        <ele>297.156009</ele>
        <time>2021-11-20T09:16:51.984Z</time>
      </trkpt>
      <trkpt lat="47.611024" lon="7.663484">
        <ele>297.129936</ele>
        <time>2021-11-20T09:16:54.252Z</time>
      </trkpt>
      <trkpt lat="47.610806" lon="7.663293">
        <ele>297.089916</ele>
        <time>2021-11-20T09:16:57.765Z</time>
      </trkpt>
      <trkpt lat="47.610579" lon="7.663127">
        <ele>297.049912</ele>
        <time>2021-11-20T09:17:01.135Z</time>
      </trkpt>
      <trkpt lat="47.609963" lon="7.662702">
        <ele>296.388027</ele>
        <time>2021-11-20T09:17:09.732Z</time>
      </trkpt>
      <trkpt lat="47.609915" lon="7.662668">
        <ele>296.328294</ele>
        <time>2021-11-20T09:17:10.383Z</time>
      </trkpt>
      <trkpt lat="47.609113" lon="7.662130">
        <ele>295.339850</ele>
        <time>2021-11-20T09:17:20.780Z</time>
      </trkpt>
      <trkpt lat="47.608917" lon="7.661990">
        <ele>295.095557</ele>
        <time>2021-11-20T09:17:23.259Z</time>
      </trkpt>
      <trkpt lat="47.608741" lon="7.661878">
        <ele>294.858850</ele>
        <time>2021-11-20T09:17:25.453Z</time>
      </trkpt>
      <trkpt lat="47.608437" lon="7.661667">
        <ele>294.420631</ele>
        <time>2021-11-20T09:17:29.275Z</time>
      </trkpt>
      <trkpt lat="47.608133" lon="7.661491">
        <ele>293.994553</ele>
        <time>2021-11-20T09:17:33.001Z</time>
      </trkpt>
      <trkpt lat="47.607940" lon="7.661391">
        <ele>293.727633</ele>
        <time>2021-11-20T09:17:35.350Z</time>
      </trkpt>
      <trkpt lat="47.607741" lon="7.661304">
        <ele>293.456760</ele>
        <time>2021-11-20T09:17:37.776Z</time>
      </trkpt>
      <trkpt lat="47.606942" lon="7.661047">
        <ele>292.591534</ele>
        <time>2021-11-20T09:17:47.798Z</time>
      </trkpt>
      <trkpt lat="47.606818" lon="7.661012">
        <ele>292.547543</ele>
        <time>2021-11-20T09:17:49.403Z</time>
      </trkpt>
      <trkpt lat="47.606614" lon="7.660942">
        <ele>292.474569</ele>
        <time>2021-11-20T09:17:52.151Z</time>
      </trkpt>
      <trkpt lat="47.606500" lon="7.660902">
        <ele>292.433743</ele>
        <time>2021-11-20T09:17:53.652Z</time>
      </trkpt>
      <trkpt lat="47.606204" lon="7.660795">
        <ele>292.327564</ele>
        <time>2021-11-20T09:17:57.881Z</time>
      </trkpt>
      <trkpt lat="47.605816" lon="7.660661">
        <ele>292.188725</ele>
        <time>2021-11-20T09:18:03.657Z</time>
      </trkpt>
      <trkpt lat="47.604904" lon="7.660362">
        <ele>291.933896</ele>
        <time>2021-11-20T09:18:17.942Z</time>
      </trkpt>
      <trkpt lat="47.603636" lon="7.659974">
        <ele>291.664815</ele>
        <time>2021-11-20T09:18:35.885Z</time>
      </trkpt>
      <trkpt lat="47.603051" lon="7.659788">
        <ele>291.187778</ele>
        <time>2021-11-20T09:18:43.524Z</time>
      </trkpt>
      <trkpt lat="47.602311" lon="7.659552">
        <ele>290.583159</ele>
        <time>2021-11-20T09:18:53.039Z</time>
      </trkpt>
      <trkpt lat="47.602207" lon="7.659525">
        <ele>290.498822</ele>
        <time>2021-11-20T09:18:54.361Z</time>
      </trkpt>
      <trkpt lat="47.601988" lon="7.659456">
        <ele>290.319982</ele>
        <time>2021-11-20T09:18:57.061Z</time>
      </trkpt>
      <trkpt lat="47.601444" lon="7.659285">
        <ele>289.679157</ele>
        <time>2021-11-20T09:19:03.839Z</time>
      </trkpt>
      <trkpt lat="47.600680" lon="7.659045">
        <ele>288.706851</ele>
        <time>2021-11-20T09:19:13.087Z</time>
      </trkpt>
      <trkpt lat="47.600599" lon="7.659019">
        <ele>288.603669</ele>
        <time>2021-11-20T09:19:14.078Z</time>
      </trkpt>
      <trkpt lat="47.600619" lon="7.658907">
        <ele>288.506402</ele>
        <time>2021-11-20T09:19:15.478Z</time>
      </trkpt>
      <trkpt lat="47.600637" lon="7.658789">
        <ele>288.404836</ele>
        <time>2021-11-20T09:19:16.884Z</time>
      </trkpt>
      <trkpt lat="47.600640" lon="7.658769">
        <ele>288.387635</ele>
        <time>2021-11-20T09:19:17.100Z</time>
      </trkpt>
      <trkpt lat="47.600706" lon="7.658386">
        <ele>288.055767</ele>
        <time>2021-11-20T09:19:20.191Z</time>
      </trkpt>
      <trkpt lat="47.600457" lon="7.658210">
        <ele>287.717143</ele>
        <time>2021-11-20T09:19:23.298Z</time>
      </trkpt>
      <trkpt lat="47.600347" lon="7.658109">
        <ele>287.558866</ele>
        <time>2021-11-20T09:19:24.796Z</time>
      </trkpt>
      <trkpt lat="47.600237" lon="7.657982">
        <ele>287.388321</ele>
        <time>2021-11-20T09:19:26.304Z</time>
      </trkpt>
      <trkpt lat="47.600024" lon="7.657710">
        <ele>287.044446</ele>
        <time>2021-11-20T09:19:29.462Z</time>
      </trkpt>
      <trkpt lat="47.599730" lon="7.657334">
        <ele>286.569498</ele>
        <time>2021-11-20T09:19:33.862Z</time>
      </trkpt>
      <trkpt lat="47.599571" lon="7.657123">
        <ele>286.308471</ele>
        <time>2021-11-20T09:19:36.521Z</time>
      </trkpt>
      <trkpt lat="47.599337" lon="7.656839">
        <ele>285.938551</ele>
        <time>2021-11-20T09:19:40.388Z</time>
      </trkpt>
      <trkpt lat="47.599249" lon="7.656747">
        <ele>285.806831</ele>
        <time>2021-11-20T09:19:41.958Z</time>
      </trkpt>
      <trkpt lat="47.599155" lon="7.656670">
        <ele>285.780530</ele>
        <time>2021-11-20T09:19:43.277Z</time>
      </trkpt>
      <trkpt lat="47.598889" lon="7.656503">
        <ele>285.757169</ele>
        <time>2021-11-20T09:19:47.594Z</time>
      </trkpt>
      <trkpt lat="47.598785" lon="7.656466">
        <ele>285.748519</ele>
        <time>2021-11-20T09:19:49.010Z</time>
      </trkpt>
      <trkpt lat="47.598761" lon="7.656462">
        <ele>285.746566</ele>
        <time>2021-11-20T09:19:49.530Z</time>
      </trkpt>
      <trkpt lat="47.598548" lon="7.656425">
        <ele>285.729222</ele>
        <time>2021-11-20T09:19:52.790Z</time>
      </trkpt>
      <trkpt lat="47.598449" lon="7.656408">
        <ele>285.721162</ele>
        <time>2021-11-20T09:19:54.676Z</time>
      </trkpt>
      <trkpt lat="47.598238" lon="7.656377">
        <ele>285.704013</ele>
        <time>2021-11-20T09:19:58.029Z</time>
      </trkpt>
      <trkpt lat="47.597885" lon="7.656326">
        <ele>285.675329</ele>
        <time>2021-11-20T09:20:03.397Z</time>
      </trkpt>
      <trkpt lat="47.597491" lon="7.656278">
        <ele>285.643357</ele>
        <time>2021-11-20T09:20:09.499Z</time>
      </trkpt>
      <trkpt lat="47.597222" lon="7.656232">
        <ele>285.460286</ele>
        <time>2021-11-20T09:20:13.580Z</time>
      </trkpt>
      <trkpt lat="47.596976" lon="7.656181">
        <ele>285.286348</ele>
        <time>2021-11-20T09:20:17.137Z</time>
      </trkpt>
      <trkpt lat="47.596750" lon="7.656124">
        <ele>285.125818</ele>
        <time>2021-11-20T09:20:20.250Z</time>
      </trkpt>
      <trkpt lat="47.596559" lon="7.656069">
        <ele>284.989571</ele>
        <time>2021-11-20T09:20:22.747Z</time>
      </trkpt>
      <trkpt lat="47.596394" lon="7.656019">
        <ele>284.871641</ele>
        <time>2021-11-20T09:20:24.857Z</time>
      </trkpt>
      <trkpt lat="47.596331" lon="7.655998">
        <ele>284.826424</ele>
        <time>2021-11-20T09:20:25.662Z</time>
      </trkpt>
      <trkpt lat="47.596264" lon="7.655978">
        <ele>284.778566</ele>
        <time>2021-11-20T09:20:26.473Z</time>
      </trkpt>
      <trkpt lat="47.596169" lon="7.655952">
        <ele>284.710918</ele>
        <time>2021-11-20T09:20:27.618Z</time>
      </trkpt>
      <trkpt lat="47.596135" lon="7.655942">
        <ele>284.686646</ele>
        <time>2021-11-20T09:20:28.029Z</time>
      </trkpt>
      <trkpt lat="47.595856" lon="7.655854">
        <ele>284.486904</ele>
        <time>2021-11-20T09:20:31.399Z</time>
      </trkpt>
      <trkpt lat="47.595737" lon="7.655809">
        <ele>284.400907</ele>
        <time>2021-11-20T09:20:32.781Z</time>
      </trkpt>
      <trkpt lat="47.595595" lon="7.655747">
        <ele>284.215636</ele>
        <time>2021-11-20T09:20:34.558Z</time>
      </trkpt>
      <trkpt lat="47.595595" lon="7.655746">
        <ele>284.214714</ele>
        <time>2021-11-20T09:20:34.563Z</time>
      </trkpt>
      <trkpt lat="47.595589" lon="7.655744">
        <ele>284.206309</ele>
        <time>2021-11-20T09:20:34.628Z</time>
      </trkpt>
      <trkpt lat="47.595444" lon="7.655671">
        <ele>283.997015</ele>
        <time>2021-11-20T09:20:36.349Z</time>
      </trkpt>
      <trkpt lat="47.595386" lon="7.655638">
        <ele>283.912106</ele>
        <time>2021-11-20T09:20:37.065Z</time>
      </trkpt>
      <trkpt lat="47.595330" lon="7.655577">
        <ele>283.817135</ele>
        <time>2021-11-20T09:20:37.880Z</time>
      </trkpt>
      <trkpt lat="47.595281" lon="7.655528">
        <ele>283.736357</ele>
        <time>2021-11-20T09:20:38.571Z</time>
      </trkpt>
      <trkpt lat="47.595271" lon="7.655520">
        <ele>283.720827</ele>
        <time>2021-11-20T09:20:38.688Z</time>
      </trkpt>
      <trkpt lat="47.595207" lon="7.655485">
        <ele>283.627594</ele>
        <time>2021-11-20T09:20:39.478Z</time>
      </trkpt>
      <trkpt lat="47.595193" lon="7.655479">
        <ele>283.607676</ele>
        <time>2021-11-20T09:20:39.656Z</time>
      </trkpt>
      <trkpt lat="47.595112" lon="7.655445">
        <ele>283.492616</ele>
        <time>2021-11-20T09:20:40.574Z</time>
      </trkpt>
      <trkpt lat="47.594945" lon="7.655371">
        <ele>283.254390</ele>
        <time>2021-11-20T09:20:42.623Z</time>
      </trkpt>
      <trkpt lat="47.594880" lon="7.655360">
        <ele>283.164972</ele>
        <time>2021-11-20T09:20:43.360Z</time>
      </trkpt>
      <trkpt lat="47.594828" lon="7.655365">
        <ele>283.093750</ele>
        <time>2021-11-20T09:20:43.976Z</time>
      </trkpt>
      <trkpt lat="47.594475" lon="7.655141">
        <ele>282.568954</ele>
        <time>2021-11-20T09:20:48.447Z</time>
      </trkpt>
      <trkpt lat="47.594429" lon="7.655104">
        <ele>282.497428</ele>
        <time>2021-11-20T09:20:49.022Z</time>
      </trkpt>
      <trkpt lat="47.594381" lon="7.655065">
        <ele>282.422619</ele>
        <time>2021-11-20T09:20:49.708Z</time>
      </trkpt>
      <trkpt lat="47.594170" lon="7.654900">
        <ele>282.096583</ele>
        <time>2021-11-20T09:20:52.633Z</time>
      </trkpt>
      <trkpt lat="47.594145" lon="7.654879">
        <ele>282.057312</ele>
        <time>2021-11-20T09:20:52.946Z</time>
      </trkpt>
      <trkpt lat="47.593984" lon="7.654754">
        <ele>281.839995</ele>
        <time>2021-11-20T09:20:55.168Z</time>
      </trkpt>
      <trkpt lat="47.593873" lon="7.654670">
        <ele>281.715408</ele>
        <time>2021-11-20T09:20:56.735Z</time>
      </trkpt>
      <trkpt lat="47.593572" lon="7.654436">
        <ele>281.375639</ele>
        <time>2021-11-20T09:21:00.794Z</time>
      </trkpt>
      <trkpt lat="47.592851" lon="7.653875">
        <ele>280.561619</ele>
        <time>2021-11-20T09:21:10.515Z</time>
      </trkpt>
      <trkpt lat="47.592712" lon="7.653764">
        <ele>280.403785</ele>
        <time>2021-11-20T09:21:12.458Z</time>
      </trkpt>
      <trkpt lat="47.592636" lon="7.653708">
        <ele>280.318941</ele>
        <time>2021-11-20T09:21:13.546Z</time>
      </trkpt>
      <trkpt lat="47.592555" lon="7.653646">
        <ele>280.227809</ele>
        <time>2021-11-20T09:21:14.702Z</time>
      </trkpt>
      <trkpt lat="47.592362" lon="7.653496">
        <ele>280.107706</ele>
        <time>2021-11-20T09:21:17.482Z</time>
      </trkpt>
      <trkpt lat="47.591654" lon="7.652954">
        <ele>279.979467</ele>
        <time>2021-11-20T09:21:28.409Z</time>
      </trkpt>
      <trkpt lat="47.591530" lon="7.652877">
        <ele>279.957831</ele>
        <time>2021-11-20T09:21:30.210Z</time>
      </trkpt>
      <trkpt lat="47.590010" lon="7.652008">
        <ele>280.389995</ele>
        <time>2021-11-20T09:21:56.386Z</time>
      </trkpt>
      <trkpt lat="47.589928" lon="7.651967">
        <ele>280.444489</ele>
        <time>2021-11-20T09:21:58.068Z</time>
      </trkpt>
      <trkpt lat="47.589780" lon="7.651919">
        <ele>280.539892</ele>
        <time>2021-11-20T09:22:01.094Z</time>
      </trkpt>
      <trkpt lat="47.589781" lon="7.651886">
        <ele>280.553922</ele>
        <time>2021-11-20T09:22:01.438Z</time>
      </trkpt>
      <trkpt lat="47.589777" lon="7.651850">
        <ele>280.569417</ele>
        <time>2021-11-20T09:22:01.864Z</time>
      </trkpt>
      <trkpt lat="47.589765" lon="7.651816">
        <ele>280.585715</ele>
        <time>2021-11-20T09:22:02.423Z</time>
      </trkpt>
      <trkpt lat="47.589746" lon="7.651789">
        <ele>280.602288</ele>
        <time>2021-11-20T09:22:02.915Z</time>
      </trkpt>
      <trkpt lat="47.589721" lon="7.651769">
        <ele>280.620176</ele>
        <time>2021-11-20T09:22:03.383Z</time>
      </trkpt>
      <trkpt lat="47.589678" lon="7.651770">
        <ele>280.647258</ele>
        <time>2021-11-20T09:22:04.211Z</time>
      </trkpt>
      <trkpt lat="47.589561" lon="7.651773">
        <ele>280.720947</ele>
        <time>2021-11-20T09:22:06.462Z</time>
      </trkpt>
      <trkpt lat="47.588931" lon="7.651783">
        <ele>281.083940</ele>
        <time>2021-11-20T09:22:17.961Z</time>
      </trkpt>
      <trkpt lat="47.588813" lon="7.651789">
        <ele>281.141340</ele>
        <time>2021-11-20T09:22:20.184Z</time>
      </trkpt>
      <trkpt lat="47.588740" lon="7.651854">
        <ele>281.182737</ele>
        <time>2021-11-20T09:22:21.569Z</time>
      </trkpt>
      <trkpt lat="47.588728" lon="7.651880">
        <ele>281.193067</ele>
        <time>2021-11-20T09:22:22.059Z</time>
      </trkpt>
      <trkpt lat="47.588620" lon="7.651830">
        <ele>281.248072</ele>
        <time>2021-11-20T09:22:23.723Z</time>
      </trkpt>
      <trkpt lat="47.587404" lon="7.651029">
        <ele>281.866908</ele>
        <time>2021-11-20T09:22:45.646Z</time>
      </trkpt>
      <trkpt lat="47.587343" lon="7.651005">
        <ele>281.880685</ele>
        <time>2021-11-20T09:22:46.452Z</time>
      </trkpt>
      <trkpt lat="47.587101" lon="7.650922">
        <ele>281.934908</ele>
        <time>2021-11-20T09:22:50.249Z</time>
      </trkpt>
      <trkpt lat="47.586735" lon="7.650800">
        <ele>282.016800</ele>
        <time>2021-11-20T09:22:55.933Z</time>
      </trkpt>
      <trkpt lat="47.586652" lon="7.650763">
        <ele>282.035720</ele>
        <time>2021-11-20T09:22:57.133Z</time>
      </trkpt>
      <trkpt lat="47.586623" lon="7.650750">
        <ele>282.042334</ele>
        <time>2021-11-20T09:22:57.567Z</time>
      </trkpt>
      <trkpt lat="47.586547" lon="7.650713">
        <ele>282.059796</ele>
        <time>2021-11-20T09:22:58.845Z</time>
      </trkpt>
      <trkpt lat="47.586436" lon="7.650660">
        <ele>282.085253</ele>
        <time>2021-11-20T09:23:00.760Z</time>
      </trkpt>
      <trkpt lat="47.586250" lon="7.650569">
        <ele>282.128010</ele>
        <time>2021-11-20T09:23:03.713Z</time>
      </trkpt>
      <trkpt lat="47.586217" lon="7.650552">
        <ele>282.135636</ele>
        <time>2021-11-20T09:23:04.283Z</time>
      </trkpt>
      <trkpt lat="47.586181" lon="7.650532">
        <ele>282.144028</ele>
        <time>2021-11-20T09:23:04.934Z</time>
      </trkpt>
      <trkpt lat="47.586132" lon="7.650506">
        <ele>282.155389</ele>
        <time>2021-11-20T09:23:05.806Z</time>
      </trkpt>
      <trkpt lat="47.586092" lon="7.650485">
        <ele>282.164653</ele>
        <time>2021-11-20T09:23:06.515Z</time>
      </trkpt>
      <trkpt lat="47.585745" lon="7.650300">
        <ele>282.239195</ele>
        <time>2021-11-20T09:23:12.406Z</time>
      </trkpt>
      <trkpt lat="47.585547" lon="7.650203">
        <ele>282.252660</ele>
        <time>2021-11-20T09:23:15.862Z</time>
      </trkpt>
      <trkpt lat="47.585344" lon="7.650114">
        <ele>282.266329</ele>
        <time>2021-11-20T09:23:19.553Z</time>
      </trkpt>
      <trkpt lat="47.585089" lon="7.650007">
        <ele>282.283442</ele>
        <time>2021-11-20T09:23:23.977Z</time>
      </trkpt>
      <trkpt lat="47.584923" lon="7.649937">
        <ele>282.294587</ele>
        <time>2021-11-20T09:23:26.790Z</time>
      </trkpt>
      <trkpt lat="47.584850" lon="7.649909">
        <ele>282.299456</ele>
        <time>2021-11-20T09:23:28.016Z</time>
      </trkpt>
      <trkpt lat="47.584759" lon="7.649869">
        <ele>282.305585</ele>
        <time>2021-11-20T09:23:29.577Z</time>
      </trkpt>
      <trkpt lat="47.584719" lon="7.649845">
        <ele>282.308371</ele>
        <time>2021-11-20T09:23:30.247Z</time>
      </trkpt>
      <trkpt lat="47.584681" lon="7.649796">
        <ele>282.311623</ele>
        <time>2021-11-20T09:23:31.047Z</time>
      </trkpt>
      <trkpt lat="47.584591" lon="7.649659">
        <ele>282.319953</ele>
        <time>2021-11-20T09:23:32.829Z</time>
      </trkpt>
      <trkpt lat="47.584575" lon="7.649635">
        <ele>282.321422</ele>
        <time>2021-11-20T09:23:33.165Z</time>
      </trkpt>
      <trkpt lat="47.584536" lon="7.649579">
        <ele>282.324928</ele>
        <time>2021-11-20T09:23:33.987Z</time>
      </trkpt>
      <trkpt lat="47.584318" lon="7.649293">
        <ele>282.343725</ele>
        <time>2021-11-20T09:23:37.889Z</time>
      </trkpt>
      <trkpt lat="47.584165" lon="7.649179">
        <ele>282.341888</ele>
        <time>2021-11-20T09:23:40.162Z</time>
      </trkpt>
      <trkpt lat="47.584142" lon="7.649171">
        <ele>282.333304</ele>
        <time>2021-11-20T09:23:40.518Z</time>
      </trkpt>
      <trkpt lat="47.584128" lon="7.649156">
        <ele>282.327028</ele>
        <time>2021-11-20T09:23:40.742Z</time>
      </trkpt>
      <trkpt lat="47.584071" lon="7.649103">
        <ele>282.302581</ele>
        <time>2021-11-20T09:23:41.528Z</time>
      </trkpt>
      <trkpt lat="47.583797" lon="7.648877">
        <ele>282.188654</ele>
        <time>2021-11-20T09:23:45.677Z</time>
      </trkpt>
      <trkpt lat="47.583592" lon="7.648697">
        <ele>282.102085</ele>
        <time>2021-11-20T09:23:48.115Z</time>
      </trkpt>
      <trkpt lat="47.583441" lon="7.648542">
        <ele>282.035353</ele>
        <time>2021-11-20T09:23:51.829Z</time>
      </trkpt>
      <trkpt lat="47.583007" lon="7.648038">
        <ele>281.835043</ele>
        <time>2021-11-20T09:23:59.000Z</time>
      </trkpt>
      <trkpt lat="47.582824" lon="7.647818">
        <ele>281.749437</ele>
        <time>2021-11-20T09:24:03.126Z</time>
      </trkpt>
      <trkpt lat="47.582724" lon="7.647701">
        <ele>281.703150</ele>
        <time>2021-11-20T09:24:04.529Z</time>
      </trkpt>
      <trkpt lat="47.582705" lon="7.647724">
        <ele>281.726764</ele>
        <time>2021-11-20T09:24:05.939Z</time>
      </trkpt>
      <trkpt lat="47.582664" lon="7.647775">
        <ele>281.832025</ele>
        <time>2021-11-20T09:24:08.123Z</time>
      </trkpt>
      <trkpt lat="47.582615" lon="7.647836">
        <ele>281.957866</ele>
        <time>2021-11-20T09:24:09.479Z</time>
      </trkpt>
      <trkpt lat="47.582607" lon="7.647844">
        <ele>281.976845</ele>
        <time>2021-11-20T09:24:09.556Z</time>
      </trkpt>
      <trkpt lat="47.582443" lon="7.648031">
        <ele>282.383760</ele>
        <time>2021-11-20T09:24:11.906Z</time>
      </trkpt>
      <trkpt lat="47.582390" lon="7.648089">
        <ele>282.513321</ele>
        <time>2021-11-20T09:24:15.534Z</time>
      </trkpt>
      <trkpt lat="47.582257" lon="7.648204">
        <ele>282.816138</ele>
        <time>2021-11-20T09:24:17.288Z</time>
      </trkpt>
      <trkpt lat="47.582173" lon="7.648260">
        <ele>282.997280</ele>
        <time>2021-11-20T09:24:18.448Z</time>
      </trkpt>
      <trkpt lat="47.582006" lon="7.648372">
        <ele>283.357772</ele>
        <time>2021-11-20T09:24:24.786Z</time>
      </trkpt>
      <trkpt lat="47.581866" lon="7.648466">
        <ele>283.660040</ele>
        <time>2021-11-20T09:24:26.503Z</time>
      </trkpt>
      <trkpt lat="47.581653" lon="7.648609">
        <ele>284.119912</ele>
        <time>2021-11-20T09:24:33.186Z</time>
      </trkpt>
      <trkpt lat="47.581434" lon="7.648756">
        <ele>284.592722</ele>
        <time>2021-11-20T09:24:39.750Z</time>
      </trkpt>
      <trkpt lat="47.581368" lon="7.648797">
        <ele>284.733463</ele>
        <time>2021-11-20T09:24:42.330Z</time>
      </trkpt>
      <trkpt lat="47.581359" lon="7.648801">
        <ele>284.751943</ele>
        <time>2021-11-20T09:24:43.075Z</time>
      </trkpt>
      <trkpt lat="47.581132" lon="7.648912">
        <ele>285.222054</ele>
        <time>2021-11-20T09:24:47.248Z</time>
      </trkpt>
      <trkpt lat="47.580953" lon="7.648987">
        <ele>286.129984</ele>
        <time>2021-11-20T09:24:55.082Z</time>
      </trkpt>
      <trkpt lat="47.580773" lon="7.649069">
        <ele>287.072148</ele>
        <time>2021-11-20T09:25:00.420Z</time>
      </trkpt>
      <trkpt lat="47.580709" lon="7.649099">
        <ele>287.407988</ele>
        <time>2021-11-20T09:25:02.380Z</time>
      </trkpt>
      <trkpt lat="47.580600" lon="7.649166">
        <ele>287.998374</ele>
        <time>2021-11-20T09:25:06.385Z</time>
      </trkpt>
      <trkpt lat="47.580496" lon="7.649240">
        <ele>288.575554</ele>
        <time>2021-11-20T09:25:09.955Z</time>
      </trkpt>
      <trkpt lat="47.579533" lon="7.650009">
        <ele>294.048340</ele>
        <time>2021-11-20T09:25:50.063Z</time>
      </trkpt>
      <trkpt lat="47.579204" lon="7.650274">
        <ele>296.675285</ele>
        <time>2021-11-20T09:26:05.529Z</time>
      </trkpt>
      <trkpt lat="47.578629" lon="7.650626">
        <ele>301.179251</ele>
        <time>2021-11-20T09:26:31.965Z</time>
      </trkpt>
      <trkpt lat="47.578569" lon="7.650647">
        <ele>301.625591</ele>
        <time>2021-11-20T09:26:35.522Z</time>
      </trkpt>
      <trkpt lat="47.578503" lon="7.650672">
        <ele>302.118780</ele>
        <time>2021-11-20T09:26:39.044Z</time>
      </trkpt>
      <trkpt lat="47.577785" lon="7.650945">
        <ele>307.458093</ele>
        <time>2021-11-20T09:27:13.689Z</time>
      </trkpt>
      <trkpt lat="47.577628" lon="7.651004">
        <ele>308.490160</ele>
        <time>2021-11-20T09:27:20.171Z</time>
      </trkpt>
      <trkpt lat="47.577442" lon="7.651076">
        <ele>309.715116</ele>
        <time>2021-11-20T09:27:28.922Z</time>
      </trkpt>
      <trkpt lat="47.577432" lon="7.651079">
        <ele>309.780129</ele>
        <time>2021-11-20T09:27:30.009Z</time>
      </trkpt>
      <trkpt lat="47.577362" lon="7.651106">
        <ele>310.241029</ele>
        <time>2021-11-20T09:27:32.666Z</time>
      </trkpt>
      <trkpt lat="47.577194" lon="7.651165">
        <ele>311.341175</ele>
        <time>2021-11-20T09:27:39.803Z</time>
      </trkpt>
      <trkpt lat="47.577153" lon="7.651178">
        <ele>311.608342</ele>
        <time>2021-11-20T09:27:42.158Z</time>
      </trkpt>
      <trkpt lat="47.576880" lon="7.651204">
        <ele>313.351514</ele>
        <time>2021-11-20T09:27:53.562Z</time>
      </trkpt>
      <trkpt lat="47.575917" lon="7.651262">
        <ele>319.332380</ele>
        <time>2021-11-20T09:28:29.265Z</time>
      </trkpt>
      <trkpt lat="47.575312" lon="7.651431">
        <ele>322.441343</ele>
        <time>2021-11-20T09:28:48.759Z</time>
      </trkpt>
      <trkpt lat="47.574376" lon="7.652027">
        <ele>327.585704</ele>
        <time>2021-11-20T09:29:22.682Z</time>
      </trkpt>
      <trkpt lat="47.574341" lon="7.652056">
        <ele>327.788189</ele>
        <time>2021-11-20T09:29:24.117Z</time>
      </trkpt>
      <trkpt lat="47.574258" lon="7.652107">
        <ele>328.539315</ele>
        <time>2021-11-20T09:29:27.362Z</time>
      </trkpt>
      <trkpt lat="47.574036" lon="7.652261">
        <ele>330.614253</ele>
        <time>2021-11-20T09:29:38.040Z</time>
      </trkpt>
      <trkpt lat="47.573906" lon="7.652350">
        <ele>331.826466</ele>
        <time>2021-11-20T09:29:45.237Z</time>
      </trkpt>
      <trkpt lat="47.573842" lon="7.652391">
        <ele>332.416687</ele>
        <time>2021-11-20T09:29:50.233Z</time>
      </trkpt>
      <trkpt lat="47.573586" lon="7.652557">
        <ele>334.782125</ele>
        <time>2021-11-20T09:30:02.383Z</time>
      </trkpt>
      <trkpt lat="47.573546" lon="7.652576">
        <ele>335.137703</ele>
        <time>2021-11-20T09:30:06.022Z</time>
      </trkpt>
      <trkpt lat="47.573245" lon="7.652814">
        <ele>338.025663</ele>
        <time>2021-11-20T09:30:22.640Z</time>
      </trkpt>
      <trkpt lat="47.573095" lon="7.652935">
        <ele>339.471336</ele>
        <time>2021-11-20T09:30:31.064Z</time>
      </trkpt>
      <trkpt lat="47.572797" lon="7.653196">
        <ele>342.401510</ele>
        <time>2021-11-20T09:30:50.064Z</time>
      </trkpt>
      <trkpt lat="47.572736" lon="7.653256">
        <ele>343.021255</ele>
        <time>2021-11-20T09:30:53.796Z</time>
      </trkpt>
      <trkpt lat="47.572674" lon="7.653338">
        <ele>343.690227</ele>
        <time>2021-11-20T09:30:57.587Z</time>
      </trkpt>
      <trkpt lat="47.572629" lon="7.653453">
        <ele>344.411933</ele>
        <time>2021-11-20T09:31:04.515Z</time>
      </trkpt>
      <trkpt lat="47.572586" lon="7.654274">
        <ele>348.882280</ele>
        <time>2021-11-20T09:31:33.610Z</time>
      </trkpt>
      <trkpt lat="47.572727" lon="7.655038">
        <ele>353.182164</ele>
        <time>2021-11-20T09:32:01.735Z</time>
      </trkpt>
      <trkpt lat="47.572768" lon="7.655247">
        <ele>354.363744</ele>
        <time>2021-11-20T09:32:08.437Z</time>
      </trkpt>
      <trkpt lat="47.572805" lon="7.655464">
        <ele>355.578801</ele>
        <time>2021-11-20T09:32:13.899Z</time>
      </trkpt>
      <trkpt lat="47.572828" lon="7.655684">
        <ele>356.787358</ele>
        <time>2021-11-20T09:32:20.223Z</time>
      </trkpt>
      <trkpt lat="47.572825" lon="7.655921">
        <ele>357.706199</ele>
        <time>2021-11-20T09:32:23.818Z</time>
      </trkpt>
      <trkpt lat="47.572723" lon="7.656403">
        <ele>358.686802</ele>
        <time>2021-11-20T09:32:32.995Z</time>
      </trkpt>
      <trkpt lat="47.572651" lon="7.656632">
        <ele>359.177239</ele>
        <time>2021-11-20T09:32:37.344Z</time>
      </trkpt>
      <trkpt lat="47.572386" lon="7.657306">
        <ele>360.691578</ele>
        <time>2021-11-20T09:32:50.789Z</time>
      </trkpt>
      <trkpt lat="47.572328" lon="7.657534">
        <ele>361.164590</ele>
        <time>2021-11-20T09:32:55.893Z</time>
      </trkpt>
      <trkpt lat="47.572279" lon="7.657772">
        <ele>361.647631</ele>
        <time>2021-11-20T09:32:58.228Z</time>
      </trkpt>
      <trkpt lat="47.572105" lon="7.658575">
        <ele>363.405539</ele>
        <time>2021-11-20T09:33:11.709Z</time>
      </trkpt>
      <trkpt lat="47.572100" lon="7.658595">
        <ele>363.455159</ele>
        <time>2021-11-20T09:33:11.830Z</time>
      </trkpt>
      <trkpt lat="47.572041" lon="7.658817">
        <ele>364.010249</ele>
        <time>2021-11-20T09:33:14.701Z</time>
      </trkpt>
      <trkpt lat="47.572013" lon="7.658908">
        <ele>364.242931</ele>
        <time>2021-11-20T09:33:16.027Z</time>
      </trkpt>
      <trkpt lat="47.572007" lon="7.658927">
        <ele>364.291735</ele>
        <time>2021-11-20T09:33:17.573Z</time>
      </trkpt>
      <trkpt lat="47.571713" lon="7.659670">
        <ele>366.295628</ele>
        <time>2021-11-20T09:33:30.830Z</time>
      </trkpt>
      <trkpt lat="47.571120" lon="7.660777">
        <ele>370.510735</ele>
        <time>2021-11-20T09:34:04.302Z</time>
      </trkpt>
      <trkpt lat="47.570760" lon="7.661369">
        <ele>374.801237</ele>
        <time>2021-11-20T09:34:27.751Z</time>
      </trkpt>
      <trkpt lat="47.570650" lon="7.661552">
        <ele>376.120691</ele>
        <time>2021-11-20T09:34:34.442Z</time>
      </trkpt>
      <trkpt lat="47.570555" lon="7.661708">
        <ele>377.252023</ele>
        <time>2021-11-20T09:34:44.098Z</time>
      </trkpt>
      <trkpt lat="47.570414" lon="7.662013">
        <ele>379.242460</ele>
        <time>2021-11-20T09:34:56.913Z</time>
      </trkpt>
      <trkpt lat="47.570317" lon="7.662298">
        <ele>380.960925</ele>
        <time>2021-11-20T09:35:08.827Z</time>
      </trkpt>
      <trkpt lat="47.570293" lon="7.662398">
        <ele>381.532322</ele>
        <time>2021-11-20T09:35:12.142Z</time>
      </trkpt>
      <trkpt lat="47.570256" lon="7.662601">
        <ele>382.664349</ele>
        <time>2021-11-20T09:35:21.477Z</time>
      </trkpt>
      <trkpt lat="47.570226" lon="7.662885">
        <ele>383.962922</ele>
        <time>2021-11-20T09:35:29.935Z</time>
      </trkpt>
      <trkpt lat="47.570217" lon="7.663239">
        <ele>385.386116</ele>
        <time>2021-11-20T09:35:42.815Z</time>
      </trkpt>
      <trkpt lat="47.570215" lon="7.663342">
        <ele>385.800087</ele>
        <time>2021-11-20T09:35:44.945Z</time>
      </trkpt>
      <trkpt lat="47.570206" lon="7.663682">
        <ele>387.167078</ele>
        <time>2021-11-20T09:35:55.377Z</time>
      </trkpt>
      <trkpt lat="47.570211" lon="7.664112">
        <ele>388.894848</ele>
        <time>2021-11-20T09:36:05.304Z</time>
      </trkpt>
      <trkpt lat="47.570283" lon="7.664320">
        <ele>389.834046</ele>
        <time>2021-11-20T09:36:10.150Z</time>
      </trkpt>
      <trkpt lat="47.570363" lon="7.664428">
        <ele>390.478392</ele>
        <time>2021-11-20T09:36:13.383Z</time>
      </trkpt>
      <trkpt lat="47.570744" lon="7.664822">
        <ele>393.244701</ele>
        <time>2021-11-20T09:36:29.548Z</time>
      </trkpt>
      <trkpt lat="47.570866" lon="7.664964">
        <ele>394.049365</ele>
        <time>2021-11-20T09:36:33.662Z</time>
      </trkpt>
      <trkpt lat="47.570894" lon="7.665008">
        <ele>394.165240</ele>
        <time>2021-11-20T09:36:35.021Z</time>
      </trkpt>
      <trkpt lat="47.570977" lon="7.665141">
        <ele>394.512329</ele>
        <time>2021-11-20T09:36:39.207Z</time>
      </trkpt>
      <trkpt lat="47.571053" lon="7.665291">
        <ele>394.871708</ele>
        <time>2021-11-20T09:36:43.907Z</time>
      </trkpt>
      <trkpt lat="47.571164" lon="7.665551">
        <ele>395.461160</ele>
        <time>2021-11-20T09:36:50.876Z</time>
      </trkpt>
      <trkpt lat="47.571284" lon="7.665898">
        <ele>396.208178</ele>
        <time>2021-11-20T09:36:58.692Z</time>
      </trkpt>
      <trkpt lat="47.571322" lon="7.666010">
        <ele>396.448350</ele>
        <time>2021-11-20T09:37:01.090Z</time>
      </trkpt>
      <trkpt lat="47.571425" lon="7.666496">
        <ele>397.424274</ele>
        <time>2021-11-20T09:37:08.508Z</time>
      </trkpt>
      <trkpt lat="47.571449" lon="7.666882">
        <ele>398.166896</ele>
        <time>2021-11-20T09:37:12.095Z</time>
      </trkpt>
      <trkpt lat="47.571431" lon="7.667134">
        <ele>398.652369</ele>
        <time>2021-11-20T09:37:21.336Z</time>
      </trkpt>
      <trkpt lat="47.571400" lon="7.667298">
        <ele>398.978654</ele>
        <time>2021-11-20T09:37:24.131Z</time>
      </trkpt>
      <trkpt lat="47.571338" lon="7.667484">
        <ele>399.939884</ele>
        <time>2021-11-20T09:37:29.664Z</time>
      </trkpt>
      <trkpt lat="47.571286" lon="7.667587">
        <ele>400.610131</ele>
        <time>2021-11-20T09:37:36.635Z</time>
      </trkpt>
      <trkpt lat="47.571197" lon="7.667764">
        <ele>401.760257</ele>
        <time>2021-11-20T09:37:42.227Z</time>
      </trkpt>
      <trkpt lat="47.571089" lon="7.667955">
        <ele>403.058662</ele>
        <time>2021-11-20T09:37:51.938Z</time>
      </trkpt>
      <trkpt lat="47.570794" lon="7.668419">
        <ele>406.380404</ele>
        <time>2021-11-20T09:38:17.696Z</time>
      </trkpt>
      <trkpt lat="47.570756" lon="7.668477">
        <ele>406.801628</ele>
        <time>2021-11-20T09:38:18.548Z</time>
      </trkpt>
      <trkpt lat="47.570618" lon="7.668690">
        <ele>408.340215</ele>
        <time>2021-11-20T09:38:28.554Z</time>
      </trkpt>
      <trkpt lat="47.570501" lon="7.668877">
        <ele>409.668972</ele>
        <time>2021-11-20T09:38:39.717Z</time>
      </trkpt>
      <trkpt lat="47.570299" lon="7.669180">
        <ele>411.888333</ele>
        <time>2021-11-20T09:38:58.566Z</time>
      </trkpt>
      <trkpt lat="47.570132" lon="7.669684">
        <ele>414.785960</ele>
        <time>2021-11-20T09:39:18.920Z</time>
      </trkpt>
      <trkpt lat="47.569903" lon="7.670056">
        <ele>417.370670</ele>
        <time>2021-11-20T09:39:33.861Z</time>
      </trkpt>
      <trkpt lat="47.569693" lon="7.670339">
        <ele>419.529891</ele>
        <time>2021-11-20T09:39:45.850Z</time>
      </trkpt>
      <trkpt lat="47.569622" lon="7.670436">
        <ele>420.264486</ele>
        <time>2021-11-20T09:39:54.867Z</time>
      </trkpt>
      <trkpt lat="47.569398" lon="7.670733">
        <ele>422.550930</ele>
        <time>2021-11-20T09:40:11.494Z</time>
      </trkpt>
      <trkpt lat="47.569054" lon="7.671126">
        <ele>425.855131</ele>
        <time>2021-11-20T09:40:29.289Z</time>
      </trkpt>
      <trkpt lat="47.568992" lon="7.671190">
        <ele>426.429921</ele>
        <time>2021-11-20T09:40:37.607Z</time>
      </trkpt>
      <trkpt lat="47.568936" lon="7.671246">
        <ele>426.902925</ele>
        <time>2021-11-20T09:40:41.116Z</time>
      </trkpt>
      <trkpt lat="47.568912" lon="7.671269">
        <ele>427.092766</ele>
        <time>2021-11-20T09:40:41.462Z</time>
      </trkpt>
      <trkpt lat="47.568835" lon="7.671345">
        <ele>427.707271</ele>
        <time>2021-11-20T09:40:46.002Z</time>
      </trkpt>
      <trkpt lat="47.568786" lon="7.671404">
        <ele>428.126623</ele>
        <time>2021-11-20T09:40:48.304Z</time>
      </trkpt>
      <trkpt lat="47.568707" lon="7.671501">
        <ele>428.808058</ele>
        <time>2021-11-20T09:40:57.253Z</time>
      </trkpt>
      <trkpt lat="47.568604" lon="7.671741">
        <ele>430.082827</ele>
        <time>2021-11-20T09:40:59.732Z</time>
      </trkpt>
      <trkpt lat="47.568572" lon="7.672044">
        <ele>431.457323</ele>
        <time>2021-11-20T09:41:12.792Z</time>
      </trkpt>
      <trkpt lat="47.568675" lon="7.672256">
        <ele>432.628148</ele>
        <time>2021-11-20T09:41:14.873Z</time>
      </trkpt>
      <trkpt lat="47.569088" lon="7.672724">
        <ele>436.081428</ele>
        <time>2021-11-20T09:41:39.984Z</time>
      </trkpt>
      <trkpt lat="47.569590" lon="7.673293">
        <ele>441.103588</ele>
        <time>2021-11-20T09:42:05.843Z</time>
      </trkpt>
      <trkpt lat="47.570526" lon="7.674387">
        <ele>452.837220</ele>
        <time>2021-11-20T09:43:10.938Z</time>
      </trkpt>
      <trkpt lat="47.570749" lon="7.674853">
        <ele>456.726062</ele>
        <time>2021-11-20T09:43:32.901Z</time>
      </trkpt>
      <trkpt lat="47.570807" lon="7.675449">
        <ele>461.782476</ele>
        <time>2021-11-20T09:44:02.088Z</time>
      </trkpt>
      <trkpt lat="47.570599" lon="7.677202">
        <ele>476.728370</ele>
        <time>2021-11-20T09:45:24.340Z</time>
      </trkpt>
      <trkpt lat="47.570459" lon="7.678340">
        <ele>482.449879</ele>
        <time>2021-11-20T09:46:05.190Z</time>
      </trkpt>
      <trkpt lat="47.570431" lon="7.678570">
        <ele>483.405724</ele>
        <time>2021-11-20T09:46:21.167Z</time>
      </trkpt>
      <trkpt lat="47.570409" lon="7.678783">
        <ele>484.287001</ele>
        <time>2021-11-20T09:46:22.377Z</time>
      </trkpt>
      <trkpt lat="47.570397" lon="7.678871">
        <ele>484.654181</ele>
        <time>2021-11-20T09:46:28.781Z</time>
      </trkpt>
      <trkpt lat="47.570350" lon="7.679266">
        <ele>486.294586</ele>
        <time>2021-11-20T09:46:37.511Z</time>
      </trkpt>
      <trkpt lat="47.570362" lon="7.679707">
        <ele>488.099657</ele>
        <time>2021-11-20T09:46:53.358Z</time>
      </trkpt>
      <trkpt lat="47.570477" lon="7.680193">
        <ele>489.438610</ele>
        <time>2021-11-20T09:46:58.504Z</time>
      </trkpt>
      <trkpt lat="47.570689" lon="7.680635">
        <ele>489.011371</ele>
        <time>2021-11-20T09:47:01.738Z</time>
      </trkpt>
      <trkpt lat="47.570874" lon="7.681028">
        <ele>488.633848</ele>
        <time>2021-11-20T09:47:04.649Z</time>
      </trkpt>
      <trkpt lat="47.571207" lon="7.681736">
        <ele>487.953921</ele>
        <time>2021-11-20T09:47:15.748Z</time>
      </trkpt>
      <trkpt lat="47.571238" lon="7.681911">
        <ele>487.811382</ele>
        <time>2021-11-20T09:47:17.148Z</time>
      </trkpt>
      <trkpt lat="47.571252" lon="7.682018">
        <ele>487.725517</ele>
        <time>2021-11-20T09:47:19.182Z</time>
      </trkpt>
      <trkpt lat="47.571376" lon="7.683143">
        <ele>488.583898</ele>
        <time>2021-11-20T09:47:32.013Z</time>
      </trkpt>
      <trkpt lat="47.571394" lon="7.683315">
        <ele>488.826162</ele>
        <time>2021-11-20T09:47:34.771Z</time>
      </trkpt>
      <trkpt lat="47.571394" lon="7.683428">
        <ele>488.983443</ele>
        <time>2021-11-20T09:47:35.515Z</time>
      </trkpt>
      <trkpt lat="47.571388" lon="7.683570">
        <ele>489.181475</ele>
        <time>2021-11-20T09:47:38.430Z</time>
      </trkpt>
      <trkpt lat="47.571368" lon="7.683808">
        <ele>489.515300</ele>
        <time>2021-11-20T09:47:43.077Z</time>
      </trkpt>
      <trkpt lat="47.571344" lon="7.683913">
        <ele>489.669605</ele>
        <time>2021-11-20T09:47:43.988Z</time>
      </trkpt>
      <trkpt lat="47.571340" lon="7.684154">
        <ele>490.005147</ele>
        <time>2021-11-20T09:47:49.108Z</time>
      </trkpt>
      <trkpt lat="47.571353" lon="7.684682">
        <ele>490.740543</ele>
        <time>2021-11-20T09:47:58.913Z</time>
      </trkpt>
      <trkpt lat="47.571387" lon="7.684919">
        <ele>491.077791</ele>
        <time>2021-11-20T09:48:03.767Z</time>
      </trkpt>
      <trkpt lat="47.571417" lon="7.685072">
        <ele>491.396010</ele>
        <time>2021-11-20T09:48:05.898Z</time>
      </trkpt>
      <trkpt lat="47.571450" lon="7.685245">
        <ele>491.836901</ele>
        <time>2021-11-20T09:48:10.290Z</time>
      </trkpt>
      <trkpt lat="47.571563" lon="7.685971">
        <ele>493.664083</ele>
        <time>2021-11-20T09:48:25.313Z</time>
      </trkpt>
      <trkpt lat="47.571544" lon="7.686178">
        <ele>494.176398</ele>
        <time>2021-11-20T09:48:30.468Z</time>
      </trkpt>
      <trkpt lat="47.571496" lon="7.686702">
        <ele>495.473228</ele>
        <time>2021-11-20T09:48:41.399Z</time>
      </trkpt>
      <trkpt lat="47.571524" lon="7.687863">
        <ele>498.328044</ele>
        <time>2021-11-20T09:49:02.719Z</time>
      </trkpt>
      <trkpt lat="47.571512" lon="7.688300">
        <ele>499.410796</ele>
        <time>2021-11-20T09:49:10.771Z</time>
      </trkpt>
      <trkpt lat="47.571516" lon="7.688720">
        <ele>500.450670</ele>
        <time>2021-11-20T09:49:18.653Z</time>
      </trkpt>
      <trkpt lat="47.571507" lon="7.688956">
        <ele>501.035854</ele>
        <time>2021-11-20T09:49:34.241Z</time>
      </trkpt>
      <trkpt lat="47.571364" lon="7.689632">
        <ele>502.789726</ele>
        <time>2021-11-20T09:50:19.926Z</time>
      </trkpt>
      <trkpt lat="47.571352" lon="7.689740">
        <ele>503.060697</ele>
        <time>2021-11-20T09:50:26.968Z</time>
      </trkpt>
      <trkpt lat="47.571341" lon="7.690029">
        <ele>503.777298</ele>
        <time>2021-11-20T09:50:45.877Z</time>
      </trkpt>
      <trkpt lat="47.571344" lon="7.690500">
        <ele>504.816757</ele>
        <time>2021-11-20T09:51:15.315Z</time>
      </trkpt>
      <trkpt lat="47.571340" lon="7.690569">
        <ele>504.953884</ele>
        <time>2021-11-20T09:51:20.233Z</time>
      </trkpt>
      <trkpt lat="47.571327" lon="7.690906">
        <ele>505.622253</ele>
        <time>2021-11-20T09:51:41.118Z</time>
      </trkpt>
      <trkpt lat="47.571318" lon="7.691137">
        <ele>506.080408</ele>
        <time>2021-11-20T09:51:56.714Z</time>
      </trkpt>
      <trkpt lat="47.571264" lon="7.691945">
        <ele>507.688125</ele>
        <time>2021-11-20T09:52:48.403Z</time>
      </trkpt>
      <trkpt lat="47.570999" lon="7.693913">
        <ele>509.362717</ele>
        <time>2021-11-20T09:54:43.596Z</time>
      </trkpt>
      <trkpt lat="47.570964" lon="7.695239">
        <ele>509.075038</ele>
        <time>2021-11-20T09:55:50.661Z</time>
      </trkpt>
      <trkpt lat="47.570940" lon="7.695816">
        <ele>508.512270</ele>
        <time>2021-11-20T09:56:19.581Z</time>
      </trkpt>
      <trkpt lat="47.570834" lon="7.698138">
        <ele>504.444106</ele>
        <time>2021-11-20T09:58:11.083Z</time>
      </trkpt>
      <trkpt lat="47.570744" lon="7.698880">
        <ele>502.351295</ele>
        <time>2021-11-20T09:58:46.082Z</time>
      </trkpt>
      <trkpt lat="47.570278" lon="7.699755">
        <ele>499.170169</ele>
        <time>2021-11-20T09:59:36.749Z</time>
      </trkpt>
      <trkpt lat="47.569830" lon="7.699565">
        <ele>497.199255</ele>
        <time>2021-11-20T09:59:41.165Z</time>
      </trkpt>
      <trkpt lat="47.569386" lon="7.699378">
        <ele>494.963352</ele>
        <time>2021-11-20T09:59:45.500Z</time>
      </trkpt>
      <trkpt lat="47.569093" lon="7.699112">
        <ele>493.234756</ele>
        <time>2021-11-20T09:59:48.738Z</time>
      </trkpt>
      <trkpt lat="47.568602" lon="7.698487">
        <ele>489.978625</ele>
        <time>2021-11-20T09:59:54.905Z</time>
      </trkpt>
      <trkpt lat="47.567964" lon="7.697996">
        <ele>485.816997</ele>
        <time>2021-11-20T10:00:01.653Z</time>
      </trkpt>
      <trkpt lat="47.567166" lon="7.697504">
        <ele>479.691344</ele>
        <time>2021-11-20T10:00:09.502Z</time>
      </trkpt>
      <trkpt lat="47.566435" lon="7.697358">
        <ele>474.173602</ele>
        <time>2021-11-20T10:00:15.981Z</time>
      </trkpt>
      <trkpt lat="47.565744" lon="7.697318">
        <ele>466.335009</ele>
        <time>2021-11-20T10:00:21.923Z</time>
      </trkpt>
      <trkpt lat="47.565173" lon="7.697132">
        <ele>459.708115</ele>
        <time>2021-11-20T10:00:26.884Z</time>
      </trkpt>
      <trkpt lat="47.563259" lon="7.696241">
        <ele>433.667244</ele>
        <time>2021-11-20T10:00:43.665Z</time>
      </trkpt>
      <trkpt lat="47.562620" lon="7.695953">
        <ele>425.220162</ele>
        <time>2021-11-20T10:00:49.276Z</time>
      </trkpt>
      <trkpt lat="47.562128" lon="7.695702">
        <ele>418.887444</ele>
        <time>2021-11-20T10:00:53.668Z</time>
      </trkpt>
      <trkpt lat="47.561669" lon="7.695498">
        <ele>413.055407</ele>
        <time>2021-11-20T10:00:57.718Z</time>
      </trkpt>
      <trkpt lat="47.561053" lon="7.695338">
        <ele>405.854646</ele>
        <time>2021-11-20T10:01:03.040Z</time>
      </trkpt>
      <trkpt lat="47.560012" lon="7.695119">
        <ele>394.801970</ele>
        <time>2021-11-20T10:01:12.050Z</time>
      </trkpt>
      <trkpt lat="47.559078" lon="7.694904">
        <ele>385.588577</ele>
        <time>2021-11-20T10:01:20.187Z</time>
      </trkpt>
      <trkpt lat="47.558618" lon="7.694872">
        <ele>381.494595</ele>
        <time>2021-11-20T10:01:24.187Z</time>
      </trkpt>
      <trkpt lat="47.556836" lon="7.695079">
        <ele>366.679839</ele>
        <time>2021-11-20T10:01:39.944Z</time>
      </trkpt>
      <trkpt lat="47.555130" lon="7.694964">
        <ele>351.834515</ele>
        <time>2021-11-20T10:01:55.218Z</time>
      </trkpt>
      <trkpt lat="47.554864" lon="7.694875">
        <ele>349.155832</ele>
        <time>2021-11-20T10:01:57.581Z</time>
      </trkpt>
      <trkpt lat="47.554572" lon="7.694665">
        <ele>345.967536</ele>
        <time>2021-11-20T10:02:00.345Z</time>
      </trkpt>
      <trkpt lat="47.554384" lon="7.694448">
        <ele>343.626630</ele>
        <time>2021-11-20T10:02:02.376Z</time>
      </trkpt>
      <trkpt lat="47.554245" lon="7.694182">
        <ele>340.957752</ele>
        <time>2021-11-20T10:02:04.285Z</time>
      </trkpt>
      <trkpt lat="47.554028" lon="7.693827">
        <ele>335.695813</ele>
        <time>2021-11-20T10:02:06.959Z</time>
      </trkpt>
      <trkpt lat="47.553606" lon="7.693126">
        <ele>325.376017</ele>
        <time>2021-11-20T10:02:12.184Z</time>
      </trkpt>
      <trkpt lat="47.553281" lon="7.692750">
        <ele>318.663932</ele>
        <time>2021-11-20T10:02:15.585Z</time>
      </trkpt>
      <trkpt lat="47.553101" lon="7.692582">
        <ele>315.200997</ele>
        <time>2021-11-20T10:02:17.342Z</time>
      </trkpt>
      <trkpt lat="47.553059" lon="7.692566">
        <ele>314.495077</ele>
        <time>2021-11-20T10:02:17.696Z</time>
      </trkpt>
      <trkpt lat="47.552195" lon="7.692398">
        <ele>301.975514</ele>
        <time>2021-11-20T10:02:24.879Z</time>
      </trkpt>
      <trkpt lat="47.551995" lon="7.692291">
        <ele>298.976225</ele>
        <time>2021-11-20T10:02:26.639Z</time>
      </trkpt>
      <trkpt lat="47.551908" lon="7.692244">
        <ele>297.670056</ele>
        <time>2021-11-20T10:02:27.421Z</time>
      </trkpt>
      <trkpt lat="47.551619" lon="7.692088">
        <ele>293.331584</ele>
        <time>2021-11-20T10:02:29.985Z</time>
      </trkpt>
      <trkpt lat="47.551568" lon="7.692024">
        <ele>292.388879</ele>
        <time>2021-11-20T10:02:30.557Z</time>
      </trkpt>
      <trkpt lat="47.551434" lon="7.691862">
        <ele>289.949437</ele>
        <time>2021-11-20T10:02:32.075Z</time>
      </trkpt>
      <trkpt lat="47.551182" lon="7.691473">
        <ele>286.363299</ele>
        <time>2021-11-20T10:02:35.289Z</time>
      </trkpt>
      <trkpt lat="47.551000" lon="7.691170">
        <ele>284.800380</ele>
        <time>2021-11-20T10:02:37.713Z</time>
      </trkpt>
      <trkpt lat="47.550764" lon="7.690746">
        <ele>282.682718</ele>
        <time>2021-11-20T10:02:41.049Z</time>
      </trkpt>
      <trkpt lat="47.550476" lon="7.690324">
        <ele>280.370255</ele>
        <time>2021-11-20T10:02:44.872Z</time>
      </trkpt>
      <trkpt lat="47.550112" lon="7.690714">
        <ele>277.805734</ele>
        <time>2021-11-20T10:02:49.439Z</time>
      </trkpt>
      <trkpt lat="47.549797" lon="7.691193">
        <ele>276.746771</ele>
        <time>2021-11-20T10:02:54.081Z</time>
      </trkpt>
      <trkpt lat="47.549695" lon="7.691435">
        <ele>276.517542</ele>
        <time>2021-11-20T10:02:56.326Z</time>
      </trkpt>
      <trkpt lat="47.549685" lon="7.691459">
        <ele>276.494882</ele>
        <time>2021-11-20T10:02:56.563Z</time>
      </trkpt>
      <trkpt lat="47.549325" lon="7.692315">
        <ele>275.684553</ele>
        <time>2021-11-20T10:03:05.080Z</time>
      </trkpt>
      <trkpt lat="47.549253" lon="7.692474">
        <ele>275.530718</ele>
        <time>2021-11-20T10:03:07.227Z</time>
      </trkpt>
      <trkpt lat="47.549216" lon="7.692540">
        <ele>275.461786</ele>
        <time>2021-11-20T10:03:07.829Z</time>
      </trkpt>
      <trkpt lat="47.549059" lon="7.692848">
        <ele>275.151682</ele>
        <time>2021-11-20T10:03:11.549Z</time>
      </trkpt>
      <trkpt lat="47.548974" lon="7.693002">
        <ele>275.008642</ele>
        <time>2021-11-20T10:03:13.367Z</time>
      </trkpt>
      <trkpt lat="47.548782" lon="7.693465">
        <ele>275.104424</ele>
        <time>2021-11-20T10:03:18.781Z</time>
      </trkpt>
      <trkpt lat="47.548638" lon="7.694044">
        <ele>275.213189</ele>
        <time>2021-11-20T10:03:25.372Z</time>
      </trkpt>
      <trkpt lat="47.548591" lon="7.694324">
        <ele>275.264046</ele>
        <time>2021-11-20T10:03:29.098Z</time>
      </trkpt>
      <trkpt lat="47.548452" lon="7.695145">
        <ele>275.413243</ele>
        <time>2021-11-20T10:03:39.300Z</time>
      </trkpt>
      <trkpt lat="47.548427" lon="7.695434">
        <ele>275.464600</ele>
        <time>2021-11-20T10:03:42.584Z</time>
      </trkpt>
      <trkpt lat="47.548417" lon="7.695616">
        <ele>275.421970</ele>
        <time>2021-11-20T10:03:44.349Z</time>
      </trkpt>
      <trkpt lat="47.548389" lon="7.696070">
        <ele>275.222131</ele>
        <time>2021-11-20T10:03:48.766Z</time>
      </trkpt>
      <trkpt lat="47.548339" lon="7.696589">
        <ele>274.992322</ele>
        <time>2021-11-20T10:03:53.207Z</time>
      </trkpt>
      <trkpt lat="47.548314" lon="7.696826">
        <ele>274.887173</ele>
        <time>2021-11-20T10:03:55.217Z</time>
      </trkpt>
      <trkpt lat="47.548224" lon="7.697419">
        <ele>274.620742</ele>
        <time>2021-11-20T10:04:00.303Z</time>
      </trkpt>
      <trkpt lat="47.548069" lon="7.698253">
        <ele>274.214803</ele>
        <time>2021-11-20T10:04:07.346Z</time>
      </trkpt>
      <trkpt lat="47.547999" lon="7.698586">
        <ele>273.999645</ele>
        <time>2021-11-20T10:04:10.165Z</time>
      </trkpt>
      <trkpt lat="47.547999" lon="7.698586">
        <ele>273.999645</ele>
        <time>2021-11-20T10:04:10.171Z</time>
      </trkpt>
      <trkpt lat="47.547970" lon="7.698727">
        <ele>273.908714</ele>
        <time>2021-11-20T10:04:11.819Z</time>
      </trkpt>
      <trkpt lat="47.547913" lon="7.699038">
        <ele>273.709912</ele>
        <time>2021-11-20T10:04:14.655Z</time>
      </trkpt>
      <trkpt lat="47.547903" lon="7.699114">
        <ele>273.662145</ele>
        <time>2021-11-20T10:04:15.150Z</time>
      </trkpt>
      <trkpt lat="47.547900" lon="7.699136">
        <ele>273.648299</ele>
        <time>2021-11-20T10:04:15.928Z</time>
      </trkpt>
      <trkpt lat="47.547846" lon="7.699539">
        <ele>273.394838</ele>
        <time>2021-11-20T10:04:19.524Z</time>
      </trkpt>
      <trkpt lat="47.547718" lon="7.701632">
        <ele>272.187322</ele>
        <time>2021-11-20T10:04:37.067Z</time>
      </trkpt>
      <trkpt lat="47.547586" lon="7.702759">
        <ele>271.592774</ele>
        <time>2021-11-20T10:04:46.411Z</time>
      </trkpt>
      <trkpt lat="47.547159" lon="7.704989">
        <ele>271.632448</ele>
        <time>2021-11-20T10:05:08.484Z</time>
      </trkpt>
      <trkpt lat="47.547129" lon="7.705131">
        <ele>271.663216</ele>
        <time>2021-11-20T10:05:10.825Z</time>
      </trkpt>
      <trkpt lat="47.547066" lon="7.705298">
        <ele>271.702776</ele>
        <time>2021-11-20T10:05:13.522Z</time>
      </trkpt>
      <trkpt lat="47.547127" lon="7.705322">
        <ele>271.722111</ele>
        <time>2021-11-20T10:05:14.649Z</time>
      </trkpt>
      <trkpt lat="47.547180" lon="7.705341">
        <ele>271.738816</ele>
        <time>2021-11-20T10:05:15.467Z</time>
      </trkpt>
      <trkpt lat="47.547207" lon="7.705419">
        <ele>271.756942</ele>
        <time>2021-11-20T10:05:16.860Z</time>
      </trkpt>
      <trkpt lat="47.547249" lon="7.705683">
        <ele>271.813028</ele>
        <time>2021-11-20T10:05:20.539Z</time>
      </trkpt>
      <trkpt lat="47.547278" lon="7.705764">
        <ele>271.839605</ele>
        <time>2021-11-20T10:05:21.725Z</time>
      </trkpt>
      <trkpt lat="47.547245" lon="7.705830">
        <ele>271.904171</ele>
        <time>2021-11-20T10:05:22.626Z</time>
      </trkpt>
      <trkpt lat="47.547175" lon="7.705728">
        <ele>272.018518</ele>
        <time>2021-11-20T10:05:25.681Z</time>
      </trkpt>
      <trkpt lat="47.547182" lon="7.705657">
        <ele>272.074923</ele>
        <time>2021-11-20T10:05:27.044Z</time>
      </trkpt>
      <trkpt lat="47.547164" lon="7.705591">
        <ele>272.130880</ele>
        <time>2021-11-20T10:05:28.322Z</time>
      </trkpt>
      <trkpt lat="47.547142" lon="7.705507">
        <ele>272.201709</ele>
        <time>2021-11-20T10:05:29.802Z</time>
      </trkpt>
      <trkpt lat="47.547132" lon="7.705492">
        <ele>272.218282</ele>
        <time>2021-11-20T10:05:30.108Z</time>
      </trkpt>
      <trkpt lat="47.547127" lon="7.705322">
        <ele>272.352046</ele>
        <time>2021-11-20T10:05:32.886Z</time>
      </trkpt>
      <trkpt lat="47.547180" lon="7.705341">
        <ele>272.415552</ele>
        <time>2021-11-20T10:05:34.246Z</time>
      </trkpt>
      <trkpt lat="47.547207" lon="7.705419">
        <ele>272.484460</ele>
        <time>2021-11-20T10:05:35.717Z</time>
      </trkpt>
      <trkpt lat="47.547249" lon="7.705683">
        <ele>272.697676</ele>
        <time>2021-11-20T10:05:39.361Z</time>
      </trkpt>
      <trkpt lat="47.547278" lon="7.705764">
        <ele>272.769752</ele>
        <time>2021-11-20T10:05:40.499Z</time>
      </trkpt>
      <trkpt lat="47.547245" lon="7.705830">
        <ele>272.834319</ele>
        <time>2021-11-20T10:05:41.918Z</time>
      </trkpt>
      <trkpt lat="47.547211" lon="7.705906">
        <ele>272.905993</ele>
        <time>2021-11-20T10:05:43.465Z</time>
      </trkpt>
      <trkpt lat="47.547338" lon="7.705979">
        <ele>273.064641</ele>
        <time>2021-11-20T10:05:46.951Z</time>
      </trkpt>
      <trkpt lat="47.547359" lon="7.706003">
        <ele>273.095529</ele>
        <time>2021-11-20T10:05:47.565Z</time>
      </trkpt>
      <trkpt lat="47.547456" lon="7.706117">
        <ele>273.239725</ele>
        <time>2021-11-20T10:05:49.605Z</time>
      </trkpt>
      <trkpt lat="47.547565" lon="7.706271">
        <ele>273.415138</ele>
        <time>2021-11-20T10:05:52.539Z</time>
      </trkpt>
      <trkpt lat="47.547645" lon="7.706169">
        <ele>273.538059</ele>
        <time>2021-11-20T10:05:55.001Z</time>
      </trkpt>
      <trkpt lat="47.547718" lon="7.706083">
        <ele>273.646678</ele>
        <time>2021-11-20T10:05:56.865Z</time>
      </trkpt>
      <trkpt lat="47.547767" lon="7.706177">
        <ele>273.740041</ele>
        <time>2021-11-20T10:05:58.297Z</time>
      </trkpt>
      <trkpt lat="47.547779" lon="7.706281">
        <ele>273.822980</ele>
        <time>2021-11-20T10:05:59.749Z</time>
      </trkpt>
      <trkpt lat="47.547774" lon="7.706385">
        <ele>273.904940</ele>
        <time>2021-11-20T10:06:00.913Z</time>
      </trkpt>
      <trkpt lat="47.547770" lon="7.706493">
        <ele>273.948838</ele>
        <time>2021-11-20T10:06:02.187Z</time>
      </trkpt>
      <trkpt lat="47.547782" lon="7.706642">
        <ele>273.993256</ele>
        <time>2021-11-20T10:06:03.764Z</time>
      </trkpt>
      <trkpt lat="47.547925" lon="7.707901">
        <ele>274.371163</ele>
        <time>2021-11-20T10:06:19.015Z</time>
      </trkpt>
      <trkpt lat="47.547969" lon="7.708286">
        <ele>274.486746</ele>
        <time>2021-11-20T10:06:22.866Z</time>
      </trkpt>
      <trkpt lat="47.548718" lon="7.711675">
        <ele>275.266251</ele>
        <time>2021-11-20T10:07:00.274Z</time>
      </trkpt>
      <trkpt lat="47.548964" lon="7.712473">
        <ele>275.707815</ele>
        <time>2021-11-20T10:07:11.291Z</time>
      </trkpt>
      <trkpt lat="47.549551" lon="7.713795">
        <ele>276.504281</ele>
        <time>2021-11-20T10:07:31.189Z</time>
      </trkpt>
      <trkpt lat="47.549644" lon="7.714162">
        <ele>276.574471</ele>
        <time>2021-11-20T10:07:35.752Z</time>
      </trkpt>
      <trkpt lat="47.549908" lon="7.715097">
        <ele>276.687629</ele>
        <time>2021-11-20T10:07:46.717Z</time>
      </trkpt>
      <trkpt lat="47.549978" lon="7.715484">
        <ele>276.732362</ele>
        <time>2021-11-20T10:07:50.758Z</time>
      </trkpt>
      <trkpt lat="47.550037" lon="7.715872">
        <ele>276.776768</ele>
        <time>2021-11-20T10:07:54.725Z</time>
      </trkpt>
      <trkpt lat="47.550065" lon="7.716105">
        <ele>276.803191</ele>
        <time>2021-11-20T10:07:57.049Z</time>
      </trkpt>
      <trkpt lat="47.550088" lon="7.716261">
        <ele>276.821019</ele>
        <time>2021-11-20T10:07:58.520Z</time>
      </trkpt>
      <trkpt lat="47.550264" lon="7.717130">
        <ele>276.656820</ele>
        <time>2021-11-20T10:08:06.520Z</time>
      </trkpt>
      <trkpt lat="47.550904" lon="7.719258">
        <ele>276.153741</ele>
        <time>2021-11-20T10:08:28.240Z</time>
      </trkpt>
      <trkpt lat="47.550927" lon="7.719408">
        <ele>276.130360</ele>
        <time>2021-11-20T10:08:29.741Z</time>
      </trkpt>
      <trkpt lat="47.550953" lon="7.719585">
        <ele>276.102827</ele>
        <time>2021-11-20T10:08:31.528Z</time>
      </trkpt>
      <trkpt lat="47.550910" lon="7.720574">
        <ele>275.952189</ele>
        <time>2021-11-20T10:08:40.900Z</time>
      </trkpt>
      <trkpt lat="47.550965" lon="7.720874">
        <ele>275.904937</ele>
        <time>2021-11-20T10:08:43.730Z</time>
      </trkpt>
      <trkpt lat="47.551056" lon="7.721158">
        <ele>275.857152</ele>
        <time>2021-11-20T10:08:46.692Z</time>
      </trkpt>
      <trkpt lat="47.551208" lon="7.721582">
        <ele>275.803672</ele>
        <time>2021-11-20T10:08:51.221Z</time>
      </trkpt>
      <trkpt lat="47.551366" lon="7.721998">
        <ele>275.776183</ele>
        <time>2021-11-20T10:08:55.763Z</time>
      </trkpt>
      <trkpt lat="47.551616" lon="7.722641">
        <ele>275.733450</ele>
        <time>2021-11-20T10:09:02.784Z</time>
      </trkpt>
      <trkpt lat="47.551732" lon="7.722977">
        <ele>275.711717</ele>
        <time>2021-11-20T10:09:06.447Z</time>
      </trkpt>
      <trkpt lat="47.551814" lon="7.723307">
        <ele>275.691466</ele>
        <time>2021-11-20T10:09:09.985Z</time>
      </trkpt>
      <trkpt lat="47.552212" lon="7.724918">
        <ele>275.999268</ele>
        <time>2021-11-20T10:09:28.256Z</time>
      </trkpt>
      <trkpt lat="47.552325" lon="7.725243">
        <ele>276.101519</ele>
        <time>2021-11-20T10:09:32.603Z</time>
      </trkpt>
      <trkpt lat="47.552679" lon="7.726185">
        <ele>276.403068</ele>
        <time>2021-11-20T10:09:45.000Z</time>
      </trkpt>
      <trkpt lat="47.553028" lon="7.727114">
        <ele>276.897706</ele>
        <time>2021-11-20T10:09:57.329Z</time>
      </trkpt>
      <trkpt lat="47.553188" lon="7.727446">
        <ele>277.088628</ele>
        <time>2021-11-20T10:10:01.948Z</time>
      </trkpt>
      <trkpt lat="47.553253" lon="7.727551">
        <ele>277.155308</ele>
        <time>2021-11-20T10:10:03.547Z</time>
      </trkpt>
      <trkpt lat="47.553315" lon="7.727611">
        <ele>277.206658</ele>
        <time>2021-11-20T10:10:04.927Z</time>
      </trkpt>
      <trkpt lat="47.553838" lon="7.728124">
        <ele>277.641588</ele>
        <time>2021-11-20T10:10:16.186Z</time>
      </trkpt>
      <trkpt lat="47.554136" lon="7.728404">
        <ele>277.998570</ele>
        <time>2021-11-20T10:10:22.937Z</time>
      </trkpt>
      <trkpt lat="47.554367" lon="7.728585">
        <ele>278.267631</ele>
        <time>2021-11-20T10:10:27.742Z</time>
      </trkpt>
      <trkpt lat="47.554499" lon="7.728580">
        <ele>278.403590</ele>
        <time>2021-11-20T10:10:30.500Z</time>
      </trkpt>
      <trkpt lat="47.554550" lon="7.728615">
        <ele>278.461462</ele>
        <time>2021-11-20T10:10:31.613Z</time>
      </trkpt>
      <trkpt lat="47.554503" lon="7.728787">
        <ele>278.590411</ele>
        <time>2021-11-20T10:10:33.750Z</time>
      </trkpt>
      <trkpt lat="47.554645" lon="7.728883">
        <ele>278.751123</ele>
        <time>2021-11-20T10:10:37.200Z</time>
      </trkpt>
      <trkpt lat="47.555159" lon="7.729171">
        <ele>279.316944</ele>
        <time>2021-11-20T10:10:47.596Z</time>
      </trkpt>
      <trkpt lat="47.555310" lon="7.729256">
        <ele>279.483265</ele>
        <time>2021-11-20T10:10:51.103Z</time>
      </trkpt>
      <trkpt lat="47.555982" lon="7.729642">
        <ele>279.741480</ele>
        <time>2021-11-20T10:11:03.816Z</time>
      </trkpt>
      <trkpt lat="47.556120" lon="7.729737">
        <ele>279.792669</ele>
        <time>2021-11-20T10:11:05.997Z</time>
      </trkpt>
      <trkpt lat="47.556229" lon="7.729846">
        <ele>279.836906</ele>
        <time>2021-11-20T10:11:08.178Z</time>
      </trkpt>
      <trkpt lat="47.556305" lon="7.729996">
        <ele>279.879489</ele>
        <time>2021-11-20T10:11:10.256Z</time>
      </trkpt>
      <trkpt lat="47.556357" lon="7.730174">
        <ele>279.923524</ele>
        <time>2021-11-20T10:11:12.072Z</time>
      </trkpt>
      <trkpt lat="47.556427" lon="7.730477">
        <ele>279.996232</ele>
        <time>2021-11-20T10:11:15.704Z</time>
      </trkpt>
      <trkpt lat="47.556599" lon="7.731204">
        <ele>280.029855</ele>
        <time>2021-11-20T10:11:22.827Z</time>
      </trkpt>
      <trkpt lat="47.556635" lon="7.731437">
        <ele>279.955025</ele>
        <time>2021-11-20T10:11:25.120Z</time>
      </trkpt>
      <trkpt lat="47.556684" lon="7.732421">
        <ele>279.646140</ele>
        <time>2021-11-20T10:11:33.813Z</time>
      </trkpt>
      <trkpt lat="47.556695" lon="7.732526">
        <ele>279.612875</ele>
        <time>2021-11-20T10:11:34.781Z</time>
      </trkpt>
      <trkpt lat="47.556704" lon="7.732597">
        <ele>279.590260</ele>
        <time>2021-11-20T10:11:35.393Z</time>
      </trkpt>
      <trkpt lat="47.556773" lon="7.733074">
        <ele>279.437540</ele>
        <time>2021-11-20T10:11:39.650Z</time>
      </trkpt>
      <trkpt lat="47.556784" lon="7.733151">
        <ele>279.412901</ele>
        <time>2021-11-20T10:11:40.337Z</time>
      </trkpt>
      <trkpt lat="47.556872" lon="7.733723">
        <ele>279.204397</ele>
        <time>2021-11-20T10:11:45.681Z</time>
      </trkpt>
      <trkpt lat="47.556910" lon="7.733982">
        <ele>279.078608</ele>
        <time>2021-11-20T10:11:48.090Z</time>
      </trkpt>
      <trkpt lat="47.556947" lon="7.734300">
        <ele>278.925463</ele>
        <time>2021-11-20T10:11:50.996Z</time>
      </trkpt>
      <trkpt lat="47.556909" lon="7.735277">
        <ele>278.461023</ele>
        <time>2021-11-20T10:11:59.154Z</time>
      </trkpt>
      <trkpt lat="47.556652" lon="7.736450">
        <ele>277.825967</ele>
        <time>2021-11-20T10:12:09.843Z</time>
      </trkpt>
      <trkpt lat="47.556658" lon="7.736525">
        <ele>277.777083</ele>
        <time>2021-11-20T10:12:10.385Z</time>
      </trkpt>
      <trkpt lat="47.556614" lon="7.736602">
        <ele>277.711778</ele>
        <time>2021-11-20T10:12:11.248Z</time>
      </trkpt>
      <trkpt lat="47.556578" lon="7.736762">
        <ele>277.602614</ele>
        <time>2021-11-20T10:12:12.738Z</time>
      </trkpt>
      <trkpt lat="47.556486" lon="7.737232">
        <ele>277.285866</ele>
        <time>2021-11-20T10:12:16.835Z</time>
      </trkpt>
      <trkpt lat="47.556447" lon="7.737561">
        <ele>277.069659</ele>
        <time>2021-11-20T10:12:19.498Z</time>
      </trkpt>
      <trkpt lat="47.556422" lon="7.737881">
        <ele>276.861154</ele>
        <time>2021-11-20T10:12:22.196Z</time>
      </trkpt>
      <trkpt lat="47.556423" lon="7.738362">
        <ele>276.549823</ele>
        <time>2021-11-20T10:12:26.129Z</time>
      </trkpt>
      <trkpt lat="47.556427" lon="7.738558">
        <ele>276.422903</ele>
        <time>2021-11-20T10:12:27.688Z</time>
      </trkpt>
      <trkpt lat="47.556461" lon="7.739007">
        <ele>276.180955</ele>
        <time>2021-11-20T10:12:31.385Z</time>
      </trkpt>
      <trkpt lat="47.556492" lon="7.739412">
        <ele>276.001993</ele>
        <time>2021-11-20T10:12:35.028Z</time>
      </trkpt>
      <trkpt lat="47.556465" lon="7.739495">
        <ele>275.961538</ele>
        <time>2021-11-20T10:12:35.737Z</time>
      </trkpt>
      <trkpt lat="47.556198" lon="7.740232">
        <ele>275.594267</ele>
        <time>2021-11-20T10:12:43.078Z</time>
      </trkpt>
      <trkpt lat="47.556182" lon="7.740456">
        <ele>275.495366</ele>
        <time>2021-11-20T10:12:44.921Z</time>
      </trkpt>
      <trkpt lat="47.556109" lon="7.741529">
        <ele>275.121549</ele>
        <time>2021-11-20T10:12:54.434Z</time>
      </trkpt>
      <trkpt lat="47.555842" lon="7.742820">
        <ele>275.148291</ele>
        <time>2021-11-20T10:13:08.654Z</time>
      </trkpt>
      <trkpt lat="47.555722" lon="7.743661">
        <ele>275.165315</ele>
        <time>2021-11-20T10:13:17.829Z</time>
      </trkpt>
      <trkpt lat="47.555572" lon="7.744136">
        <ele>275.124483</ele>
        <time>2021-11-20T10:13:23.158Z</time>
      </trkpt>
      <trkpt lat="47.555416" lon="7.744384">
        <ele>275.070561</ele>
        <time>2021-11-20T10:13:26.507Z</time>
      </trkpt>
      <trkpt lat="47.555226" lon="7.744660">
        <ele>275.007855</ele>
        <time>2021-11-20T10:13:30.455Z</time>
      </trkpt>
      <trkpt lat="47.555182" lon="7.744738">
        <ele>274.991686</ele>
        <time>2021-11-20T10:13:31.363Z</time>
      </trkpt>
      <trkpt lat="47.555091" lon="7.744936">
        <ele>274.953585</ele>
        <time>2021-11-20T10:13:33.631Z</time>
      </trkpt>
      <trkpt lat="47.554910" lon="7.745450">
        <ele>274.861372</ele>
        <time>2021-11-20T10:13:39.058Z</time>
      </trkpt>
      <trkpt lat="47.554871" lon="7.745667">
        <ele>274.825655</ele>
        <time>2021-11-20T10:13:41.128Z</time>
      </trkpt>
      <trkpt lat="47.554853" lon="7.745965">
        <ele>274.778068</ele>
        <time>2021-11-20T10:13:43.808Z</time>
      </trkpt>
      <trkpt lat="47.554786" lon="7.747259">
        <ele>274.338629</ele>
        <time>2021-11-20T10:13:55.004Z</time>
      </trkpt>
      <trkpt lat="47.554319" lon="7.750058">
        <ele>273.459338</ele>
        <time>2021-11-20T10:14:20.753Z</time>
      </trkpt>
      <trkpt lat="47.554302" lon="7.750411">
        <ele>273.379470</ele>
        <time>2021-11-20T10:14:24.089Z</time>
      </trkpt>
      <trkpt lat="47.554273" lon="7.750704">
        <ele>273.312637</ele>
        <time>2021-11-20T10:14:26.931Z</time>
      </trkpt>
      <trkpt lat="47.554075" lon="7.752001">
        <ele>273.205667</ele>
        <time>2021-11-20T10:14:39.838Z</time>
      </trkpt>
      <trkpt lat="47.554122" lon="7.753011">
        <ele>273.287594</ele>
        <time>2021-11-20T10:14:50.153Z</time>
      </trkpt>
      <trkpt lat="47.554176" lon="7.753798">
        <ele>273.351609</ele>
        <time>2021-11-20T10:14:58.615Z</time>
      </trkpt>
      <trkpt lat="47.554275" lon="7.754160">
        <ele>273.440421</ele>
        <time>2021-11-20T10:15:02.950Z</time>
      </trkpt>
      <trkpt lat="47.554347" lon="7.754347">
        <ele>273.535356</ele>
        <time>2021-11-20T10:15:05.268Z</time>
      </trkpt>
      <trkpt lat="47.554452" lon="7.754585">
        <ele>273.660739</ele>
        <time>2021-11-20T10:15:08.639Z</time>
      </trkpt>
      <trkpt lat="47.554765" lon="7.755268">
        <ele>274.024786</ele>
        <time>2021-11-20T10:15:18.189Z</time>
      </trkpt>
      <trkpt lat="47.554777" lon="7.755293">
        <ele>274.038314</ele>
        <time>2021-11-20T10:15:18.694Z</time>
      </trkpt>
      <trkpt lat="47.554914" lon="7.755680">
        <ele>274.231016</ele>
        <time>2021-11-20T10:15:23.865Z</time>
      </trkpt>
      <trkpt lat="47.555039" lon="7.756348">
        <ele>274.536688</ele>
        <time>2021-11-20T10:15:32.438Z</time>
      </trkpt>
      <trkpt lat="47.555067" lon="7.756625">
        <ele>274.704006</ele>
        <time>2021-11-20T10:15:35.969Z</time>
      </trkpt>
      <trkpt lat="47.555069" lon="7.757021">
        <ele>274.945366</ele>
        <time>2021-11-20T10:15:40.935Z</time>
      </trkpt>
      <trkpt lat="47.555058" lon="7.757801">
        <ele>275.420863</ele>
        <time>2021-11-20T10:15:50.752Z</time>
      </trkpt>
      <trkpt lat="47.555025" lon="7.760185">
        <ele>276.618580</ele>
        <time>2021-11-20T10:16:20.003Z</time>
      </trkpt>
      <trkpt lat="47.555021" lon="7.760351">
        <ele>276.683078</ele>
        <time>2021-11-20T10:16:22.039Z</time>
      </trkpt>
      <trkpt lat="47.555137" lon="7.761950">
        <ele>277.205031</ele>
        <time>2021-11-20T10:16:39.870Z</time>
      </trkpt>
      <trkpt lat="47.555151" lon="7.762144">
        <ele>277.205240</ele>
        <time>2021-11-20T10:16:41.859Z</time>
      </trkpt>
      <trkpt lat="47.555160" lon="7.762248">
        <ele>277.205353</ele>
        <time>2021-11-20T10:16:42.930Z</time>
      </trkpt>
      <trkpt lat="47.555178" lon="7.762514">
        <ele>277.205641</ele>
        <time>2021-11-20T10:16:45.737Z</time>
      </trkpt>
      <trkpt lat="47.555215" lon="7.763047">
        <ele>277.206217</ele>
        <time>2021-11-20T10:16:51.029Z</time>
      </trkpt>
      <trkpt lat="47.555256" lon="7.763536">
        <ele>277.206747</ele>
        <time>2021-11-20T10:16:55.904Z</time>
      </trkpt>
      <trkpt lat="47.555344" lon="7.764439">
        <ele>277.167124</ele>
        <time>2021-11-20T10:17:04.776Z</time>
      </trkpt>
      <trkpt lat="47.555426" lon="7.764999">
        <ele>276.951935</ele>
        <time>2021-11-20T10:17:09.844Z</time>
      </trkpt>
      <trkpt lat="47.555465" lon="7.765253">
        <ele>276.854114</ele>
        <time>2021-11-20T10:17:12.156Z</time>
      </trkpt>
      <trkpt lat="47.555496" lon="7.765461">
        <ele>276.774123</ele>
        <time>2021-11-20T10:17:13.981Z</time>
      </trkpt>
      <trkpt lat="47.555631" lon="7.766213">
        <ele>276.481907</ele>
        <time>2021-11-20T10:17:20.937Z</time>
      </trkpt>
      <trkpt lat="47.555683" lon="7.766459">
        <ele>276.385102</ele>
        <time>2021-11-20T10:17:23.133Z</time>
      </trkpt>
      <trkpt lat="47.555705" lon="7.766563">
        <ele>276.344174</ele>
        <time>2021-11-20T10:17:24.516Z</time>
      </trkpt>
      <trkpt lat="47.555779" lon="7.766907">
        <ele>276.208589</ele>
        <time>2021-11-20T10:17:28.946Z</time>
      </trkpt>
      <trkpt lat="47.556180" lon="7.768445">
        <ele>275.072797</ele>
        <time>2021-11-20T10:17:48.322Z</time>
      </trkpt>
      <trkpt lat="47.556308" lon="7.768946">
        <ele>274.703281</ele>
        <time>2021-11-20T10:17:54.443Z</time>
      </trkpt>
      <trkpt lat="47.556325" lon="7.769016">
        <ele>274.651966</ele>
        <time>2021-11-20T10:17:55.202Z</time>
      </trkpt>
      <trkpt lat="47.556588" lon="7.770024">
        <ele>274.109749</ele>
        <time>2021-11-20T10:18:07.720Z</time>
      </trkpt>
      <trkpt lat="47.556644" lon="7.770245">
        <ele>274.018566</ele>
        <time>2021-11-20T10:18:10.564Z</time>
      </trkpt>
      <trkpt lat="47.556970" lon="7.771488">
        <ele>273.503467</ele>
        <time>2021-11-20T10:18:26.965Z</time>
      </trkpt>
      <trkpt lat="47.556998" lon="7.771574">
        <ele>273.466585</ele>
        <time>2021-11-20T10:18:28.166Z</time>
      </trkpt>
      <trkpt lat="47.556245" lon="7.771767">
        <ele>273.281918</ele>
        <time>2021-11-20T10:18:40.906Z</time>
      </trkpt>
      <trkpt lat="47.555543" lon="7.772035">
        <ele>273.205548</ele>
        <time>2021-11-20T10:18:52.252Z</time>
      </trkpt>
      <trkpt lat="47.555195" lon="7.772170">
        <ele>273.167651</ele>
        <time>2021-11-20T10:18:57.123Z</time>
      </trkpt>
      <trkpt lat="47.554965" lon="7.772257">
        <ele>273.061367</ele>
        <time>2021-11-20T10:18:59.965Z</time>
      </trkpt>
      <trkpt lat="47.554965" lon="7.772257">
        <ele>273.061367</ele>
        <time>2021-11-20T10:18:59.966Z</time>
      </trkpt>
      <trkpt lat="47.554847" lon="7.772301">
        <ele>272.895288</ele>
        <time>2021-11-20T10:19:01.368Z</time>
      </trkpt>
      <trkpt lat="47.554114" lon="7.772582">
        <ele>271.861878</ele>
        <time>2021-11-20T10:19:10.606Z</time>
      </trkpt>
      <trkpt lat="47.554010" lon="7.772622">
        <ele>271.715224</ele>
        <time>2021-11-20T10:19:11.902Z</time>
      </trkpt>
      <trkpt lat="47.553961" lon="7.772642">
        <ele>271.645853</ele>
        <time>2021-11-20T10:19:12.568Z</time>
      </trkpt>
      <trkpt lat="47.553891" lon="7.772673">
        <ele>271.546134</ele>
        <time>2021-11-20T10:19:13.415Z</time>
      </trkpt>
      <trkpt lat="47.553451" lon="7.772879">
        <ele>270.916313</ele>
        <time>2021-11-20T10:19:18.512Z</time>
      </trkpt>
      <trkpt lat="47.553576" lon="7.773568">
        <ele>270.380540</ele>
        <time>2021-11-20T10:19:23.640Z</time>
      </trkpt>
      <trkpt lat="47.553723" lon="7.774381">
        <ele>269.821483</ele>
        <time>2021-11-20T10:19:29.990Z</time>
      </trkpt>
      <trkpt lat="47.553832" lon="7.775040">
        <ele>269.370807</ele>
        <time>2021-11-20T10:19:36.141Z</time>
      </trkpt>
      <trkpt lat="47.553964" lon="7.775914">
        <ele>269.019656</ele>
        <time>2021-11-20T10:19:46.119Z</time>
      </trkpt>
      <trkpt lat="47.554120" lon="7.776876">
        <ele>269.442043</ele>
        <time>2021-11-20T10:19:56.307Z</time>
      </trkpt>
      <trkpt lat="47.554463" lon="7.778985">
        <ele>270.253534</ele>
        <time>2021-11-20T10:20:24.141Z</time>
      </trkpt>
      <trkpt lat="47.554487" lon="7.779153">
        <ele>270.299388</ele>
        <time>2021-11-20T10:20:25.996Z</time>
      </trkpt>
      <trkpt lat="47.554563" lon="7.779668">
        <ele>270.440153</ele>
        <time>2021-11-20T10:20:31.677Z</time>
      </trkpt>
      <trkpt lat="47.554700" lon="7.780547">
        <ele>270.681043</ele>
        <time>2021-11-20T10:20:41.429Z</time>
      </trkpt>
      <trkpt lat="47.554710" lon="7.780618">
        <ele>270.700409</ele>
        <time>2021-11-20T10:20:42.229Z</time>
      </trkpt>
      <trkpt lat="47.554742" lon="7.780852">
        <ele>270.764162</ele>
        <time>2021-11-20T10:20:44.638Z</time>
      </trkpt>
      <trkpt lat="47.554849" lon="7.781551">
        <ele>270.479603</ele>
        <time>2021-11-20T10:20:51.383Z</time>
      </trkpt>
      <trkpt lat="47.554902" lon="7.781936">
        <ele>270.309916</ele>
        <time>2021-11-20T10:20:54.721Z</time>
      </trkpt>
      <trkpt lat="47.554919" lon="7.782052">
        <ele>270.258654</ele>
        <time>2021-11-20T10:20:55.617Z</time>
      </trkpt>
      <trkpt lat="47.554925" lon="7.782093">
        <ele>270.240536</ele>
        <time>2021-11-20T10:20:55.905Z</time>
      </trkpt>
      <trkpt lat="47.555031" lon="7.782812">
        <ele>269.922712</ele>
        <time>2021-11-20T10:21:01.598Z</time>
      </trkpt>
      <trkpt lat="47.555156" lon="7.783560">
        <ele>269.631669</ele>
        <time>2021-11-20T10:21:08.928Z</time>
      </trkpt>
      <trkpt lat="47.555175" lon="7.783674">
        <ele>269.645421</ele>
        <time>2021-11-20T10:21:09.806Z</time>
      </trkpt>
      <trkpt lat="47.555284" lon="7.784197">
        <ele>269.709525</ele>
        <time>2021-11-20T10:21:16.087Z</time>
      </trkpt>
      <trkpt lat="47.555461" lon="7.784621">
        <ele>269.767912</ele>
        <time>2021-11-20T10:21:21.775Z</time>
      </trkpt>
      <trkpt lat="47.555734" lon="7.784979">
        <ele>269.831174</ele>
        <time>2021-11-20T10:21:28.081Z</time>
      </trkpt>
      <trkpt lat="47.555794" lon="7.785053">
        <ele>269.844720</ele>
        <time>2021-11-20T10:21:29.709Z</time>
      </trkpt>
      <trkpt lat="47.555804" lon="7.785065">
        <ele>269.846953</ele>
        <time>2021-11-20T10:21:29.947Z</time>
      </trkpt>
      <trkpt lat="47.555928" lon="7.785221">
        <ele>269.875181</ele>
        <time>2021-11-20T10:21:32.885Z</time>
      </trkpt>
      <trkpt lat="47.556140" lon="7.785486">
        <ele>269.923311</ele>
        <time>2021-11-20T10:21:36.846Z</time>
      </trkpt>
      <trkpt lat="47.556247" lon="7.785618">
        <ele>269.841274</ele>
        <time>2021-11-20T10:21:38.737Z</time>
      </trkpt>
      <trkpt lat="47.556331" lon="7.785736">
        <ele>269.691891</ele>
        <time>2021-11-20T10:21:40.464Z</time>
      </trkpt>
      <trkpt lat="47.556519" lon="7.786031">
        <ele>269.338501</ele>
        <time>2021-11-20T10:21:43.789Z</time>
      </trkpt>
      <trkpt lat="47.556701" lon="7.786373">
        <ele>268.959162</ele>
        <time>2021-11-20T10:21:47.438Z</time>
      </trkpt>
      <trkpt lat="47.556785" lon="7.786722">
        <ele>268.636442</ele>
        <time>2021-11-20T10:21:50.298Z</time>
      </trkpt>
      <trkpt lat="47.556807" lon="7.786849">
        <ele>268.522244</ele>
        <time>2021-11-20T10:21:51.277Z</time>
      </trkpt>
      <trkpt lat="47.556812" lon="7.787001">
        <ele>268.389701</ele>
        <time>2021-11-20T10:21:52.408Z</time>
      </trkpt>
      <trkpt lat="47.556783" lon="7.787207">
        <ele>268.206421</ele>
        <time>2021-11-20T10:21:53.966Z</time>
      </trkpt>
      <trkpt lat="47.556658" lon="7.787468">
        <ele>267.927674</ele>
        <time>2021-11-20T10:21:56.329Z</time>
      </trkpt>
      <trkpt lat="47.556539" lon="7.787710">
        <ele>267.666882</ele>
        <time>2021-11-20T10:21:58.540Z</time>
      </trkpt>
      <trkpt lat="47.556357" lon="7.788058">
        <ele>267.548145</ele>
        <time>2021-11-20T10:22:01.817Z</time>
      </trkpt>
      <trkpt lat="47.556249" lon="7.788270">
        <ele>267.502290</ele>
        <time>2021-11-20T10:22:03.797Z</time>
      </trkpt>
      <trkpt lat="47.556137" lon="7.788488">
        <ele>267.454991</ele>
        <time>2021-11-20T10:22:05.831Z</time>
      </trkpt>
      <trkpt lat="47.556111" lon="7.788537">
        <ele>267.444230</ele>
        <time>2021-11-20T10:22:06.275Z</time>
      </trkpt>
      <trkpt lat="47.556069" lon="7.788614">
        <ele>267.427139</ele>
        <time>2021-11-20T10:22:07.054Z</time>
      </trkpt>
      <trkpt lat="47.555936" lon="7.788828">
        <ele>267.376916</ele>
        <time>2021-11-20T10:22:09.362Z</time>
      </trkpt>
      <trkpt lat="47.555085" lon="7.789685">
        <ele>267.545603</ele>
        <time>2021-11-20T10:22:51.694Z</time>
      </trkpt>
      <trkpt lat="47.555062" lon="7.789726">
        <ele>267.636341</ele>
        <time>2021-11-20T10:22:53.432Z</time>
      </trkpt>
      <trkpt lat="47.555052" lon="7.789771">
        <ele>267.716974</ele>
        <time>2021-11-20T10:22:54.880Z</time>
      </trkpt>
      <trkpt lat="47.555031" lon="7.789894">
        <ele>267.932906</ele>
        <time>2021-11-20T10:22:59.102Z</time>
      </trkpt>
      <trkpt lat="47.554999" lon="7.790090">
        <ele>268.276108</ele>
        <time>2021-11-20T10:23:06.254Z</time>
      </trkpt>
      <trkpt lat="47.554865" lon="7.790678">
        <ele>269.332363</ele>
        <time>2021-11-20T10:23:27.409Z</time>
      </trkpt>
      <trkpt lat="47.554858" lon="7.790696">
        <ele>269.367720</ele>
        <time>2021-11-20T10:23:28.407Z</time>
      </trkpt>
      <trkpt lat="47.554843" lon="7.790728">
        <ele>269.434030</ele>
        <time>2021-11-20T10:23:29.612Z</time>
      </trkpt>
      <trkpt lat="47.554788" lon="7.790844">
        <ele>269.675307</ele>
        <time>2021-11-20T10:23:33.972Z</time>
      </trkpt>
      <trkpt lat="47.554756" lon="7.790897">
        <ele>269.796339</ele>
        <time>2021-11-20T10:23:36.538Z</time>
      </trkpt>
      <trkpt lat="47.554911" lon="7.791459">
        <ele>270.829618</ele>
        <time>2021-11-20T10:23:56.373Z</time>
      </trkpt>
      <trkpt lat="47.555027" lon="7.791948">
        <ele>271.699794</ele>
        <time>2021-11-20T10:24:12.612Z</time>
      </trkpt>
      <trkpt lat="47.555085" lon="7.792163">
        <ele>271.883258</ele>
        <time>2021-11-20T10:24:19.896Z</time>
      </trkpt>
      <trkpt lat="47.555127" lon="7.792307">
        <ele>272.007558</ele>
        <time>2021-11-20T10:24:24.293Z</time>
      </trkpt>
      <trkpt lat="47.555237" lon="7.792734">
        <ele>272.369708</ele>
        <time>2021-11-20T10:24:37.685Z</time>
      </trkpt>
      <trkpt lat="47.555277" lon="7.793131">
        <ele>272.687762</ele>
        <time>2021-11-20T10:24:48.644Z</time>
      </trkpt>
      <trkpt lat="47.555274" lon="7.793423">
        <ele>272.919158</ele>
        <time>2021-11-20T10:24:56.260Z</time>
      </trkpt>
      <trkpt lat="47.555281" lon="7.793955">
        <ele>273.340774</ele>
        <time>2021-11-20T10:25:10.306Z</time>
      </trkpt>
      <trkpt lat="47.555282" lon="7.794033">
        <ele>273.402589</ele>
        <time>2021-11-20T10:25:12.406Z</time>
      </trkpt>
      <trkpt lat="47.555288" lon="7.794318">
        <ele>273.628522</ele>
        <time>2021-11-20T10:25:20.187Z</time>
      </trkpt>
      <trkpt lat="47.555288" lon="7.794496">
        <ele>273.769562</ele>
        <time>2021-11-20T10:25:24.908Z</time>
      </trkpt>
      <trkpt lat="47.555308" lon="7.794498">
        <ele>273.793097</ele>
        <time>2021-11-20T10:25:25.371Z</time>
      </trkpt>
      <trkpt lat="47.555432" lon="7.795493">
        <ele>275.448003</ele>
        <time>2021-11-20T10:25:42.682Z</time>
      </trkpt>
      <trkpt lat="47.555436" lon="7.795522">
        <ele>275.496667</ele>
        <time>2021-11-20T10:25:43.224Z</time>
      </trkpt>
      <trkpt lat="47.555438" lon="7.795535">
        <ele>275.518588</ele>
        <time>2021-11-20T10:25:43.472Z</time>
      </trkpt>
      <trkpt lat="47.555451" lon="7.795635">
        <ele>275.686017</ele>
        <time>2021-11-20T10:25:45.406Z</time>
      </trkpt>
      <trkpt lat="47.555456" lon="7.795684">
        <ele>275.767492</ele>
        <time>2021-11-20T10:25:46.572Z</time>
      </trkpt>
      <trkpt lat="47.555444" lon="7.795749">
        <ele>275.878283</ele>
        <time>2021-11-20T10:25:47.927Z</time>
      </trkpt>
      <trkpt lat="47.555454" lon="7.795902">
        <ele>276.131003</ele>
        <time>2021-11-20T10:25:50.750Z</time>
      </trkpt>
      <trkpt lat="47.555467" lon="7.795984">
        <ele>276.269486</ele>
        <time>2021-11-20T10:25:52.537Z</time>
      </trkpt>
      <trkpt lat="47.555492" lon="7.796158">
        <ele>276.561965</ele>
        <time>2021-11-20T10:25:55.663Z</time>
      </trkpt>
      <trkpt lat="47.555529" lon="7.796462">
        <ele>277.069825</ele>
        <time>2021-11-20T10:26:01.514Z</time>
      </trkpt>
      <trkpt lat="47.555544" lon="7.796747">
        <ele>277.539807</ele>
        <time>2021-11-20T10:26:07.427Z</time>
      </trkpt>
      <trkpt lat="47.555486" lon="7.796849">
        <ele>277.759091</ele>
        <time>2021-11-20T10:26:11.145Z</time>
      </trkpt>
      <trkpt lat="47.555263" lon="7.796971">
        <ele>278.390158</ele>
        <time>2021-11-20T10:26:19.070Z</time>
      </trkpt>
      <trkpt lat="47.555241" lon="7.796953">
        <ele>278.471854</ele>
        <time>2021-11-20T10:26:20.204Z</time>
      </trkpt>
      <trkpt lat="47.555102" lon="7.797022">
        <ele>278.948398</ele>
        <time>2021-11-20T10:26:24.983Z</time>
      </trkpt>
      <trkpt lat="47.555043" lon="7.797058">
        <ele>279.155820</ele>
        <time>2021-11-20T10:26:26.868Z</time>
      </trkpt>
      <trkpt lat="47.554934" lon="7.797124">
        <ele>279.538601</ele>
        <time>2021-11-20T10:26:30.034Z</time>
      </trkpt>
      <trkpt lat="47.554802" lon="7.797205">
        <ele>280.003048</ele>
        <time>2021-11-20T10:26:35.154Z</time>
      </trkpt>
      <trkpt lat="47.554702" lon="7.797265">
        <ele>280.353768</ele>
        <time>2021-11-20T10:26:38.141Z</time>
      </trkpt>
      <trkpt lat="47.554384" lon="7.797459">
        <ele>281.471713</ele>
        <time>2021-11-20T10:26:47.708Z</time>
      </trkpt>
      <trkpt lat="47.554268" lon="7.797531">
        <ele>281.880554</ele>
        <time>2021-11-20T10:26:50.344Z</time>
      </trkpt>
      <trkpt lat="47.554256" lon="7.797539">
        <ele>281.923330</ele>
        <time>2021-11-20T10:26:50.745Z</time>
      </trkpt>
      <trkpt lat="47.554176" lon="7.797585">
        <ele>282.202290</ele>
        <time>2021-11-20T10:26:53.746Z</time>
      </trkpt>
      <trkpt lat="47.554225" lon="7.797729">
        <ele>282.556102</ele>
        <time>2021-11-20T10:26:56.860Z</time>
      </trkpt>
      <trkpt lat="47.554569" lon="7.798771">
        <ele>284.897376</ele>
        <time>2021-11-20T10:27:20.684Z</time>
      </trkpt>
      <trkpt lat="47.554580" lon="7.798805">
        <ele>284.964371</ele>
        <time>2021-11-20T10:27:21.258Z</time>
      </trkpt>
      <trkpt lat="47.554652" lon="7.799037">
        <ele>285.418089</ele>
        <time>2021-11-20T10:27:26.955Z</time>
      </trkpt>
      <trkpt lat="47.554785" lon="7.799447">
        <ele>286.226368</ele>
        <time>2021-11-20T10:27:36.115Z</time>
      </trkpt>
      <trkpt lat="47.554919" lon="7.799767">
        <ele>286.895505</ele>
        <time>2021-11-20T10:27:43.794Z</time>
      </trkpt>
      <trkpt lat="47.555022" lon="7.799940">
        <ele>287.305411</ele>
        <time>2021-11-20T10:27:48.693Z</time>
      </trkpt>
      <trkpt lat="47.554155" lon="7.800510">
        <ele>289.827337</ele>
        <time>2021-11-20T10:28:18.119Z</time>
      </trkpt>
      <trkpt lat="47.554155" lon="7.800510">
        <ele>289.827337</ele>
        <time>2021-11-20T10:28:18.131Z</time>
      </trkpt>
      <trkpt lat="47.554155" lon="7.800510">
        <ele>289.827337</ele>
        <time>2021-11-20T10:28:18.245Z</time>
      </trkpt>
      <trkpt lat="47.553909" lon="7.800673">
        <ele>290.553712</ele>
        <time>2021-11-20T10:28:27.272Z</time>
      </trkpt>
      <trkpt lat="47.553850" lon="7.800751">
        <ele>290.766847</ele>
        <time>2021-11-20T10:28:29.624Z</time>
      </trkpt>
      <trkpt lat="47.553794" lon="7.800894">
        <ele>291.067613</ele>
        <time>2021-11-20T10:28:33.608Z</time>
      </trkpt>
      <trkpt lat="47.553782" lon="7.800961">
        <ele>291.193717</ele>
        <time>2021-11-20T10:28:35.195Z</time>
      </trkpt>
      <trkpt lat="47.553823" lon="7.801201">
        <ele>291.644092</ele>
        <time>2021-11-20T10:28:40.478Z</time>
      </trkpt>
      <trkpt lat="47.554367" lon="7.802333">
        <ele>293.899578</ele>
        <time>2021-11-20T10:29:08.791Z</time>
      </trkpt>
      <trkpt lat="47.554402" lon="7.802456">
        <ele>294.023944</ele>
        <time>2021-11-20T10:29:10.816Z</time>
      </trkpt>
      <trkpt lat="47.554459" lon="7.802666">
        <ele>294.234827</ele>
        <time>2021-11-20T10:29:14.908Z</time>
      </trkpt>
      <trkpt lat="47.554639" lon="7.803656">
        <ele>295.190073</ele>
        <time>2021-11-20T10:29:32.158Z</time>
      </trkpt>
      <trkpt lat="47.554726" lon="7.804275">
        <ele>295.779152</ele>
        <time>2021-11-20T10:29:42.467Z</time>
      </trkpt>
      <trkpt lat="47.554769" lon="7.804587">
        <ele>296.075833</ele>
        <time>2021-11-20T10:29:47.628Z</time>
      </trkpt>
      <trkpt lat="47.554784" lon="7.804721">
        <ele>296.183492</ele>
        <time>2021-11-20T10:29:49.973Z</time>
      </trkpt>
      <trkpt lat="47.554808" lon="7.804930">
        <ele>296.345779</ele>
        <time>2021-11-20T10:29:53.242Z</time>
      </trkpt>
      <trkpt lat="47.554810" lon="7.805056">
        <ele>296.442258</ele>
        <time>2021-11-20T10:29:55.738Z</time>
      </trkpt>
      <trkpt lat="47.554751" lon="7.805044">
        <ele>296.509806</ele>
        <time>2021-11-20T10:29:57.181Z</time>
      </trkpt>
      <trkpt lat="47.554683" lon="7.805120">
        <ele>296.606417</ele>
        <time>2021-11-20T10:29:59.510Z</time>
      </trkpt>
      <trkpt lat="47.554591" lon="7.805119">
        <ele>296.710771</ele>
        <time>2021-11-20T10:30:01.632Z</time>
      </trkpt>
      <trkpt lat="47.554162" lon="7.805088">
        <ele>297.197945</ele>
        <time>2021-11-20T10:30:12.504Z</time>
      </trkpt>
      <trkpt lat="47.553816" lon="7.805061">
        <ele>297.590941</ele>
        <time>2021-11-20T10:30:21.088Z</time>
      </trkpt>
      <trkpt lat="47.553565" lon="7.805008">
        <ele>297.878516</ele>
        <time>2021-11-20T10:30:27.503Z</time>
      </trkpt>
      <trkpt lat="47.553400" lon="7.804940">
        <ele>298.072772</ele>
        <time>2021-11-20T10:30:31.987Z</time>
      </trkpt>
      <trkpt lat="47.553326" lon="7.804924">
        <ele>298.157738</ele>
        <time>2021-11-20T10:30:33.724Z</time>
      </trkpt>
      <trkpt lat="47.553276" lon="7.804918">
        <ele>298.215020</ele>
        <time>2021-11-20T10:30:34.891Z</time>
      </trkpt>
      <trkpt lat="47.553211" lon="7.804952">
        <ele>298.293734</ele>
        <time>2021-11-20T10:30:36.354Z</time>
      </trkpt>
      <trkpt lat="47.552737" lon="7.804819">
        <ele>298.844618</ele>
        <time>2021-11-20T10:30:47.281Z</time>
      </trkpt>
      <trkpt lat="47.552313" lon="7.804725">
        <ele>299.334177</ele>
        <time>2021-11-20T10:30:58.202Z</time>
      </trkpt>
      <trkpt lat="47.552281" lon="7.804747">
        <ele>299.374460</ele>
        <time>2021-11-20T10:30:59.185Z</time>
      </trkpt>
      <trkpt lat="47.552011" lon="7.804535">
        <ele>299.723392</ele>
        <time>2021-11-20T10:31:07.629Z</time>
      </trkpt>
      <trkpt lat="47.551731" lon="7.804667">
        <ele>300.058920</ele>
        <time>2021-11-20T10:31:15.403Z</time>
      </trkpt>
      <trkpt lat="47.551709" lon="7.805000">
        <ele>300.243920</ele>
        <time>2021-11-20T10:31:20.135Z</time>
      </trkpt>
      <trkpt lat="47.551681" lon="7.805477">
        <ele>300.400049</ele>
        <time>2021-11-20T10:31:27.995Z</time>
      </trkpt>
      <trkpt lat="47.551676" lon="7.805820">
        <ele>300.511921</ele>
        <time>2021-11-20T10:31:33.773Z</time>
      </trkpt>
      <trkpt lat="47.551671" lon="7.806117">
        <ele>300.608798</ele>
        <time>2021-11-20T10:31:37.739Z</time>
      </trkpt>
      <trkpt lat="47.551651" lon="7.806246">
        <ele>300.651958</ele>
        <time>2021-11-20T10:31:40.579Z</time>
      </trkpt>
      <trkpt lat="47.551895" lon="7.806278">
        <ele>300.770305</ele>
        <time>2021-11-20T10:31:43.992Z</time>
      </trkpt>
      <trkpt lat="47.552015" lon="7.806307">
        <ele>300.829048</ele>
        <time>2021-11-20T10:31:46.803Z</time>
      </trkpt>
      <trkpt lat="47.552068" lon="7.806445">
        <ele>300.880822</ele>
        <time>2021-11-20T10:31:48.259Z</time>
      </trkpt>
      <trkpt lat="47.552398" lon="7.808880">
        <ele>300.369268</ele>
        <time>2021-11-20T10:32:10.407Z</time>
      </trkpt>
      <trkpt lat="47.552566" lon="7.810386">
        <ele>299.748339</ele>
        <time>2021-11-20T10:32:23.418Z</time>
      </trkpt>
      <trkpt lat="47.552711" lon="7.812955">
        <ele>298.597690</ele>
        <time>2021-11-20T10:32:46.027Z</time>
      </trkpt>
      <trkpt lat="47.552844" lon="7.816432">
        <ele>297.494523</ele>
        <time>2021-11-20T10:33:16.520Z</time>
      </trkpt>
      <trkpt lat="47.552948" lon="7.819358">
        <ele>297.816406</ele>
        <time>2021-11-20T10:33:47.750Z</time>
      </trkpt>
      <trkpt lat="47.552896" lon="7.820699">
        <ele>298.311309</ele>
        <time>2021-11-20T10:34:03.834Z</time>
      </trkpt>
      <trkpt lat="47.552567" lon="7.824508">
        <ele>300.225280</ele>
        <time>2021-11-20T10:34:50.319Z</time>
      </trkpt>
      <trkpt lat="47.552491" lon="7.827227">
        <ele>301.737918</ele>
        <time>2021-11-20T10:35:22.058Z</time>
      </trkpt>
      <trkpt lat="47.552515" lon="7.828094">
        <ele>302.262008</ele>
        <time>2021-11-20T10:35:33.768Z</time>
      </trkpt>
      <trkpt lat="47.552477" lon="7.828294">
        <ele>302.481217</ele>
        <time>2021-11-20T10:35:36.385Z</time>
      </trkpt>
      <trkpt lat="47.552421" lon="7.828481">
        <ele>302.774669</ele>
        <time>2021-11-20T10:35:39.317Z</time>
      </trkpt>
      <trkpt lat="47.552404" lon="7.828582">
        <ele>302.923981</ele>
        <time>2021-11-20T10:35:41.001Z</time>
      </trkpt>
      <trkpt lat="47.552416" lon="7.828822">
        <ele>303.269182</ele>
        <time>2021-11-20T10:35:44.235Z</time>
      </trkpt>
      <trkpt lat="47.552554" lon="7.829266">
        <ele>303.970346</ele>
        <time>2021-11-20T10:35:51.587Z</time>
      </trkpt>
      <trkpt lat="47.552645" lon="7.830686">
        <ele>306.016355</ele>
        <time>2021-11-20T10:36:14.892Z</time>
      </trkpt>
      <trkpt lat="47.552690" lon="7.832598">
        <ele>309.826522</ele>
        <time>2021-11-20T10:36:50.369Z</time>
      </trkpt>
      <trkpt lat="47.552616" lon="7.832891">
        <ele>310.457931</ele>
        <time>2021-11-20T10:36:55.733Z</time>
      </trkpt>
      <trkpt lat="47.552556" lon="7.832977">
        <ele>310.707574</ele>
        <time>2021-11-20T10:36:58.465Z</time>
      </trkpt>
      <trkpt lat="47.552511" lon="7.833072">
        <ele>310.941823</ele>
        <time>2021-11-20T10:37:00.490Z</time>
      </trkpt>
      <trkpt lat="47.552467" lon="7.833198">
        <ele>311.228152</ele>
        <time>2021-11-20T10:37:02.892Z</time>
      </trkpt>
      <trkpt lat="47.552452" lon="7.833284">
        <ele>311.407428</ele>
        <time>2021-11-20T10:37:04.503Z</time>
      </trkpt>
      <trkpt lat="47.552696" lon="7.833789">
        <ele>312.429329</ele>
        <time>2021-11-20T10:37:15.535Z</time>
      </trkpt>
      <trkpt lat="47.552700" lon="7.833938">
        <ele>312.669158</ele>
        <time>2021-11-20T10:37:18.479Z</time>
      </trkpt>
      <trkpt lat="47.552714" lon="7.835010">
        <ele>314.393597</ele>
        <time>2021-11-20T10:37:36.917Z</time>
      </trkpt>
      <trkpt lat="47.552719" lon="7.836790">
        <ele>316.712943</ele>
        <time>2021-11-20T10:38:02.062Z</time>
      </trkpt>
      <trkpt lat="47.552700" lon="7.837939">
        <ele>317.868358</ele>
        <time>2021-11-20T10:38:17.939Z</time>
      </trkpt>
      <trkpt lat="47.552697" lon="7.838068">
        <ele>317.998116</ele>
        <time>2021-11-20T10:38:19.775Z</time>
      </trkpt>
      <trkpt lat="47.552736" lon="7.838578">
        <ele>318.516558</ele>
        <time>2021-11-20T10:38:26.887Z</time>
      </trkpt>
      <trkpt lat="47.552802" lon="7.839009">
        <ele>318.999900</ele>
        <time>2021-11-20T10:38:33.036Z</time>
      </trkpt>
      <trkpt lat="47.552939" lon="7.839526">
        <ele>319.607334</ele>
        <time>2021-11-20T10:38:40.857Z</time>
      </trkpt>
      <trkpt lat="47.553231" lon="7.841529">
        <ele>321.740161</ele>
        <time>2021-11-20T10:39:11.147Z</time>
      </trkpt>
      <trkpt lat="47.553216" lon="7.841849">
        <ele>322.006165</ele>
        <time>2021-11-20T10:39:15.671Z</time>
      </trkpt>
      <trkpt lat="47.553123" lon="7.842222">
        <ele>322.335914</ele>
        <time>2021-11-20T10:39:20.900Z</time>
      </trkpt>
      <trkpt lat="47.553133" lon="7.842431">
        <ele>322.509666</ele>
        <time>2021-11-20T10:39:24.030Z</time>
      </trkpt>
      <trkpt lat="47.552833" lon="7.842495">
        <ele>322.882082</ele>
        <time>2021-11-20T10:39:31.339Z</time>
      </trkpt>
      <trkpt lat="47.552380" lon="7.842592">
        <ele>323.444473</ele>
        <time>2021-11-20T10:39:42.387Z</time>
      </trkpt>
      <trkpt lat="47.551922" lon="7.842704">
        <ele>323.872535</ele>
        <time>2021-11-20T10:39:52.953Z</time>
      </trkpt>
      <trkpt lat="47.551668" lon="7.842770">
        <ele>324.077846</ele>
        <time>2021-11-20T10:39:58.912Z</time>
      </trkpt>
      <trkpt lat="47.551454" lon="7.842815">
        <ele>324.249931</ele>
        <time>2021-11-20T10:40:03.599Z</time>
      </trkpt>
      <trkpt lat="47.551344" lon="7.844621">
        <ele>325.333686</ele>
        <time>2021-11-20T10:40:26.114Z</time>
      </trkpt>
      <trkpt lat="47.551205" lon="7.846694">
        <ele>327.126783</ele>
        <time>2021-11-20T10:40:54.101Z</time>
      </trkpt>
      <trkpt lat="47.551184" lon="7.847206">
        <ele>327.621127</ele>
        <time>2021-11-20T10:41:01.487Z</time>
      </trkpt>
      <trkpt lat="47.551196" lon="7.847517">
        <ele>327.950350</ele>
        <time>2021-11-20T10:41:06.051Z</time>
      </trkpt>
      <trkpt lat="47.551669" lon="7.848083">
        <ele>328.902406</ele>
        <time>2021-11-20T10:41:19.136Z</time>
      </trkpt>
      <trkpt lat="47.551242" lon="7.848702">
        <ele>329.837846</ele>
        <time>2021-11-20T10:41:31.720Z</time>
      </trkpt>
      <trkpt lat="47.550975" lon="7.849066">
        <ele>330.351809</ele>
        <time>2021-11-20T10:41:39.035Z</time>
      </trkpt>
      <trkpt lat="47.550810" lon="7.849346">
        <ele>330.660543</ele>
        <time>2021-11-20T10:41:45.428Z</time>
      </trkpt>
      <trkpt lat="47.550488" lon="7.850081">
        <ele>331.388355</ele>
        <time>2021-11-20T10:42:00.894Z</time>
      </trkpt>
      <trkpt lat="47.550333" lon="7.850434">
        <ele>331.738141</ele>
        <time>2021-11-20T10:42:08.225Z</time>
      </trkpt>
      <trkpt lat="47.550009" lon="7.851173">
        <ele>332.372310</ele>
        <time>2021-11-20T10:42:22.813Z</time>
      </trkpt>
      <trkpt lat="47.549652" lon="7.851969">
        <ele>332.417889</ele>
        <time>2021-11-20T10:42:36.692Z</time>
      </trkpt>
      <trkpt lat="47.549535" lon="7.852225">
        <ele>332.432634</ele>
        <time>2021-11-20T10:42:40.750Z</time>
      </trkpt>
      <trkpt lat="47.549404" lon="7.852519">
        <ele>332.449435</ele>
        <time>2021-11-20T10:42:45.204Z</time>
      </trkpt>
      <trkpt lat="47.549285" lon="7.852784">
        <ele>332.464615</ele>
        <time>2021-11-20T10:42:49.392Z</time>
      </trkpt>
      <trkpt lat="47.549708" lon="7.853279">
        <ele>332.422281</ele>
        <time>2021-11-20T10:42:59.789Z</time>
      </trkpt>
      <trkpt lat="47.550221" lon="7.853833">
        <ele>332.077472</ele>
        <time>2021-11-20T10:43:11.711Z</time>
      </trkpt>
      <trkpt lat="47.549883" lon="7.854434">
        <ele>331.790676</ele>
        <time>2021-11-20T10:43:18.392Z</time>
      </trkpt>
      <trkpt lat="47.549566" lon="7.855225">
        <ele>331.483993</ele>
        <time>2021-11-20T10:43:29.536Z</time>
      </trkpt>
      <trkpt lat="47.549362" lon="7.855774">
        <ele>331.365624</ele>
        <time>2021-11-20T10:43:37.458Z</time>
      </trkpt>
      <trkpt lat="47.548887" lon="7.857308">
        <ele>331.046849</ele>
        <time>2021-11-20T10:43:59.566Z</time>
      </trkpt>
      <trkpt lat="47.548743" lon="7.857692">
        <ele>331.119802</ele>
        <time>2021-11-20T10:44:05.538Z</time>
      </trkpt>
      <trkpt lat="47.548701" lon="7.857893">
        <ele>331.205816</ele>
        <time>2021-11-20T10:44:08.509Z</time>
      </trkpt>
      <trkpt lat="47.548686" lon="7.857973">
        <ele>331.239757</ele>
        <time>2021-11-20T10:44:09.632Z</time>
      </trkpt>
      <trkpt lat="47.548611" lon="7.858381">
        <ele>331.412617</ele>
        <time>2021-11-20T10:44:15.846Z</time>
      </trkpt>
      <trkpt lat="47.548334" lon="7.859801">
        <ele>332.016855</ele>
        <time>2021-11-20T10:44:38.884Z</time>
      </trkpt>
      <trkpt lat="47.548049" lon="7.860929">
        <ele>333.186957</ele>
        <time>2021-11-20T10:44:59.902Z</time>
      </trkpt>
      <trkpt lat="47.547930" lon="7.861711">
        <ele>334.060711</ele>
        <time>2021-11-20T10:45:14.666Z</time>
      </trkpt>
      <trkpt lat="47.547568" lon="7.863151">
        <ele>335.448957</ele>
        <time>2021-11-20T10:45:43.794Z</time>
      </trkpt>
      <trkpt lat="47.547320" lon="7.863864">
        <ele>335.979267</ele>
        <time>2021-11-20T10:45:57.734Z</time>
      </trkpt>
      <trkpt lat="47.546974" lon="7.864423">
        <ele>336.480720</ele>
        <time>2021-11-20T10:46:08.557Z</time>
      </trkpt>
      <trkpt lat="47.546885" lon="7.864500">
        <ele>336.581673</ele>
        <time>2021-11-20T10:46:11.642Z</time>
      </trkpt>
      <trkpt lat="47.546894" lon="7.864837">
        <ele>336.739961</ele>
        <time>2021-11-20T10:46:15.526Z</time>
      </trkpt>
      <trkpt lat="47.546889" lon="7.865225">
        <ele>336.533437</ele>
        <time>2021-11-20T10:46:20.951Z</time>
      </trkpt>
      <trkpt lat="47.546819" lon="7.865489">
        <ele>336.382490</ele>
        <time>2021-11-20T10:46:24.895Z</time>
      </trkpt>
      <trkpt lat="47.546510" lon="7.865766">
        <ele>336.097737</ele>
        <time>2021-11-20T10:46:31.529Z</time>
      </trkpt>
      <trkpt lat="47.546327" lon="7.865959">
        <ele>335.920630</ele>
        <time>2021-11-20T10:46:35.045Z</time>
      </trkpt>
      <trkpt lat="47.546096" lon="7.866147">
        <ele>335.712830</ele>
        <time>2021-11-20T10:46:39.601Z</time>
      </trkpt>
      <trkpt lat="47.545240" lon="7.866887">
        <ele>335.508668</ele>
        <time>2021-11-20T10:46:56.274Z</time>
      </trkpt>
      <trkpt lat="47.545160" lon="7.866985">
        <ele>335.539503</ele>
        <time>2021-11-20T10:46:58.230Z</time>
      </trkpt>
      <trkpt lat="47.545003" lon="7.867278">
        <ele>335.614511</ele>
        <time>2021-11-20T10:47:03.898Z</time>
      </trkpt>
      <trkpt lat="47.544568" lon="7.867693">
        <ele>335.768198</ele>
        <time>2021-11-20T10:47:16.689Z</time>
      </trkpt>
      <trkpt lat="47.544469" lon="7.867776">
        <ele>335.801987</ele>
        <time>2021-11-20T10:47:19.551Z</time>
      </trkpt>
      <trkpt lat="47.544410" lon="7.867825">
        <ele>335.822079</ele>
        <time>2021-11-20T10:47:21.639Z</time>
      </trkpt>
      <trkpt lat="47.544246" lon="7.867967">
        <ele>335.878504</ele>
        <time>2021-11-20T10:47:26.323Z</time>
      </trkpt>
      <trkpt lat="47.544214" lon="7.867988">
        <ele>335.884976</ele>
        <time>2021-11-20T10:47:27.171Z</time>
      </trkpt>
      <trkpt lat="47.543801" lon="7.868269">
        <ele>335.884976</ele>
        <time>2021-11-20T10:47:38.776Z</time>
      </trkpt>
      <trkpt lat="47.543657" lon="7.868359">
        <ele>335.884976</ele>
        <time>2021-11-20T10:47:43.129Z</time>
      </trkpt>
      <trkpt lat="47.543201" lon="7.868657">
        <ele>335.884976</ele>
        <time>2021-11-20T10:47:53.559Z</time>
      </trkpt>
      <trkpt lat="47.543105" lon="7.868711">
        <ele>335.884976</ele>
        <time>2021-11-20T10:47:56.208Z</time>
      </trkpt>
      <trkpt lat="47.543049" lon="7.868759">
        <ele>335.884976</ele>
        <time>2021-11-20T10:47:57.588Z</time>
      </trkpt>
      <trkpt lat="47.542722" lon="7.869201">
        <ele>335.884976</ele>
        <time>2021-11-20T10:48:07.187Z</time>
      </trkpt>
      <trkpt lat="47.542696" lon="7.869257">
        <ele>335.884976</ele>
        <time>2021-11-20T10:48:07.930Z</time>
      </trkpt>
      <trkpt lat="47.542657" lon="7.869354">
        <ele>335.884976</ele>
        <time>2021-11-20T10:48:09.338Z</time>
      </trkpt>
      <trkpt lat="47.542442" lon="7.869648">
        <ele>335.884976</ele>
        <time>2021-11-20T10:48:14.714Z</time>
      </trkpt>
    </trkseg>
  </trk>
</gpx>